[[{"header":{"parameterUnit":"m.s-1","parameterCategory":1,"la1":31.0,"la2":29.5877,"lo1":-88.7671,"lo2":-86.6584,"dy":0.0162,"dx":0.0185,"nx":115,"ny":88,"refTime":"2024-04-04T18:00:00:Z","depth":0,"parameterNumber":2,"parameterNumberName":"U-component_of_WINDS"},"data":[0.0,0.0,0.0,0.0,0.0,0.0,0.0,0.0,0.0,0.0,0.0,0.0,0.0,0.0,0.0,0.0,0.0,0.0,0.0,0.0,0.0,0.0,0.0,0.0,0.0,0.0,0.0,0.0,0.0,0.0,0.0,0.0,0.0,0.0,0.0,0.0,0.0,0.0,0.0,0.0,0.0,0.0,0.0,0.0,0.0,0.0,0.0,0.0,0.0,0.0,0.0,0.0,0.0,0.0,0.0,0.0,0.0,0.0,0.0,0.0,0.0,0.0,0.0,0.0,0.0,0.0,0.0,0.0,0.0,0.0,0.0,0.0,0.0,0.0,0.0,0.0,0.0,0.0,0.0,0.0,0.0,0.0,0.0,0.0,0.0,0.0,0.0,0.0,0.0,0.0,0.0,0.0,0.0,0.0,0.0,0.0,0.0,0.0,0.0,0.0,0.0,0.0,0.0,0.0,0.0,0.0,0.0,0.0,0.0,0.0,0.0,0.0,0.0,0.0,0.0,0.0,0.0,0.0,0.0,0.0,0.0,0.0,0.0,0.0,0.0,0.0,0.0,0.0,0.0,0.0,0.0,0.0,0.0,0.0,0.0,0.0,0.0,0.0,0.0,0.0,0.0,0.0,0.0,0.0,0.0,0.0,0.0,0.0,0.0,0.0,0.0,0.0,0.0,0.0,0.0,0.0,0.0,0.0,0.0,0.0,0.0,0.0,0.0,0.0,0.0,0.0,0.0,0.0,0.0,0.0,0.0,0.0,0.0,0.0,0.0,0.0,0.0,0.0,0.0,0.0,0.0,0.0,0.0,0.0,0.0,0.0,0.0,0.0,0.0,0.0,0.0,0.0,0.0,0.0,0.0,0.0,0.0,0.0,0.0,0.0,0.0,0.0,0.0,0.0,0.0,0.0,0.0,0.0,0.0,0.0,0.0,0.0,0.0,0.0,0.0,0.0,0.0,0.0,0.0,0.0,0.0,0.0,0.0,0.0,0.0,0.0,0.0,0.0,0.0,0.0,0.0,0.0,0.0,0.0,0.0,0.0,0.0,0.0,0.0,0.0,0.0,0.0,0.0,0.0,0.0,0.0,0.0,0.0,0.0,0.0,0.0,0.0,0.0,0.0,0.0,0.0,0.0,0.0,0.0,0.0,0.0,0.0,0.0,0.0,0.0,0.0,0.0,0.0,0.0,0.0,0.0,0.0,0.0,0.0,0.0,0.0,0.0,0.0,0.0,0.0,0.0,0.0,0.0,0.0,0.0,0.0,0.0,0.0,0.0,0.0,0.0,0.0,0.0,0.0,0.0,0.0,0.0,0.0,0.0,0.0,0.0,0.0,0.0,0.0,0.0,0.0,0.0,0.0,0.0,0.0,0.0,0.0,0.0,0.0,0.0,0.0,0.0,0.0,0.0,0.0,0.0,0.0,0.0,0.0,0.0,0.0,0.0,0.0,0.0,0.0,0.0,0.0,0.0,0.0,0.0,0.0,0.0,0.0,0.0,0.0,0.0,0.0,0.0,0.0,0.0,0.0,0.0,0.0,0.0,0.0,0.0,0.0,0.0,0.0,0.0,0.0,0.0,0.0,0.0,0.0,0.0,0.0,0.0,0.0,0.0,0.0,0.0,0.0,0.0,0.0,0.0,0.0,0.0,0.0,0.0,0.0,0.0,0.0,0.0,0.0,0.0,0.0,0.0,0.0,0.0,0.0,0.0,0.0,0.0,0.0,0.0,0.0,0.0,0.0,0.0,0.0,0.0,0.0,0.0,0.0,0.0,0.0,0.0,0.0,0.0,0.0,0.0,0.0,0.0,0.0,0.0,0.0,0.0,0.0,0.0,0.0,0.0,0.0,0.0,0.0,0.0,0.0,0.0,0.0,0.0,0.0,0.0,0.0,0.0,0.0,0.0,0.0,0.0,0.0,0.0,0.0,0.0,0.0,0.0,0.0,0.0,0.0,0.0,0.0,0.0,0.0,0.0,0.0,0.0,0.0,0.0,0.0,0.0,0.0,0.0,0.0,0.0,0.0,0.0,0.0,0.0,0.0,0.0,0.0,0.0,0.0,0.0,0.0,0.0,0.0,0.0,0.0,0.0,0.0,0.0,0.0,0.0,0.0,0.0,0.0,0.0,0.0,0.0,0.0,0.0,0.0,0.0,0.0,0.0,0.0,0.0,0.0,0.0,0.0,0.0,0.0,0.0,0.0,0.0,0.0,0.0,0.0,0.0,0.0,0.0,0.0,0.0,0.0,0.0,0.0,0.0,0.0,0.0,0.0,0.0,0.0,0.0,0.0,0.0,0.0,0.0,0.0,0.0,0.0,0.0,0.0,0.0,0.0,0.0,0.0,0.0,0.0,0.0,0.0,0.0,0.0,0.0,0.0,0.0,0.0,0.0,0.0,0.0,0.0,0.0,0.0,0.0,0.0,0.0,0.0,0.0,0.0,0.0,0.0,0.0,0.0,0.0,0.0,0.0,0.0,0.0,0.0,0.0,0.0,0.0,0.0,0.0,0.0,0.0,0.0,0.0,0.0,0.0,0.0,0.0,0.0,0.0,0.0,0.0,0.0,0.0,0.0,0.0,0.0,0.0,0.0,0.0,0.0,0.0,0.0,0.0,0.0,0.0,0.0,0.0,0.0,0.0,0.0,0.0,0.0,0.0,0.0,0.0,0.0,0.0,0.0,0.0,0.0,0.0,0.0,0.0,0.0,0.0,0.0,0.0,0.0,0.0,0.0,0.0,0.0,0.0,0.0,0.0,0.0,0.0,0.0,0.0,0.0,0.0,0.0,0.0,0.0,0.0,0.0,0.0,0.0,0.0,0.0,0.0,0.0,0.0,0.0,0.0,0.0,0.0,0.0,0.0,0.0,0.0,0.0,0.0,0.0,0.0,0.0,0.0,0.0,0.0,0.0,0.0,0.0,0.0,0.0,0.0,0.0,0.0,0.0,0.0,0.0,0.0,0.0,0.0,0.0,0.0,0.0,0.0,0.0,0.0,0.0,0.0,0.0,0.0,0.0,0.0,0.0,0.0,0.0,0.0,0.0,0.0,0.0,0.0,0.0,0.0,0.0,0.0,0.0,0.0,0.0,0.0,0.0,0.0,0.0,0.0,0.0,0.0,0.0,0.0,0.0,0.0,0.0,0.0,0.0,0.0,0.0,0.0,0.0,0.0,0.0,0.0,0.0,0.0,0.0,0.0,0.0,0.0,0.0,0.0,0.0,0.0,0.0,0.0,0.0,0.0,0.0,0.0,0.0,0.0,0.0,0.0,0.0,0.0,0.0,0.0,0.0,0.0,0.0,0.0,0.0,0.0,0.0,0.0,0.0,0.0,0.0,0.0,0.0,0.0,0.0,0.0,0.0,0.0,0.0,0.0,0.0,0.0,0.0,0.0,0.0,0.0,0.0,0.0,0.0,0.0,0.0,0.0,0.0,0.0,0.0,0.0,0.0,0.0,0.0,0.0,0.0,0.0,0.0,0.0,0.0,0.0,0.0,0.0,0.0,0.0,0.0,0.0,0.0,0.0,0.0,0.0,0.0,0.0,0.0,0.0,0.0,0.0,0.0,0.0,0.0,0.0,0.0,0.0,0.0,0.0,0.0,0.0,0.0,0.0,0.0,0.0,0.0,0.0,0.0,0.0,0.0,0.0,0.0,0.0,0.0,0.0,0.0,0.0,0.0,0.0,0.0,0.0,0.0,0.0,0.0,0.0,0.0,0.0,0.0,0.0,0.0,0.0,0.0,0.0,0.0,0.0,0.0,0.0,0.0,0.0,0.0,0.0,0.0,0.0,0.0,0.0,0.0,0.0,0.0,0.0,0.0,0.0,0.0,0.0,0.0,0.0,0.0,0.0,0.0,0.0,0.0,0.0,0.0,0.0,0.0,0.0,0.0,0.0,0.0,0.0,0.0,0.0,0.0,0.0,0.0,0.0,0.0,0.0,0.0,0.0,0.0,0.0,0.0,0.0,0.0,0.0,0.0,0.0,0.0,0.0,0.0,0.0,0.0,0.0,0.0,0.0,0.0,0.0,0.0,0.0,0.0,0.0,0.0,0.0,0.0,0.0,0.0,0.0,0.0,0.0,0.0,0.0,0.0,0.0,0.0,0.0,0.0,0.0,0.0,0.0,0.0,0.0,0.0,0.0,0.0,0.0,0.0,0.0,0.0,0.0,0.0,0.0,0.0,0.0,0.0,0.0,0.0,0.0,0.0,0.0,0.0,0.0,0.0,0.0,0.0,0.0,0.0,0.0,0.0,0.0,0.0,0.0,0.0,1.528,0.0,0.0,0.0,0.0,0.0,0.0,0.0,0.0,0.0,0.0,0.0,0.0,0.0,0.0,0.0,0.0,0.0,0.0,0.0,0.0,0.0,0.0,0.0,0.0,0.0,0.0,0.0,0.0,0.0,0.0,0.0,0.0,0.0,0.0,0.0,0.0,0.0,0.0,0.0,0.0,0.0,0.0,0.0,0.0,0.0,0.0,0.0,0.0,0.0,0.0,0.0,0.0,0.0,0.0,0.0,0.0,0.0,0.0,0.0,0.0,0.0,0.0,0.0,0.0,0.0,0.0,0.0,0.0,0.0,0.0,0.0,0.0,0.0,0.0,0.0,0.0,0.0,0.0,0.0,0.0,0.0,0.0,0.0,0.0,0.0,0.0,0.0,0.0,0.0,0.0,0.0,0.0,0.0,0.0,0.0,0.0,0.0,0.0,0.0,0.0,0.0,0.0,0.0,0.0,0.0,0.0,0.0,0.0,0.0,0.0,1.5283,1.5283,1.5283,1.5297,1.5263,0.0,0.0,0.0,0.0,0.0,0.0,0.0,0.0,0.0,0.0,0.0,0.0,0.0,0.0,0.0,0.0,0.0,0.0,0.0,0.0,0.0,0.0,0.0,0.0,0.0,0.0,0.0,0.0,0.0,0.0,0.0,0.0,0.0,0.0,0.0,0.0,0.0,0.0,0.0,0.0,0.0,0.0,0.0,0.0,0.0,0.0,0.0,0.0,0.0,0.0,0.0,0.0,0.0,0.0,0.0,0.0,0.0,0.0,0.0,0.0,0.0,0.0,0.0,0.0,0.0,0.0,0.0,0.0,0.0,0.0,0.0,0.0,0.0,0.0,0.0,0.0,0.0,0.0,0.0,0.0,0.0,0.0,0.0,0.0,0.0,0.0,0.0,0.0,0.0,0.0,0.0,0.0,0.0,0.0,0.0,0.0,0.0,0.0,0.0,0.0,0.0,0.0,0.0,0.0,0.0,0.0,0.0,0.0,0.0,0.0,0.0,0.0,1.5374,1.5242,1.5151,0.0,0.0,0.0,0.0,0.0,0.0,0.0,0.0,0.0,0.0,0.0,0.0,0.0,0.0,0.0,0.0,0.0,0.0,0.0,0.0,0.0,0.0,0.0,0.0,0.0,0.0,0.0,0.0,0.0,0.0,0.0,0.0,0.0,0.0,0.0,0.0,0.0,0.0,0.0,0.0,0.0,0.0,0.0,0.0,0.0,0.0,0.0,0.0,0.0,0.0,0.0,0.0,0.0,0.0,0.0,0.0,0.0,0.0,0.0,0.0,0.0,0.0,0.0,0.0,0.0,0.0,0.0,0.0,0.0,0.0,0.0,0.0,0.0,0.0,0.0,0.0,0.0,0.0,0.0,0.0,0.0,0.0,0.0,0.0,0.0,0.0,0.0,0.0,0.0,0.0,0.0,0.0,0.0,0.0,0.0,0.0,0.0,0.0,0.0,0.0,0.0,0.0,0.0,0.0,0.0,0.0,0.0,0.0,0.0,0.0,1.5548,1.607,1.5581,0.0,1.5042,0.0,0.0,0.0,0.0,0.0,0.0,0.0,0.0,0.0,0.0,0.0,0.0,0.0,0.0,0.0,0.0,0.0,0.0,0.0,0.0,0.0,0.0,0.0,0.0,0.0,0.0,0.0,0.0,0.0,0.0,0.0,0.0,0.0,0.0,0.0,0.0,0.0,0.0,0.0,0.0,0.0,0.0,0.0,0.0,0.0,0.0,0.0,0.0,0.0,0.0,0.0,0.0,0.0,0.0,0.0,0.0,0.0,0.0,0.0,0.0,0.0,0.0,0.0,0.0,0.0,0.0,0.0,0.0,0.0,0.0,0.0,0.0,0.0,0.0,0.0,0.0,0.0,0.0,0.0,0.0,0.0,0.0,0.0,0.0,0.0,0.0,0.0,0.0,0.0,0.0,0.0,0.0,0.0,0.0,0.0,0.0,0.0,0.0,0.0,0.0,0.0,0.0,0.0,0.0,0.0,0.0,0.0,0.0,0.0,0.0,1.5436,1.566,1.5308,1.5092,0.0,0.0,0.0,0.0,0.0,0.0,0.0,0.0,0.0,0.0,0.0,0.0,0.0,0.0,0.0,0.0,0.0,0.0,0.0,0.0,0.0,0.0,0.0,0.0,0.0,0.0,0.0,0.0,0.0,0.0,0.0,0.0,0.0,0.0,0.0,0.0,0.0,0.0,0.0,0.0,0.0,0.0,0.0,0.0,0.0,0.0,0.0,0.0,0.0,0.0,0.0,0.0,0.0,0.0,0.0,0.0,0.0,0.0,0.0,0.0,0.0,0.0,0.0,0.0,0.0,0.0,0.0,0.0,0.0,0.0,0.0,0.0,0.0,0.0,0.0,0.0,0.0,0.0,0.0,0.0,0.0,0.0,0.0,0.0,0.0,0.0,0.0,0.0,0.0,0.0,0.0,0.0,0.0,0.0,0.0,0.0,0.0,0.0,0.0,0.0,0.0,0.0,0.0,0.0,0.0,0.0,0.0,0.0,0.0,0.0,1.5378,1.5283,1.5276,1.5107,1.5023,1.4983,0.0,0.0,0.0,0.0,0.0,0.0,0.0,0.0,0.0,0.0,0.0,0.0,0.0,0.0,0.0,0.0,0.0,0.0,0.0,0.0,0.0,0.0,0.0,0.0,0.0,0.0,0.0,0.0,0.0,0.0,0.0,0.0,0.0,0.0,0.0,0.0,0.0,0.0,0.0,0.0,0.0,0.0,0.0,0.0,0.0,0.0,0.0,0.0,0.0,0.0,0.0,0.0,0.0,0.0,0.0,0.0,0.0,0.0,0.0,0.0,0.0,0.0,0.0,0.0,0.0,0.0,0.0,0.0,0.0,0.0,0.0,0.0,0.0,0.0,0.0,0.0,0.0,0.0,0.0,0.0,0.0,0.0,0.0,0.0,0.0,0.0,0.0,0.0,0.0,0.0,0.0,0.0,0.0,0.0,0.0,0.0,0.0,0.0,0.0,0.0,0.0,0.0,0.0,0.0,0.0,0.0,0.0,0.0,1.6103,1.561,1.5312,1.5316,1.5128,1.5023,0.0,0.0,0.0,0.0,0.0,0.0,0.0,0.0,0.0,0.0,0.0,0.0,0.0,0.0,0.0,0.0,0.0,0.0,0.0,0.0,0.0,0.0,0.0,0.0,0.0,0.0,0.0,0.0,0.0,0.0,0.0,0.0,0.0,0.0,0.0,0.0,0.0,0.0,0.0,0.0,0.0,0.0,0.0,0.0,0.0,0.0,0.0,0.0,0.0,0.0,0.0,0.0,0.0,0.0,0.0,0.0,0.0,0.0,0.0,0.0,0.0,0.0,0.0,0.0,0.0,0.0,0.0,0.0,0.0,0.0,0.0,0.0,0.0,0.0,0.0,0.0,0.0,0.0,0.0,0.0,0.0,0.0,0.0,0.0,0.0,0.0,0.0,0.0,0.0,0.0,0.0,0.0,0.0,0.0,0.0,0.0,0.0,0.0,0.0,0.0,0.0,0.0,0.0,0.0,0.0,0.0,0.0,0.0,0.0,1.619,1.6393,1.6534,1.6497,1.6338,1.6206,0.0,0.0,0.0,0.0,0.0,0.0,0.0,0.0,0.0,0.0,0.0,0.0,0.0,0.0,0.0,0.0,0.0,0.0,0.0,0.0,0.0,0.0,0.0,0.0,0.0,0.0,0.0,0.0,0.0,0.0,0.0,0.0,0.0,0.0,0.0,0.0,0.0,0.0,0.0,0.0,0.0,0.0,0.0,0.0,0.0,0.0,0.0,0.0,0.0,0.0,0.0,0.0,0.0,0.0,0.0,0.0,0.0,0.0,0.0,0.0,0.0,0.0,0.0,0.0,0.0,0.0,0.0,0.0,0.0,0.0,0.0,0.0,0.0,0.0,0.0,0.0,0.0,0.0,0.0,0.0,0.0,0.0,0.0,0.0,0.0,0.0,0.0,0.0,0.0,0.0,0.0,0.0,0.0,0.0,0.0,0.0,0.0,0.0,0.0,0.0,0.0,0.0,0.0,0.0,0.0,0.0,0.0,0.0,0.0,1.6547,0.0,1.721,1.7202,1.6998,1.692,0.0,0.0,0.0,0.0,0.0,0.0,0.0,0.0,0.0,0.0,0.0,0.0,0.0,0.0,0.0,0.0,0.0,0.0,0.0,0.0,0.0,0.0,0.0,0.0,0.0,0.0,0.0,0.0,0.0,0.0,0.0,0.0,0.0,0.0,0.0,0.0,0.0,0.0,0.0,0.0,0.0,0.0,0.0,0.0,0.0,0.0,0.0,0.0,0.0,0.0,0.0,0.0,0.0,0.0,0.0,0.0,0.0,0.0,0.0,0.0,0.0,0.0,0.0,0.0,0.0,0.0,0.0,0.0,0.0,0.0,0.0,0.0,0.0,0.0,0.0,0.0,0.0,0.0,0.0,0.0,0.0,0.0,0.0,0.0,0.0,0.0,0.0,0.0,0.0,0.0,0.0,0.0,0.0,0.0,0.0,0.0,0.0,0.0,0.0,0.0,0.0,0.0,0.0,0.0,0.0,0.0,0.0,0.0,1.6592,1.721,1.7264,1.7355,1.7226,1.7109,1.6977,0.0,0.0,0.0,0.0,0.0,0.0,0.0,0.0,0.0,0.0,0.0,0.0,0.0,0.0,0.0,0.0,0.0,0.0,0.0,0.0,0.0,0.0,0.0,0.0,0.0,0.0,0.0,0.0,0.0,0.0,0.0,0.0,0.0,0.0,0.0,0.0,0.0,0.0,0.0,0.0,0.0,0.0,0.0,0.0,0.0,0.0,0.0,0.0,0.0,0.0,0.0,0.0,0.0,0.0,0.0,0.0,0.0,0.0,0.0,0.0,0.0,0.0,0.0,0.0,0.0,0.0,0.0,0.0,0.0,0.0,0.0,0.0,0.0,0.0,0.0,0.0,0.0,0.0,0.0,0.0,0.0,0.0,0.0,0.0,0.0,0.0,0.0,0.0,0.0,0.0,0.0,0.0,0.0,0.0,0.0,0.0,0.0,0.0,0.0,0.0,0.0,0.0,0.0,0.0,0.0,0.0,0.0,0.0,0.0,1.9179,1.9188,1.9183,1.9174,1.8999,1.8707,0.0,0.0,0.0,0.0,0.0,0.0,0.0,0.0,0.0,0.0,0.0,0.0,0.0,0.0,0.0,0.0,0.0,0.0,0.0,0.0,0.0,0.0,0.0,0.0,0.0,0.0,0.0,0.0,0.0,0.0,0.0,0.0,0.0,0.0,0.0,0.0,0.0,0.0,0.0,0.0,0.0,0.0,0.0,0.0,0.0,0.0,0.0,0.0,0.0,0.0,0.0,0.0,0.0,0.0,0.0,0.0,0.0,0.0,0.0,0.0,0.0,0.0,0.0,0.0,0.0,0.0,0.0,0.0,0.0,0.0,0.0,0.0,0.0,0.0,0.0,0.0,0.0,0.0,0.0,0.0,0.0,0.0,0.0,0.0,0.0,0.0,0.0,0.0,0.0,0.0,0.0,0.0,0.0,0.0,0.0,0.0,0.0,0.0,0.0,0.0,0.0,0.0,0.0,0.0,0.0,0.0,0.0,0.0,0.0,2.1699,2.1126,2.0909,2.1118,2.0473,1.9806,1.9037,0.0,0.0,0.0,0.0,0.0,0.0,0.0,0.0,0.0,0.0,0.0,0.0,0.0,0.0,0.0,0.0,0.0,0.0,0.0,0.0,0.0,0.0,0.0,0.0,0.0,0.0,0.0,0.0,0.0,0.0,0.0,0.0,0.0,0.0,0.0,0.0,0.0,0.0,0.0,0.0,0.0,0.0,0.0,0.0,0.0,0.0,0.0,0.0,0.0,0.0,0.0,0.0,0.0,0.0,0.0,0.0,0.0,0.0,0.0,0.0,0.0,0.0,0.0,0.0,0.0,0.0,0.0,0.0,0.0,0.0,0.0,0.0,0.0,0.0,0.0,0.0,0.0,0.0,0.0,0.0,0.0,0.0,0.0,0.0,0.0,0.0,0.0,0.0,0.0,0.0,0.0,0.0,0.0,0.0,0.0,0.0,0.0,0.0,0.0,0.0,0.0,0.0,0.0,0.0,0.0,0.0,0.0,0.0,2.4793,2.323,2.2582,2.2907,2.1608,2.0438,0.0,0.0,0.0,0.0,0.0,0.0,0.0,0.0,0.0,0.0,0.0,0.0,0.0,0.0,0.0,0.0,0.0,0.0,0.0,0.0,0.0,0.0,0.0,0.0,0.0,0.0,0.0,0.0,0.0,0.0,0.0,0.0,0.0,0.0,0.0,0.0,0.0,0.0,0.0,0.0,0.0,0.0,0.0,0.0,0.0,0.0,0.0,0.0,0.0,0.0,0.0,0.0,0.0,0.0,0.0,0.0,0.0,0.0,0.0,0.0,0.0,0.0,0.0,0.0,0.0,0.0,0.0,0.0,0.0,0.0,0.0,0.0,0.0,0.0,0.0,0.0,0.0,0.0,0.0,0.0,0.0,0.0,0.0,0.0,0.0,0.0,0.0,0.0,0.0,0.0,0.0,0.0,0.0,0.0,0.0,0.0,0.0,0.0,0.0,0.0,0.0,0.0,0.0,0.0,0.0,0.0,0.0,0.0,0.0,2.7563,2.7251,2.6263,2.4702,2.3682,2.2333,0.0,0.0,0.0,0.0,0.0,0.0,0.0,0.0,0.0,0.0,0.0,0.0,0.0,0.0,0.0,0.0,0.0,0.0,0.0,0.0,0.0,0.0,0.0,0.0,0.0,0.0,0.0,0.0,0.0,0.0,0.0,0.0,0.0,0.0,0.0,0.0,0.0,0.0,0.0,0.0,0.0,0.0,0.0,0.0,0.0,0.0,0.0,0.0,0.0,0.0,0.0,0.0,0.0,0.0,0.0,0.0,0.0,0.0,0.0,0.0,0.0,0.0,0.0,0.0,0.0,0.0,0.0,0.0,0.0,0.0,0.0,0.0,0.0,0.0,0.0,0.0,0.0,0.0,0.0,0.0,0.0,0.0,0.0,0.0,0.0,0.0,0.0,0.0,0.0,0.0,0.0,0.0,0.0,0.0,0.0,0.0,0.0,0.0,0.0,0.0,0.0,0.0,0.0,0.0,0.0,0.0,0.0,0.0,2.6933,2.9283,2.9862,2.9366,2.7822,2.5702,2.361,0.0,0.0,0.0,0.0,0.0,0.0,0.0,0.0,0.0,0.0,0.0,0.0,0.0,0.0,0.0,0.0,0.0,0.0,0.0,0.0,0.0,0.0,0.0,0.0,0.0,0.0,0.0,0.0,0.0,0.0,0.0,0.0,0.0,0.0,0.0,0.0,0.0,0.0,0.0,0.0,0.0,0.0,0.0,0.0,0.0,0.0,0.0,0.0,0.0,0.0,0.0,0.0,0.0,0.0,0.0,0.0,0.0,0.0,0.0,0.0,0.0,0.0,0.0,0.0,0.0,0.0,0.0,0.0,0.0,0.0,0.0,0.0,0.0,0.0,0.0,0.0,0.0,0.0,0.0,0.0,0.0,0.0,0.0,0.0,0.0,0.0,0.0,0.0,0.0,0.0,0.0,0.0,0.0,0.0,0.0,0.0,0.0,0.0,0.0,0.0,0.0,0.0,0.0,0.0,0.0,0.0,0.0,0.0,2.8595,3.0237,3.143,3.1793,3.1181,2.7658,2.4668,0.0,0.0,0.0,0.0,0.0,0.0,0.0,0.0,0.0,0.0,0.0,0.0,0.0,0.0,0.0,0.0,0.0,0.0,0.0,0.0,0.0,0.0,0.0,0.0,0.0,0.0,0.0,0.0,0.0,0.0,0.0,0.0,0.0,0.0,0.0,0.0,0.0,0.0,0.0,0.0,0.0,0.0,0.0,0.0,0.0,0.0,0.0,0.0,0.0,0.0,0.0,0.0,0.0,0.0,0.0,0.0,0.0,0.0,0.0,0.0,0.0,0.0,0.0,0.0,0.0,0.0,0.0,0.0,0.0,0.0,0.0,0.0,0.0,0.0,0.0,0.0,0.0,0.0,0.0,0.0,0.0,0.0,0.0,0.0,0.0,0.0,0.0,0.0,0.0,0.0,0.0,0.0,0.0,0.0,0.0,0.0,0.0,0.0,0.0,0.0,0.0,0.0,0.0,0.0,0.0,0.0,0.0,0.0,2.9355,3.1388,3.2004,3.2135,3.1764,2.9265,2.6556,0.0,0.0,0.0,0.0,0.0,0.0,0.0,0.0,0.0,0.0,0.0,0.0,0.0,0.0,0.0,0.0,0.0,0.0,0.0,0.0,0.0,0.0,0.0,0.0,0.0,0.0,0.0,0.0,0.0,0.0,0.0,0.0,0.0,0.0,0.0,0.0,0.0,0.0,0.0,0.0,0.0,0.0,0.0,0.0,0.0,0.0,0.0,0.0,2.264,0.0,0.0,0.0,0.0,0.0,0.0,0.0,0.0,0.0,0.0,0.0,0.0,0.0,0.0,0.0,0.0,0.0,0.0,0.0,0.0,0.0,0.0,0.0,0.0,0.0,0.0,0.0,0.0,0.0,0.0,0.0,0.0,0.0,0.0,0.0,0.0,0.0,0.0,0.0,0.0,0.0,0.0,0.0,0.0,0.0,0.0,0.0,0.0,0.0,0.0,0.0,0.0,0.0,0.0,0.0,0.0,0.0,0.0,0.0,2.9995,3.1869,3.2239,3.2257,3.1925,2.989,2.7301,0.0,0.0,0.0,0.0,0.0,0.0,0.0,0.0,0.0,0.0,0.0,0.0,0.0,0.0,0.0,0.0,0.0,0.0,0.0,0.0,0.0,0.0,0.0,0.0,0.0,0.0,0.0,0.0,0.0,0.0,0.0,0.0,0.0,0.0,0.0,0.0,0.0,0.0,0.0,0.0,0.0,0.0,0.0,0.0,0.0,0.0,0.0,0.0,0.0,0.0,0.0,0.0,0.0,0.0,0.0,0.0,0.0,0.0,0.0,0.0,0.0,0.0,0.0,0.0,0.0,0.0,0.0,0.0,0.0,0.0,0.0,0.0,0.0,0.0,0.0,0.0,0.0,0.0,0.0,0.0,0.0,0.0,0.0,0.0,0.0,0.0,0.0,0.0,0.0,0.0,0.0,0.0,0.0,0.0,0.0,0.0,0.0,0.0,0.0,0.0,0.0,0.0,0.0,0.0,0.0,0.0,0.0,2.8073,3.0444,3.2023,3.2256,3.223,3.2029,2.9925,2.7466,2.4677,0.0,0.0,0.0,0.0,0.0,0.0,0.0,0.0,0.0,0.0,0.0,0.0,0.0,0.0,0.0,0.0,0.0,0.0,0.0,0.0,0.0,0.0,0.0,0.0,0.0,0.0,0.0,0.0,0.0,0.0,0.0,0.0,0.0,0.0,0.0,0.0,0.0,0.0,2.1,2.2223,0.0,0.0,0.0,0.0,0.0,0.0,0.0,0.0,2.4546,0.0,0.0,0.0,0.0,0.0,0.0,0.0,0.0,0.0,0.0,0.0,0.0,0.0,0.0,0.0,0.0,0.0,0.0,0.0,0.0,0.0,0.0,0.0,0.0,0.0,0.0,0.0,0.0,0.0,0.0,0.0,0.0,0.0,0.0,0.0,0.0,0.0,0.0,0.0,0.0,0.0,0.0,0.0,0.0,0.0,0.0,0.0,0.0,0.0,0.0,0.0,0.0,0.0,0.0,0.0,0.0,2.6041,2.835,3.0366,3.205,3.1958,3.1888,3.1787,2.9505,2.7327,2.5476,0.0,0.0,0.0,0.0,0.0,0.0,0.0,0.0,0.0,0.0,0.0,0.0,0.0,0.0,0.0,0.0,0.0,0.0,0.0,0.0,0.0,0.0,0.0,0.0,0.0,0.0,0.0,0.0,0.0,0.0,0.0,0.0,0.0,0.0,0.0,0.0,0.0,0.0,0.0,2.3891,2.4327,0.0,0.0,0.0,0.0,0.0,0.0,0.0,0.0,2.5766,0.0,0.0,0.0,0.0,0.0,0.0,0.0,0.0,0.0,0.0,0.0,0.0,0.0,0.0,0.0,0.0,0.0,0.0,0.0,0.0,0.0,0.0,0.0,0.0,0.0,0.0,0.0,0.0,0.0,0.0,0.0,0.0,0.0,0.0,0.0,0.0,0.0,0.0,0.0,0.0,0.0,0.0,0.0,0.0,0.0,0.0,0.0,0.0,0.0,0.0,0.0,0.0,0.0,0.0,0.0,2.6483,2.8966,3.09,3.224,3.224,3.2005,3.1554,2.9586,2.7584,0.0,0.0,0.0,0.0,0.0,0.0,0.0,0.0,0.0,0.0,0.0,0.0,0.0,0.0,0.0,0.0,0.0,0.0,0.0,0.0,0.0,0.0,0.0,0.0,0.0,0.0,0.0,0.0,0.0,0.0,0.0,0.0,0.0,0.0,0.0,0.0,0.0,0.0,0.0,0.0,2.5077,2.5695,2.5433,0.0,0.0,0.0,0.0,0.0,0.0,2.6309,2.6261,0.0,0.0,0.0,0.0,0.0,0.0,0.0,0.0,0.0,0.0,0.0,0.0,0.0,0.0,0.0,0.0,0.0,0.0,0.0,0.0,0.0,0.0,0.0,0.0,0.0,0.0,0.0,0.0,0.0,0.0,0.0,0.0,0.0,0.0,0.0,0.0,0.0,0.0,0.0,0.0,0.0,0.0,0.0,0.0,0.0,0.0,0.0,0.0,0.0,0.0,0.0,0.0,0.0,0.0,0.0,2.6771,2.9435,3.1367,3.2398,3.2511,3.2171,3.1396,2.9655,2.7662,0.0,0.0,0.0,0.0,0.0,0.0,0.0,0.0,0.0,0.0,0.0,0.0,0.0,0.0,0.0,0.0,0.0,0.0,0.0,0.0,0.0,0.0,0.0,0.0,0.0,0.0,0.0,0.0,0.0,0.0,0.0,0.0,0.0,0.0,0.0,0.0,0.0,0.0,0.0,0.0,0.0,2.6956,2.6774,2.7243,0.0,0.0,0.0,0.0,2.7247,2.7356,0.0,0.0,0.0,0.0,0.0,0.0,0.0,0.0,0.0,0.0,0.0,0.0,0.0,0.0,0.0,0.0,0.0,0.0,0.0,0.0,0.0,0.0,0.0,0.0,0.0,0.0,0.0,0.0,0.0,0.0,0.0,0.0,0.0,0.0,0.0,0.0,0.0,0.0,0.0,0.0,0.0,0.0,0.0,0.0,0.0,0.0,0.0,0.0,0.0,0.0,0.0,0.0,0.0,0.0,0.0,0.0,2.6957,2.937,3.1145,3.2175,3.2246,3.1984,3.1386,2.9203,2.7188,0.0,0.0,0.0,0.0,0.0,0.0,0.0,0.0,0.0,0.0,0.0,0.0,0.0,0.0,0.0,0.0,0.0,0.0,0.0,0.0,0.0,0.0,0.0,0.0,0.0,0.0,0.0,0.0,0.0,0.0,0.0,0.0,0.0,0.0,0.0,0.0,0.0,0.0,0.0,0.0,0.0,2.8098,2.799,2.8076,2.807,0.0,0.0,0.0,2.9858,3.0456,0.0,0.0,0.0,0.0,0.0,0.0,0.0,0.0,0.0,0.0,0.0,0.0,0.0,0.0,0.0,0.0,0.0,0.0,0.0,0.0,0.0,0.0,0.0,0.0,0.0,0.0,0.0,0.0,0.0,0.0,0.0,0.0,0.0,0.0,0.0,0.0,0.0,0.0,0.0,0.0,0.0,0.0,0.0,0.0,0.0,0.0,0.0,0.0,0.0,0.0,0.0,0.0,0.0,0.0,0.0,2.5102,2.7182,2.9515,3.1241,3.2261,3.2322,3.1762,3.0641,2.899,2.7051,0.0,0.0,0.0,0.0,0.0,0.0,0.0,0.0,0.0,0.0,0.0,0.0,0.0,0.0,0.0,0.0,0.0,0.0,0.0,0.0,0.0,0.0,0.0,0.0,0.0,0.0,0.0,0.0,0.0,0.0,0.0,0.0,0.0,0.0,0.0,0.0,0.0,0.0,0.0,0.0,0.0,0.0,2.972,3.0096,0.0,0.0,0.0,3.0819,3.1924,0.0,0.0,0.0,0.0,0.0,0.0,0.0,0.0,0.0,0.0,0.0,0.0,0.0,0.0,0.0,0.0,0.0,0.0,0.0,0.0,0.0,0.0,0.0,0.0,0.0,0.0,0.0,0.0,0.0,0.0,0.0,0.0,0.0,0.0,0.0,0.0,0.0,0.0,0.0,0.0,0.0,0.0,0.0,0.0,0.0,0.0,0.0,0.0,0.0,0.0,0.0,0.0,0.0,0.0,0.0,0.0,0.0,2.7276,2.9601,3.134,3.2362,3.2411,3.1649,3.0036,2.8748,0.0,0.0,0.0,0.0,0.0,0.0,0.0,0.0,0.0,0.0,0.0,0.0,0.0,0.0,0.0,0.0,0.0,0.0,0.0,0.0,0.0,0.0,0.0,0.0,0.0,0.0,0.0,1.723,0.0,0.0,0.0,0.0,0.0,0.0,0.0,0.0,0.0,0.0,0.0,0.0,0.0,0.0,3.0586,3.1047,3.1714,3.2332,0.0,0.0,3.2631,3.3889,3.3154,3.2242,0.0,0.0,0.0,0.0,0.0,0.0,0.0,0.0,0.0,0.0,0.0,0.0,0.0,0.0,0.0,0.0,0.0,0.0,0.0,0.0,0.0,0.0,0.0,0.0,0.0,0.0,0.0,0.0,0.0,0.0,0.0,0.0,0.0,0.0,0.0,0.0,0.0,0.0,0.0,0.0,0.0,0.0,0.0,0.0,0.0,0.0,0.0,0.0,0.0,0.0,0.0,0.0,0.0,0.0,0.0,2.73,2.9611,3.1329,3.2351,3.2411,3.1624,3.0026,2.8293,2.6343,0.0,0.0,0.0,0.0,0.0,0.0,0.0,0.0,0.0,0.0,0.0,0.0,0.0,0.0,0.0,0.0,0.0,0.0,0.0,0.0,0.0,0.0,0.0,0.0,0.0,0.0,0.0,0.0,0.0,0.0,0.0,0.0,0.0,0.0,0.0,0.0,0.0,0.0,0.0,0.0,0.0,3.0911,3.1537,3.2237,3.3118,0.0,0.0,3.5171,3.5889,3.5562,3.4582,3.2635,0.0,0.0,0.0,0.0,0.0,0.0,0.0,0.0,0.0,0.0,0.0,0.0,0.0,0.0,0.0,0.0,0.0,0.0,0.0,0.0,0.0,0.0,0.0,0.0,0.0,0.0,0.0,0.0,0.0,0.0,0.0,0.0,0.0,0.0,0.0,0.0,0.0,0.0,0.0,0.0,0.0,0.0,0.0,0.0,0.0,0.0,0.0,0.0,0.0,0.0,0.0,0.0,0.0,2.4949,2.7057,2.924,3.0892,3.1898,3.1655,3.0878,2.9606,2.7631,2.5731,0.0,0.0,0.0,0.0,0.0,0.0,0.0,0.0,0.0,0.0,0.0,0.0,0.0,0.0,0.0,0.0,0.0,0.0,0.0,0.0,0.0,0.0,0.0,0.0,0.0,0.0,0.0,0.0,2.1426,2.1948,2.2273,0.0,0.0,0.0,0.0,0.0,0.0,0.0,0.0,0.0,0.0,3.2923,3.3899,3.4611,0.0,0.0,3.5701,3.5775,3.657,3.5569,3.4427,3.363,3.2232,0.0,0.0,0.0,0.0,0.0,0.0,0.0,0.0,0.0,0.0,0.0,0.0,0.0,0.0,0.0,0.0,0.0,0.0,0.0,0.0,0.0,0.0,0.0,0.0,0.0,0.0,0.0,0.0,0.0,0.0,0.0,0.0,0.0,0.0,0.0,0.0,0.0,0.0,0.0,0.0,0.0,0.0,0.0,0.0,0.0,0.0,0.0,0.0,0.0,0.0,0.0,0.0,2.5035,2.7133,2.9089,3.0636,3.1682,3.1321,3.0553,2.9326,2.7536,2.579,0.0,0.0,0.0,0.0,0.0,0.0,0.0,0.0,0.0,0.0,0.0,0.0,0.0,0.0,0.0,0.0,0.0,0.0,0.0,0.0,0.0,0.0,0.0,0.0,0.0,0.0,0.0,0.0,2.2438,2.2851,2.2951,0.0,0.0,0.0,0.0,0.0,0.0,0.0,0.0,0.0,0.0,3.4086,3.5318,3.6058,3.6578,3.6867,3.6378,3.6295,3.7075,3.5809,3.4538,3.3935,0.0,0.0,0.0,0.0,0.0,0.0,0.0,0.0,0.0,0.0,0.0,0.0,0.0,0.0,0.0,0.0,0.0,0.0,0.0,0.0,0.0,0.0,0.0,0.0,0.0,0.0,0.0,0.0,0.0,0.0,1.7399,0.0,0.0,0.0,0.0,0.0,0.0,0.0,0.0,0.0,0.0,0.0,0.0,0.0,0.0,0.0,0.0,0.0,0.0,0.0,0.0,0.0,0.0,0.0,2.7671,2.9268,3.0601,3.1658,3.1682,3.0901,2.9364,2.8214,2.6652,2.4537,0.0,0.0,0.0,0.0,0.0,0.0,0.0,0.0,0.0,0.0,0.0,0.0,0.0,0.0,0.0,0.0,0.0,0.0,0.0,0.0,0.0,0.0,0.0,0.0,0.0,0.0,2.2326,2.3071,2.3471,0.0,0.0,0.0,0.0,0.0,0.0,0.0,0.0,0.0,0.0,3.2669,3.4001,3.5332,3.6096,3.6725,3.7285,3.6974,3.691,3.7526,3.6657,3.5298,0.0,0.0,0.0,0.0,0.0,0.0,0.0,0.0,0.0,0.0,0.0,0.0,0.0,0.0,0.0,0.0,0.0,0.0,0.0,0.0,0.0,0.0,0.0,0.0,0.0,0.0,0.0,1.9651,1.927,0.0,0.0,0.0,0.0,0.0,0.0,0.0,0.0,0.0,0.0,0.0,2.4242,2.4266,0.0,0.0,0.0,0.0,0.0,0.0,0.0,0.0,0.0,0.0,0.0,0.0,2.5546,2.7661,2.9268,3.0612,3.1645,3.1369,3.0732,2.9866,2.8464,2.6691,2.4553,0.0,0.0,0.0,0.0,0.0,0.0,0.0,0.0,0.0,0.0,0.0,0.0,0.0,0.0,0.0,0.0,0.0,0.0,0.0,0.0,0.0,0.0,0.0,0.0,0.0,2.2268,0.0,0.0,0.0,0.0,0.0,0.0,0.0,0.0,0.0,0.0,0.0,3.0837,3.2609,3.439,3.5789,3.6648,3.6956,3.7015,0.0,0.0,0.0,0.0,0.0,0.0,0.0,0.0,0.0,0.0,0.0,0.0,0.0,0.0,3.3128,3.0531,3.0564,3.1183,3.1904,0.0,0.0,0.0,0.0,0.0,0.0,0.0,0.0,0.0,0.0,0.0,0.0,0.0,0.0,2.1653,0.0,2.1178,0.0,0.0,0.0,0.0,0.0,0.0,0.0,0.0,2.5077,2.5597,2.6397,2.6412,2.6229,0.0,2.5372,2.4506,0.0,0.0,0.0,0.0,0.0,0.0,0.0,0.0,2.6219,2.7959,2.9556,3.0794,3.1634,3.1369,3.0829,3.0107,2.8368,2.6604,2.4817,2.364,2.2743,0.0,0.0,0.0,0.0,0.0,0.0,0.0,0.0,0.0,0.0,0.0,0.0,0.0,0.0,0.0,0.0,0.0,0.0,0.0,0.0,0.0,0.0,0.0,2.3664,0.0,0.0,0.0,0.0,0.0,0.0,0.0,0.0,0.0,2.8577,3.0262,3.2258,3.43,3.5459,3.6447,3.7276,0.0,0.0,0.0,0.0,0.0,0.0,0.0,3.5979,3.5966,3.585,3.5923,3.6345,3.6493,3.6533,3.6542,0.0,0.0,3.3011,3.2965,3.3644,3.4313,3.4792,3.5226,3.5764,3.6267,3.6764,0.0,0.0,0.0,0.0,0.0,0.0,0.0,0.0,2.4832,2.4593,0.0,2.3817,0.0,0.0,0.0,0.0,0.0,0.0,0.0,0.0,2.7483,2.8046,2.8536,2.8585,2.8595,2.8512,2.7998,2.7445,2.6763,2.3857,0.0,0.0,0.0,0.0,0.0,0.0,2.7459,2.8561,3.0096,3.1141,3.1682,3.1693,3.1176,3.0096,2.807,2.6484,2.5435,2.4834,2.3816,2.2374,2.186,0.0,0.0,0.0,0.0,0.0,0.0,0.0,0.0,0.0,0.0,0.0,0.0,0.0,0.0,0.0,0.0,0.0,0.0,0.0,0.0,2.4306,0.0,0.0,0.0,0.0,0.0,0.0,0.0,0.0,0.0,0.0,3.0564,3.1264,3.2826,3.6028,0.0,0.0,0.0,0.0,3.6755,3.7336,3.7456,3.7704,3.8311,3.8409,3.799,3.6853,0.0,0.0,3.7554,3.7691,3.7871,3.7841,3.8491,3.8475,3.6841,3.6739,3.7023,3.7167,3.7918,3.8634,3.8849,3.9393,4.0147,2.486,0.0,0.0,0.0,0.0,2.528,2.5881,2.6026,2.6558,2.6405,2.5779,2.5388,0.0,0.0,0.0,0.0,0.0,0.0,2.6859,2.806,2.8979,2.9711,3.0216,3.0612,3.0395,2.9639,2.9484,2.8955,2.7988,2.6748,2.5354,2.3873,0.0,0.0,0.0,0.0,2.8166,2.9591,3.0468,3.1152,3.1693,3.1717,3.1176,3.0131,2.8753,2.7709,2.7027,2.5763,2.4882,2.4418,2.2982,0.0,0.0,0.0,0.0,0.0,0.0,0.0,0.0,0.0,0.0,0.0,0.0,0.0,0.0,0.0,0.0,0.0,0.0,0.0,2.4933,2.5363,2.5573,0.0,0.0,0.0,0.0,0.0,0.0,0.0,0.0,0.0,3.2804,3.366,3.4661,0.0,0.0,3.6522,3.7926,3.7489,3.7246,3.7994,0.0,0.0,0.0,3.9101,3.9161,3.926,3.9807,4.0266,4.0266,4.0302,4.0339,4.0339,4.0627,4.0713,4.0286,3.9776,3.9493,3.9545,3.9974,4.0306,4.0403,4.0755,4.1243,2.6793,2.5691,2.584,2.6025,2.6287,2.7494,2.8201,2.8509,2.8751,2.8569,2.8075,2.7457,2.695,2.6576,2.6456,0.0,0.0,0.0,2.8873,3.0123,3.0735,3.1358,3.1874,3.2187,3.2008,3.1371,3.1155,3.0722,3.0075,2.9113,2.8008,2.6719,0.0,0.0,2.6733,2.7815,2.8931,3.0083,3.0829,3.1393,3.1671,3.1489,3.0984,3.0131,2.9268,2.8454,2.7743,2.6772,2.6069,2.5628,2.4504,2.3377,0.0,0.0,0.0,0.0,0.0,0.0,0.0,0.0,0.0,0.0,0.0,2.0728,0.0,0.0,0.0,0.0,2.4524,2.5836,2.6836,2.6959,0.0,0.0,0.0,0.0,0.0,0.0,0.0,3.1194,3.1926,3.2923,3.4362,3.5259,3.5938,3.6407,3.6445,3.6899,3.8102,0.0,3.7765,3.8677,3.9507,4.0116,4.0178,4.0417,4.0735,4.1124,4.1502,4.1882,4.2132,4.2162,4.2153,4.2172,4.2249,4.2326,4.2326,4.2022,4.1619,4.1312,4.1723,4.2137,4.2154,4.2521,4.3022,2.8313,2.8061,2.7996,2.8189,2.8665,2.9399,3.0267,3.1105,3.0963,3.0742,3.0387,2.9662,2.9036,2.8589,2.8358,0.0,0.0,3.0101,3.0998,3.24,3.2613,3.2948,3.3381,3.3512,3.3512,3.3392,3.2899,3.2646,3.2466,3.0999,3.0289,3.0216,2.8296,2.7483,2.7926,2.8931,2.9687,3.0227,3.12,3.1717,3.1693,3.1224,3.0684,3.0107,2.9629,2.8849,2.7839,2.7724,2.7253,2.6286,2.6142,2.5274,2.349,0.0,0.0,0.0,0.0,0.0,0.0,0.0,0.0,0.0,0.0,0.0,0.0,0.0,0.0,0.0,2.6723,0.0,2.8644,2.8731,0.0,0.0,0.0,2.9435,3.0677,3.0822,3.1556,3.3453,0.0,0.0,0.0,0.0,3.6752,3.6978,3.6869,3.7116,3.8029,3.8055,3.8291,3.9393,4.0472,4.1276,4.1467,4.1983,4.2361,4.2391,4.2461,4.2651,4.31,4.323,4.327,4.321,4.33,4.327,4.33,4.3407,4.3449,4.2535,4.3199,4.388,4.3886,4.4387,4.488,2.99,2.9817,3.0055,2.9586,2.8778,2.9669,3.0244,3.0544,3.0833,3.0921,3.0807,2.9912,2.9498,2.942,2.9573,2.9764,3.004,3.1099,3.1541,3.1715,3.3647,3.4411,3.4197,3.5182,3.522,3.4462,3.4318,3.3874,3.3103,3.2333,3.1937,3.1865,3.101,3.0227,2.9591,3.0179,3.077,3.1332,3.1562,3.1717,3.1717,3.1586,3.1069,3.012,2.9976,2.9412,2.8344,2.7911,2.7589,2.7325,2.656,2.5694,2.4847,2.3774,0.0,0.0,0.0,0.0,0.0,0.0,0.0,0.0,0.0,2.382,2.4508,0.0,2.7421,0.0,2.789,2.852,2.8702,2.9116,0.0,0.0,3.0546,3.1359,3.2653,3.2806,3.3358,3.4773,3.5072,3.5412,3.5996,3.6691,3.7317,3.7809,3.7169,3.7134,3.842,3.8901,3.9422,4.0346,4.1489,4.2376,4.2565,4.2862,4.307,4.307,4.308,4.313,4.327,4.329,4.329,4.329,4.329,4.329,4.329,4.3518,4.3634,4.3448,4.3827,4.4252,4.4403,4.4602,4.4754,3.0591,3.0561,3.089,3.0629,3.0035,3.0792,3.1192,3.1377,3.1561,3.1633,3.1576,3.0858,3.0567,3.0541,3.0915,3.1268,3.1673,3.2464,3.2841,3.2902,3.4427,3.5004,3.4769,3.5742,3.5845,3.5159,3.5396,3.5038,3.415,3.373,3.3381,3.3165,3.267,3.2115,3.154,3.1334,3.1502,3.2032,3.1815,3.1717,3.1717,3.1717,3.119,3.0134,3.0086,2.9581,2.8536,2.8214,2.8046,2.8056,2.7479,2.6756,2.5825,2.5119,2.4263,0.0,0.0,0.0,0.0,0.0,0.0,0.0,0.0,0.0,0.0,0.0,2.942,0.0,3.043,0.0,3.0422,3.0974,3.1483,3.1839,3.218,3.2898,3.4201,3.4346,3.4831,3.6092,3.6246,3.6469,3.7061,3.7728,3.826,3.8599,3.8374,3.8494,3.9327,3.9925,4.0442,4.1106,4.205,4.2809,4.309,4.323,4.329,4.329,4.329,4.329,4.329,4.329,4.329,4.329,4.329,4.329,4.33,4.3399,4.3557,4.3695,4.3871,4.4133,4.4391,4.4524,4.4591,3.0793,3.0801,3.1083,3.1356,3.1653,3.2036,3.2391,3.2658,3.2493,3.2378,3.2316,3.198,3.17,3.1503,3.2048,3.2667,3.3353,3.3727,3.4084,3.45,3.4978,3.5158,3.5115,3.5782,3.595,3.5709,3.6187,3.6054,3.5339,3.5049,3.4667,3.4198,3.3729,3.3477,3.3452,3.2489,3.2117,3.2382,3.1936,3.1717,3.1717,3.1717,3.119,3.0168,3.0048,2.9495,2.8464,2.8344,2.8296,2.8296,2.8286,2.77,2.6451,2.639,2.5655,0.0,2.398,0.0,0.0,0.0,0.0,0.0,0.0,0.0,0.0,2.9459,3.1316,3.2585,3.3259,3.3371,3.2779,3.3334,3.3736,3.3728,3.3815,3.4346,3.5479,3.5654,3.611,3.7273,3.7418,3.7612,3.8115,3.8783,3.9218,3.9334,3.978,4.0187,4.0577,4.0848,4.1159,4.1606,4.2215,4.2739,4.304,4.32,4.325,4.326,4.328,4.329,4.329,4.329,4.329,4.329,4.329,4.329,4.329,4.33,4.3399,4.3596,4.3685,4.3851,4.4229,4.4419,4.4553,3.0943,3.118,3.1181,3.1371,3.1627,3.2018,3.2365,3.263,3.258,3.2316,3.1913,3.1946,3.1746,3.1389,3.1947,3.2284,3.2499,3.34,3.3638,3.3382,3.4944,3.5453,3.5188,3.6103,3.6427,3.6211,3.654,3.6525,3.6154,3.5676,3.54,3.528,3.4775,3.4511,3.4499,0.0,0.0,0.0,3.1754,3.1717,3.1717,3.1717,3.119,3.012,2.9663,0.0,2.7902,2.7445,2.7195,2.7195,2.7195,0.0,0.0,0.0,0.0,0.0,0.0,0.0,0.0,0.0,0.0,0.0,2.9083,2.9548,3.0279,3.2183,3.3515,3.3779,3.4066,3.4188,3.4063,3.4649,3.5052,3.5081,3.5453,3.6083,3.6838,3.6916,3.7235,3.7941,3.8028,3.8057,3.8231,3.8783,3.9363,3.9799,4.0505,4.1125,4.1631,4.1339,4.1145,4.1265,4.1981,4.2455,4.2555,4.287,4.3071,4.3061,4.321,4.329,4.329,4.329,4.329,4.329,4.329,4.329,4.329,4.329,4.3309,4.3359,4.3557,4.3822,4.4229,4.4314,4.4421,3.1212,0.0,3.1668,3.1871,0.0,3.2576,3.287,3.2951,3.2568,3.226,3.2003,3.2003,3.1939,3.1866,3.2092,3.249,3.3008,3.3571,3.383,3.395,3.5007,3.536,3.5083,3.6067,3.6343,3.6098,3.682,3.693,3.642,3.639,3.6266,3.5989,3.5448,3.5183,3.5159,3.4402,3.3381,3.2104,3.2093,3.1971,3.1706,3.1717,3.12,3.0144,0.0,0.0,0.0,0.0,0.0,0.0,0.0,0.0,0.0,0.0,0.0,2.6827,2.7087,2.7485,2.8005,2.8198,2.8734,2.9791,3.1116,3.2051,3.2468,3.3496,3.4357,3.4847,3.5295,3.545,3.523,3.5776,3.6226,3.6344,3.6606,3.7041,3.7612,3.7738,3.7845,3.8115,3.8212,3.8212,3.8212,3.8783,3.9276,3.9625,4.0205,4.0738,4.1076,4.1424,4.1629,4.1751,4.2057,4.2474,4.2668,4.285,4.3031,4.315,4.323,4.329,4.329,4.329,4.329,4.329,4.329,4.329,4.329,4.329,4.329,4.33,4.3419,4.3655,4.4055,4.4249,4.4352,3.1426,3.1538,3.2166,3.2438,3.2549,3.3133,3.3386,3.3344,0.0,0.0,0.0,3.2161,3.2246,3.2443,3.2388,3.283,3.3661,3.372,3.4075,3.4646,3.4941,3.5009,3.5001,3.5721,3.5977,3.5854,3.686,3.7129,3.6638,3.6966,3.6925,3.6518,3.6002,3.5701,3.5544,3.4631,3.3645,3.2683,3.2454,3.2093,3.1586,3.1573,3.1093,3.011,2.9989,2.9508,2.8536,2.831,2.8214,2.8224,2.8286,2.8166,2.7757,2.8296,2.852,2.8276,2.8736,2.9166,2.9449,2.9633,2.9985,3.0676,3.2449,3.3714,3.4074,3.439,3.4936,3.5804,3.6437,3.6662,3.6312,3.678,3.718,3.7384,3.7412,3.7624,3.8115,3.8212,3.8183,3.8212,3.8212,3.8212,3.8231,3.8783,3.918,3.9276,3.978,4.0089,4.0244,4.1105,4.1834,4.1977,4.2164,4.2453,4.2729,4.283,4.2951,4.311,4.32,4.326,4.329,4.329,4.329,4.329,4.329,4.329,4.329,4.329,4.329,4.329,4.33,4.3428,4.3841,4.4114,4.4295,3.1589,3.188,3.223,3.2565,3.2848,3.3228,3.3386,3.3347,3.291,3.2715,3.2691,3.2581,3.2534,3.2594,3.2865,3.3044,3.3209,3.3443,3.374,0.0,3.4334,3.4575,3.4833,3.5067,3.5387,3.5817,3.6277,3.681,3.7333,3.7025,3.6909,3.701,3.6555,3.6061,3.5604,3.4991,3.421,3.32,3.2273,3.1562,3.1032,3.0997,3.0732,3.012,2.9653,2.9124,2.8536,2.7652,2.7133,2.7123,2.7556,2.7781,2.7757,2.8657,2.9182,2.914,2.9632,3.0208,3.0841,3.0932,3.1452,3.2603,3.331,3.4022,3.4871,3.5581,3.6177,3.6551,3.6907,3.7272,3.7368,3.7415,3.7558,3.7757,3.7795,3.7928,3.8155,3.8202,3.8212,3.8212,3.8212,3.8212,3.826,3.8754,3.9122,3.9247,3.9538,4.0031,4.0089,4.0757,4.1202,4.1359,4.1805,4.2117,4.2154,4.2392,4.2488,4.2749,4.2871,4.2981,4.313,4.315,4.315,4.33,4.324,4.327,4.33,4.329,4.329,4.329,4.329,4.3389,4.3714,4.3929,4.4191,3.1792,3.1945,3.2262,3.2597,3.2912,3.3279,3.3386,3.3367,3.3223,3.3109,3.3101,3.285,3.2715,3.2691,3.2626,3.2833,3.3219,3.3321,3.376,3.4358,3.4485,3.4616,3.4805,3.5009,3.5195,3.5373,3.5817,3.6227,3.6598,3.6831,3.703,3.7104,3.6652,3.6121,3.5604,3.5063,3.4294,3.3331,3.2815,3.2032,3.0936,3.0922,3.0636,3.0096,2.9855,2.9629,2.9374,2.8897,2.8633,2.8623,2.8849,2.9003,2.9017,2.9725,3.0179,3.0168,3.066,3.1113,3.1449,3.1473,3.1845,3.2633,3.2896,3.3283,3.3947,3.5038,3.58,3.6131,3.6528,3.6948,3.7231,3.7385,3.7529,3.772,3.7825,3.7939,3.8043,3.8136,3.8202,3.8212,3.8212,3.8212,3.8212,3.8454,3.8657,3.8696,3.8957,3.9073,3.9112,3.9654,4.0205,4.0495,4.0815,4.1059,4.1208,4.1308,4.1507,4.1765,4.1902,4.2049,4.2224,4.2272,4.2432,4.2731,4.2791,4.296,4.318,4.329,4.329,4.329,4.329,4.3429,4.3646,4.3929,4.4268,3.199,3.2057,3.2294,3.2645,3.3007,3.3292,3.3386,3.3386,3.3386,3.3386,3.3344,3.307,3.293,3.291,3.2613,3.2806,3.3282,3.3302,3.3766,3.4467,3.4487,3.4587,3.478,3.4934,3.5016,3.5073,3.5445,3.568,3.5886,3.6553,3.7022,3.7143,3.6777,3.6302,3.5773,3.5232,3.4499,3.3525,3.3441,3.2622,3.0984,3.0922,3.0708,3.0313,3.0275,3.0289,3.0275,3.0168,3.0086,3.0096,3.0216,3.0289,3.0313,3.0791,3.108,3.1128,3.1465,3.1717,3.1717,3.1739,3.1926,3.2255,3.2422,3.2615,3.3047,3.4084,3.4977,3.5426,3.5948,3.6417,3.6811,3.7055,3.7307,3.7681,3.7777,3.794,3.8074,3.8157,3.8212,3.8212,3.8212,3.8212,3.8212,3.8212,3.8231,3.826,3.8212,3.8212,3.826,3.8696,3.916,3.9567,3.9886,4.0235,4.0383,4.0461,4.0656,4.0945,4.1072,4.1246,4.1388,4.1463,4.1592,4.2101,4.2351,4.2571,4.299,4.321,4.327,4.329,4.329,4.3389,4.3724,4.3988,4.4326,3.2155,3.2348,3.239,3.2788,3.3323,3.3386,3.3386,3.3386,3.3386,3.3386,3.3402,3.3347,3.3324,3.3328,3.3285,3.3301,3.3387,3.3375,3.3627,3.3959,3.3848,3.4111,3.4657,3.4508,3.4662,3.5082,3.5089,3.5285,3.5708,3.6163,3.6779,3.7444,3.7277,3.6843,3.6326,3.5773,3.4991,3.397,3.3922,3.296,3.1056,3.0922,3.0877,3.0818,3.0839,3.0829,3.0815,3.0361,3.0096,3.0144,3.0564,3.0829,3.0877,3.1345,3.1621,3.161,3.1682,3.1717,3.1717,3.186,3.1995,3.2072,3.2408,3.2669,3.2766,3.3407,3.41,3.474,3.5386,3.5978,3.6405,3.669,3.7209,3.7995,3.7918,3.7901,3.8486,3.8418,3.8212,3.8212,3.8212,3.8212,3.8212,3.8212,3.8212,3.8212,3.8212,3.8212,3.8202,3.8289,3.8405,3.8638,3.9276,3.9964,4.0032,4.0128,4.0198,4.0635,4.079,4.0864,4.1032,4.1224,4.1443,4.1433,4.1892,4.2251,4.2601,4.288,4.324,4.33,4.3329,4.3418,4.3832,4.4007,4.42,3.2376,3.2425,3.2406,3.2788,3.3339,3.3386,3.3386,3.3386,3.3386,3.3386,3.3386,3.3386,3.3386,3.3386,3.3386,3.3386,3.3386,3.3386,3.3591,3.387,3.3848,3.4016,3.4375,3.4518,3.4509,3.4388,3.4511,3.4663,3.488,3.5491,3.6423,3.7423,3.7013,3.6771,3.6795,3.6037,3.5232,3.4511,3.4162,3.3429,3.2382,3.1695,3.1224,3.0936,3.0922,3.1056,3.1321,3.1163,3.1045,3.1056,3.1262,3.138,3.1369,3.1586,3.1717,3.1706,3.1997,3.2165,3.2165,3.2256,3.2312,3.2288,3.2162,3.2223,3.2506,3.2989,3.3662,3.453,3.5179,3.5774,3.6453,3.6932,3.7554,3.8249,3.8545,3.8701,3.8589,3.8746,3.8667,3.8289,3.8212,3.8212,3.8212,3.8212,3.8212,3.8212,3.8212,3.8212,3.8212,3.8212,3.8212,3.8251,3.8696,3.8937,3.9025,3.8986,3.9206,3.948,3.9611,3.9752,4.0157,4.0208,4.0307,4.0735,4.1104,4.1643,4.2311,4.2541,4.2821,4.307,4.3319,4.3458,4.391,4.3997,4.4172,3.2596,3.2563,3.2635,3.2962,3.3386,3.3386,3.3386,3.3386,3.3386,3.3386,3.3386,3.3386,3.3386,3.3386,3.3386,3.3386,3.3386,3.3386,3.3528,3.3749,3.3765,3.3884,3.4125,3.4319,3.4253,3.3986,3.412,3.4288,3.4428,3.5073,3.6083,3.7027,3.6753,3.667,3.6843,3.6037,3.5412,3.5027,3.4511,3.3982,3.3452,3.2731,3.2032,3.1419,3.1334,3.1465,3.1693,3.1717,3.1717,3.1717,3.1717,3.1717,3.1717,3.1717,3.1754,3.1947,3.2285,3.2563,3.2718,3.2707,3.2659,3.2502,3.2269,3.2323,3.2659,3.3191,3.39,3.4736,3.5373,3.6029,3.6668,3.7315,3.795,3.8651,3.9148,3.915,3.908,3.9139,3.89,3.8532,3.8347,3.8212,3.8212,3.8212,3.8212,3.8212,3.8212,3.8212,3.8212,3.8212,3.8212,3.8212,3.8231,3.8231,3.8212,3.8318,3.838,3.8594,3.883,3.9034,3.9265,3.9328,3.9451,4.0118,4.0217,4.0576,4.1364,4.1792,4.2341,4.2851,4.317,4.3418,4.391,4.3978,4.4181,3.2747,3.2968,3.326,3.3339,3.3386,3.3386,3.3386,3.3386,3.3386,3.3386,3.3386,3.3386,3.3386,3.3386,3.3386,3.3386,3.3386,3.3386,3.3402,3.3449,3.3434,3.3587,3.3909,3.3806,3.3887,3.4044,3.4047,3.4349,3.4982,3.5294,3.5749,3.6448,3.6682,3.6668,3.6492,3.5965,3.5604,3.5484,3.4955,3.4499,3.4042,3.3898,3.3357,3.2539,3.2418,3.22,3.1826,3.1741,3.1717,3.1717,3.1717,3.1717,3.1717,3.1706,3.1949,3.2382,3.2503,3.2755,3.3188,3.3272,3.3079,3.2741,3.3071,3.3383,3.3236,3.4079,3.4871,3.5347,3.6022,3.6651,3.7144,3.7596,3.8247,3.9141,3.9054,3.9376,4.0134,3.9442,3.9044,3.8967,3.8551,3.8231,3.8212,3.8212,3.8212,3.8212,3.8212,3.8212,3.8212,3.8212,3.8212,3.8212,3.8212,3.8212,3.8212,3.8212,3.8296,3.8501,3.8723,3.8889,3.9062,3.9256,3.9397,3.9571,3.9939,4.0277,4.0546,4.1035,4.1772,4.2352,4.2901,4.3297,4.3889,4.3978,4.4181,3.2615,3.2662,3.3195,3.3386,3.3386,3.3386,3.3386,3.3386,3.3386,3.3386,3.3386,3.3386,3.3386,3.3386,3.3386,3.3386,3.3386,3.3386,3.3386,3.3386,3.3386,3.3465,3.3587,3.3728,3.3727,3.3652,3.3796,3.4212,3.4833,3.5388,3.6063,3.6704,3.6783,3.6822,3.6792,3.6374,3.5965,3.558,3.5063,3.4691,3.4535,3.4499,3.4174,3.3501,3.3164,3.2935,3.273,3.2406,3.2213,3.2213,3.1887,3.1717,3.1741,3.2032,3.2285,3.2539,3.3104,3.3549,3.3717,3.3753,3.3669,3.3477,3.3402,3.3548,3.379,3.4411,3.5122,3.5901,3.6631,3.7261,3.7748,3.8054,3.8552,3.9341,3.9807,4.0048,4.0293,4.0178,3.9871,3.9276,3.8609,3.8231,3.8202,3.8212,3.8212,3.8212,3.8212,3.8212,3.8212,3.8212,3.8212,3.8212,3.8212,3.8212,3.8212,3.8212,3.8277,3.8473,3.8668,3.89,3.9083,3.9306,3.9475,3.9442,3.9789,3.9999,4.0238,4.1064,4.1682,4.2131,4.2681,4.3287,4.3838,4.3948,4.42,3.2604,3.251,3.3007,3.3292,3.3386,3.3386,3.3386,3.3386,3.3386,3.3386,3.3386,3.3386,3.3386,3.3386,3.3386,3.3386,3.3386,3.3386,3.3386,3.3386,3.3386,3.3386,3.3418,3.3639,3.3611,3.3428,3.367,3.4163,3.4808,3.5362,3.6068,3.6877,3.6769,3.685,3.7043,3.6675,3.6218,3.5821,3.5328,3.4991,3.4847,3.4799,3.4631,3.4294,3.3946,3.3621,3.332,3.2959,3.2766,3.2694,3.2248,3.1887,3.1789,3.2213,3.2587,3.2803,3.3525,3.4078,3.4234,3.4246,3.4186,3.4018,3.3992,3.4046,3.4294,3.4923,3.5704,3.6465,3.714,3.7731,3.8028,3.8318,3.8775,3.9442,4.0094,4.0476,4.0497,4.057,4.0166,3.9383,3.8841,3.8483,3.8222,3.8202,3.8212,3.8212,3.8212,3.8212,3.8212,3.8212,3.8212,3.8212,3.8212,3.8212,3.8202,3.8231,3.826,3.8429,3.8936,3.9062,3.9206,3.9439,3.9546,3.9463,3.9511,3.9699,4.0187,4.1035,4.1622,4.2051,4.265,4.3278,4.3682,4.3988,4.4229,3.2801,3.2494,3.2772,3.3118,3.3371,3.3386,3.3386,3.3386,3.3386,3.3386,3.3386,3.3386,3.3386,3.3386,3.3386,3.3386,3.3386,3.3386,3.3386,3.3386,3.3386,3.3386,3.3402,3.3418,3.3449,3.3418,3.3722,3.4284,3.5044,3.536,3.5913,3.6523,3.6657,3.6872,3.7228,3.6784,3.6422,3.623,3.5797,3.5328,3.4871,3.4823,3.4775,3.4739,3.4703,3.4282,3.3404,3.3332,3.3296,3.3236,3.2791,3.2261,3.196,3.2309,3.2766,3.3284,3.3766,3.4258,3.4679,3.4739,3.4499,3.4258,3.4691,3.4918,3.4968,3.5837,3.664,3.7006,3.7497,3.7897,3.7977,3.8289,3.8747,3.9236,3.9766,4.024,4.0547,4.0535,4.0129,3.9469,3.916,3.8899,3.8405,3.8212,3.8212,3.8212,3.8212,3.8212,3.8212,3.8212,3.8212,3.8193,3.8318,3.8463,3.8347,3.8231,3.828,3.8414,3.9058,3.946,3.9539,3.9715,3.9987,3.9962,3.975,3.9909,3.9759,4.0556,4.1313,4.1862,4.254,4.3218,4.3682,4.4036,4.4229,3.2817,3.2475,3.2753,3.3086,3.3371,3.3386,3.3386,3.3386,3.3386,3.3386,3.3386,3.3386,3.3386,3.3386,3.3386,3.3386,3.3386,3.3386,3.3386,3.3386,3.3386,3.3386,3.3386,3.3386,3.3386,3.3524,3.4189,3.4718,3.5182,3.6017,3.693,3.752,3.752,3.7557,3.7696,3.7204,3.6795,3.635,3.5869,3.5508,3.5304,3.4991,3.4799,3.4799,3.4799,3.4631,3.4342,3.3982,3.379,3.3754,3.3321,3.2959,3.2863,3.2947,3.3273,3.3753,3.4258,3.4595,3.4739,3.4799,3.4751,3.4679,3.4969,3.5222,3.5411,3.6173,3.6803,3.7097,3.7575,3.7911,3.7957,3.8148,3.8542,3.8964,3.9612,4.017,4.0621,4.0707,4.0415,3.9904,3.945,3.8928,3.8405,3.8212,3.8212,3.8212,3.8212,3.8212,3.8231,3.8231,3.8212,3.8202,3.8492,3.8841,3.8899,3.9015,3.9189,3.9247,3.9672,3.9932,3.9995,4.0223,4.042,4.0341,4.016,3.9969,3.9819,4.0277,4.1194,4.1643,4.2221,4.2974,4.3749,4.4094,4.4229,3.2714,3.2491,3.2638,3.2915,3.3212,3.3339,3.3386,3.3386,3.3386,3.3386,3.3386,3.3386,3.3386,3.3386,3.3386,3.3386,3.3386,3.3386,3.3386,3.3386,3.3386,3.3386,3.3386,3.3386,3.3481,3.3702,3.4345,3.4887,3.5272,3.6332,3.7381,3.8122,3.8237,3.823,3.8257,3.7974,3.7469,3.6771,3.6386,3.5989,3.5629,3.528,3.4979,3.4835,3.4799,3.4799,3.4763,3.4474,3.4306,3.4198,3.3814,3.3489,3.3332,3.3452,3.3693,3.403,3.4474,3.4799,3.4799,3.4799,3.4848,3.4957,3.5199,3.5524,3.5895,3.6498,3.6957,3.7273,3.7658,3.7946,3.8023,3.8228,3.8519,3.8863,3.9391,4.005,4.0621,4.0938,4.0703,4.0183,3.977,3.9131,3.8463,3.8212,3.8212,3.8212,3.8212,3.8376,3.8405,3.8347,3.8434,3.8609,3.8957,3.9276,3.9509,3.9799,4.0157,4.0294,4.0461,4.0509,4.0555,4.0904,4.1194,4.078,4.0507,4.0157,4.0008,4.0855,4.1712,4.1892,4.2051,4.3004,4.3841,4.3968,4.4143,3.2565,3.2504,3.2432,3.2629,3.2962,3.326,3.3386,3.3386,3.3386,3.3386,3.3386,3.3386,3.3386,3.3386,3.3386,3.3386,3.3386,3.3386,3.3434,3.3449,3.3465,3.3481,3.3481,3.3481,3.3654,3.3953,3.4376,3.4855,3.5468,3.6419,3.7303,3.8455,3.8694,3.8813,3.8899,3.885,3.8238,3.7493,3.7204,3.6603,3.5749,3.5568,3.5316,3.4823,3.4799,3.4799,3.4775,3.4739,3.4751,3.4727,3.4246,3.379,3.3573,3.3801,3.397,3.4078,3.4523,3.4751,3.4799,3.4848,3.4933,3.5175,3.5452,3.5824,3.6264,3.6664,3.7062,3.7308,3.7632,3.7946,3.8122,3.8349,3.8621,3.8897,3.9314,3.9941,4.0841,4.1233,4.1003,4.0425,4.0089,3.9644,3.8483,3.8318,3.8212,3.8212,3.8202,3.8463,3.8812,3.886,3.9005,3.9276,3.9596,3.9886,4.0176,4.0593,4.0932,4.119,4.129,4.1322,4.1361,4.1684,4.1621,4.1198,4.0965,4.0556,4.0496,4.1254,4.1622,4.1613,4.2208,4.3245,4.3763,4.3939,4.4143,3.2565,3.2504,3.2432,3.2597,3.2931,3.326,3.3386,3.3386,3.3386,3.3386,3.3386,3.3386,3.3418,3.3402,3.3402,3.3386,3.3434,3.3418,3.356,3.3733,3.3765,3.3765,3.3765,3.3765,3.3937,3.4314,3.4828,3.534,3.5834,3.692,3.8045,3.9072,3.9231,3.9523,3.9838,3.9211,3.8692,3.8297,3.7541,3.6916,3.6266,3.5821,3.5328,3.4847,3.4823,3.4823,3.4799,3.4799,3.4799,3.4739,3.4282,3.4138,3.4306,3.4162,3.4186,3.4511,3.4679,3.4799,3.4835,3.4969,3.5114,3.5247,3.562,3.5931,3.6086,3.6535,3.6816,3.6992,3.7294,3.7724,3.7951,3.8224,3.8587,3.9147,3.959,4.0191,4.0997,4.1346,4.1219,4.0869,4.0408,3.975,3.9073,3.8492,3.826,3.826,3.8318,3.8551,3.9122,3.9238,3.9334,3.9915,4.0302,4.0593,4.0912,4.1347,4.1719,4.2009,4.2182,4.2265,4.2337,4.2555,4.2146,4.1564,4.1703,4.1433,4.1164,4.1403,4.1403,4.1583,4.2449,4.3427,4.3782,4.4017,4.422,3.319,3.2993,3.2938,3.2893,3.2947,3.326,3.3386,3.3386,3.3386,3.3386,3.3418,3.3576,3.3607,3.3623,3.3765,3.3812,3.3812,3.3827,3.3937,3.4063,3.411,3.4204,3.4235,3.411,3.4204,3.4813,3.5201,3.5726,3.6401,3.7389,3.8425,3.9342,3.9695,4.0007,4.0288,3.985,3.9211,3.8764,3.8129,3.7541,3.6771,3.6459,3.6013,3.5568,3.5448,3.54,3.5183,3.4907,3.4787,3.4715,3.4523,3.4487,3.4727,3.4523,3.4474,3.4799,3.4799,3.4848,3.4957,3.5102,3.5308,3.5524,3.586,3.6074,3.6287,3.6556,3.6732,3.7085,3.7355,3.7713,3.8182,3.858,3.9125,3.9799,4.0137,4.057,4.1177,4.1332,4.1279,4.1011,4.0525,3.9896,3.9276,3.8638,3.8454,3.8541,3.8686,3.9209,3.9828,3.9712,3.9886,4.0583,4.0903,4.1097,4.143,4.1868,4.2068,4.2406,4.2638,4.2819,4.296,4.3101,4.2653,4.2202,4.2341,4.2261,4.1802,4.1583,4.1882,4.2291,4.2969,4.3436,4.384,4.4094,4.4266,3.4044,3.37,3.3567,3.3293,3.2982,3.3264,3.3386,3.3402,3.3465,3.3481,3.3544,3.3827,3.3937,3.3985,3.4188,3.436,3.4345,3.4282,3.4376,3.4439,3.4485,3.461,3.4813,3.436,3.4626,3.5325,3.5495,3.6126,3.6935,3.7713,3.8648,3.9571,4.0054,4.032,4.0496,4.0393,3.9812,3.909,3.8754,3.8081,3.73,3.7025,3.6723,3.6254,3.6037,3.5869,3.5508,3.5124,3.4799,3.4799,3.4799,3.4775,3.4799,3.4799,3.4799,3.4799,3.4811,3.4896,3.5163,3.5247,3.5464,3.5848,3.6004,3.6205,3.6511,3.665,3.6851,3.7178,3.7471,3.7931,3.8613,3.9285,3.9881,4.0397,4.0673,4.0827,4.1032,4.1283,4.1365,4.1179,4.0612,3.9896,3.9421,3.887,3.8551,3.918,3.9325,3.9741,4.0234,4.035,4.0815,4.157,4.1668,4.1526,4.1919,4.2313,4.2476,4.2649,4.286,4.305,4.313,4.319,4.2991,4.2821,4.28,4.2451,4.1901,4.1952,4.2381,4.2628,4.3096,4.3572,4.3988,4.4162,4.4314,3.378,3.3662,3.3228,3.2992,3.2962,3.3244,3.3386,3.3402,3.3686,3.3765,3.3875,3.4157,3.4282,3.4298,3.4407,3.4392,3.4454,3.447,3.4517,3.4797,3.4797,3.4999,3.5154,3.4828,3.5092,3.5762,3.6356,3.6822,3.7465,3.838,3.9226,3.9785,4.0325,4.0735,4.0937,4.0595,4.0114,3.9451,3.9042,3.8321,3.7517,3.7265,3.7012,3.6518,3.6085,3.5797,3.5556,3.5087,3.4811,3.4799,3.4823,3.4847,3.4799,3.4799,3.4799,3.4799,3.4799,3.4908,3.5187,3.5416,3.5644,3.5967,3.6193,3.6358,3.6428,3.6615,3.6732,3.7003,3.7445,3.8145,3.9002,3.9601,4.0198,4.0623,4.0891,4.1107,4.1462,4.1598,4.1657,4.1575,4.0873,4.0234,4.0534,3.9538,3.9421,3.9799,4.006,4.0292,4.0622,4.0941,4.1435,4.2063,4.1986,4.1846,4.2188,4.2565,4.2739,4.287,4.3031,4.318,4.326,4.33,4.313,4.31,4.316,4.2731,4.2241,4.255,4.2999,4.3126,4.3233,4.3698,4.4104,4.4258,4.4352,3.4373,3.4123,3.365,3.3343,3.3184,3.3323,3.3386,3.3465,3.3765,3.3906,3.4016,3.4407,3.4626,3.4657,3.4797,3.4875,3.4875,3.4875,3.4953,3.5123,3.5154,3.5232,3.534,3.5294,3.55,3.6147,3.6646,3.7246,3.8111,3.8856,3.9603,4.0188,4.0551,4.0826,4.1168,4.0898,4.0499,3.9994,3.9465,3.8754,3.807,3.7674,3.7506,3.7108,3.6651,3.6362,3.6326,3.5857,3.5484,3.5256,3.5196,3.5052,3.4847,3.4799,3.4799,3.4799,3.4799,3.5005,3.5332,3.5536,3.5764,3.6158,3.6347,3.6369,3.644,3.6593,3.6756,3.7003,3.7549,3.8304,3.9309,4.0017,4.0494,4.0961,4.1209,4.1464,4.1765,4.1775,4.1825,4.1827,4.1221,4.0902,4.0612,4.0118,4.0147,4.0466,4.0583,4.0844,4.1337,4.1599,4.1696,4.2044,4.2063,4.2168,4.2466,4.2768,4.297,4.308,4.319,4.325,4.328,4.329,4.33,4.33,4.327,4.322,4.292,4.3289,4.3438,4.3495,4.3631,4.3985,4.4229,4.4352,4.4458,3.5036,3.4587,3.416,3.375,3.3441,3.3386,3.3386,3.3449,3.3812,3.4016,3.411,3.4673,3.4968,3.503,3.5232,3.5371,3.5371,3.5356,3.5325,3.534,3.534,3.5418,3.5479,3.5557,3.5839,3.6453,3.6844,3.7616,3.8485,3.9226,3.9867,4.0493,4.0764,4.0928,4.1144,4.1187,4.086,4.0306,3.9922,3.9465,3.8874,3.8383,3.8083,3.777,3.7337,3.7073,3.6916,3.6555,3.6157,3.576,3.5725,3.5484,3.5159,3.4943,3.4919,3.4955,3.504,3.526,3.5501,3.5656,3.5896,3.6358,3.6405,3.6405,3.644,3.6593,3.6816,3.7225,3.7744,3.8583,3.9596,4.0246,4.0837,4.1322,4.1587,4.1796,4.198,4.1887,4.1929,4.1953,4.1482,4.1115,4.1018,4.0728,4.0902,4.1047,4.1163,4.1356,4.1821,4.2092,4.2063,4.2044,4.2063,4.2259,4.2586,4.289,4.313,4.319,4.328,4.329,4.329,4.329,4.329,4.329,4.33,4.325,4.3309,4.3438,4.3576,4.3754,4.3958,4.42,4.4343,4.4477,4.4543,3.4587,3.4157,3.3711,3.3461,3.3402,3.3386,3.3386,3.3497,3.4047,3.4314,3.4392,3.5015,3.5294,3.5345,3.534,3.5402,3.5402,3.5402,3.5402,3.5402,3.5433,3.5526,3.5726,3.5886,3.6208,3.6743,3.7177,3.7796,3.8611,3.95,4.0062,4.0368,4.0841,4.1144,4.1158,4.1163,4.0956,4.0547,4.0282,3.9922,3.9465,3.8888,3.8407,3.8083,3.7565,3.73,3.7132,3.6747,3.6362,3.629,3.6266,3.6218,3.5965,3.5653,3.5484,3.5449,3.5561,3.5673,3.5622,3.5812,3.6062,3.631,3.6405,3.6405,3.644,3.6617,3.6898,3.7422,3.8164,3.9131,4.0088,4.0559,4.0986,4.1441,4.1692,4.1845,4.203,4.2051,4.1991,4.2024,4.1599,4.1289,4.1308,4.1337,4.1395,4.1512,4.1628,4.1704,4.1937,4.2082,4.2092,4.2063,4.2092,4.2331,4.2647,4.297,4.324,4.324,4.329,4.329,4.329,4.329,4.329,4.329,4.329,4.33,4.3389,4.3557,4.3724,4.3881,4.4114,4.4343,4.4448,4.4543,4.4553,3.429,3.4039,3.3594,3.3386,3.3386,3.3386,3.3386,3.3497,3.4094,3.4392,3.4595,3.5077,3.5402,3.5402,3.5402,3.5402,3.5402,3.5402,3.5402,3.5418,3.5572,3.5711,3.5988,3.6218,3.6676,3.7199,3.7631,3.8096,3.8648,3.9667,4.0208,4.0551,4.0995,4.1211,4.1211,4.1187,4.1066,4.0802,4.0561,4.0282,3.9946,3.9259,3.8658,3.8345,3.7902,3.7637,3.7554,3.7421,3.7084,3.6892,3.6819,3.6675,3.6411,3.6194,3.5869,3.5726,3.5853,3.588,3.5707,3.5848,3.611,3.6346,3.6405,3.6405,3.6452,3.664,3.7062,3.7871,3.8628,3.9607,4.0391,4.0816,4.1241,4.1598,4.1796,4.1949,4.2061,4.2082,4.2082,4.2082,4.1889,4.1744,4.186,4.186,4.186,4.1947,4.2063,4.2082,4.2082,4.2082,4.2092,4.2123,4.2154,4.2382,4.2667,4.294,4.324,4.328,4.329,4.329,4.329,4.329,4.329,4.329,4.329,4.329,4.3428,4.3576,4.3802,4.4017,4.4268,4.4448,4.4534,4.4591,4.4619,3.4039,3.3922,3.3558,3.3386,3.3386,3.3386,3.3386,3.3528,3.4032,3.4314,3.447,3.4999,3.5325,3.5387,3.5402,3.5402,3.5402,3.5402,3.5402,3.5464,3.5711,3.5911,3.6264,3.6691,3.7253,3.7811,3.8246,3.8604,3.8901,3.9741,4.0305,4.0595,4.0942,4.1211,4.1211,4.1211,4.1211,4.1066,4.0826,4.0547,4.0186,3.9499,3.8884,3.874,3.8286,3.7963,3.7928,3.7867,3.7674,3.7458,3.7313,3.7145,3.6701,3.663,3.6329,3.5861,3.5964,3.5905,3.5816,3.5943,3.6217,3.6381,3.6393,3.6405,3.6511,3.6793,3.7352,3.8417,3.9269,3.9957,4.0666,4.1167,4.1493,4.1762,4.1949,4.2082,4.2082,4.2082,4.2082,4.2082,4.2082,4.2092,4.2063,4.2063,4.1976,4.1976,4.2082,4.2082,4.2082,4.2082,4.2102,4.2154,4.2228,4.2443,4.2687,4.287,4.313,4.328,4.329,4.329,4.329,4.329,4.329,4.329,4.329,4.3319,4.3468,4.3625,4.3861,4.4104,4.4393,4.4534,4.4581,4.4667,4.4723,3.3864,3.348,3.3406,3.3386,3.3386,3.3386,3.3386,3.3434,3.3812,3.4141,3.4423,3.4797,3.5139,3.534,3.5402,3.5402,3.5402,3.5402,3.5418,3.551,3.5803,3.6248,3.6767,3.7147,3.7871,3.847,3.896,3.899,3.9211,3.9858,4.0208,4.0426,4.0899,4.1211,4.1211,4.1211,4.1211,4.1187,4.1114,4.0874,4.0403,3.9826,3.9307,3.8826,3.8359,3.7976,3.7952,3.7904,3.7819,3.7819,3.7819,3.7602,3.7243,3.7354,3.6849,3.6354,3.6149,3.6247,3.6007,3.6158,3.6324,3.6381,3.6393,3.6405,3.6617,3.7097,3.7744,3.85,3.9402,4.029,4.0975,4.1417,4.1752,4.2034,4.2235,4.2237,4.2179,4.2082,4.2082,4.2082,4.2082,4.2082,4.2092,4.2092,4.2092,4.2092,4.2082,4.2082,4.2082,4.2082,4.2154,4.2216,4.229,4.2494,4.2708,4.292,4.308,4.326,4.329,4.329,4.329,4.329,4.329,4.329,4.33,4.3339,4.3468,4.3685,4.391,4.4172,4.446,4.4543,4.46,4.4704,4.4865,3.3578,3.3386,3.3386,3.3386,3.3386,3.3386,3.3386,3.3465,3.3765,3.4094,3.4423,3.475,3.5077,3.5356,3.5402,3.5402,3.5402,3.5402,3.551,3.5711,3.6055,3.656,3.7223,3.7871,3.8589,3.9034,3.9535,3.9741,3.9829,4.0115,4.0493,4.0551,4.0928,4.1211,4.1211,4.1211,4.1211,4.1187,4.1187,4.109,4.0778,4.0306,3.9764,3.9259,3.8695,3.8142,3.7698,3.7554,3.7554,3.7554,3.7554,3.7367,3.7097,3.7032,3.677,3.6185,3.6406,3.6404,3.6102,3.6301,3.6408,3.643,3.6454,3.6523,3.6851,3.7468,3.819,3.8951,3.9695,4.0557,4.1472,4.203,4.2583,4.286,4.2741,4.2596,4.2469,4.215,4.2082,4.2082,4.2082,4.2082,4.2082,4.2082,4.2082,4.2082,4.2082,4.2082,4.2082,4.2082,4.2185,4.2279,4.2392,4.2495,4.2759,4.2961,4.31,4.324,4.329,4.329,4.329,4.329,4.3309,4.3309,4.33,4.3369,4.3488,4.3734,4.3997,4.4249,4.4477,4.4667,4.4877,4.5042,4.5263,3.3386,3.3386,3.3386,3.3386,3.3386,3.3386,3.3386,3.3418,3.3654,3.4016,3.4439,3.4844,3.5185,3.5356,3.5402,3.5402,3.5402,3.5402,3.5603,3.5916,3.6316,3.6835,3.754,3.835,3.9019,3.9529,4.0033,4.0296,4.0484,4.0667,4.0792,4.0735,4.1,4.1182,4.1211,4.1211,4.1211,4.1201,4.1018,4.0946,4.0802,4.0248,3.9777,3.9307,3.8826,3.8153,3.7372,3.7228,3.7228,3.6988,3.7193,3.708,3.6679,3.6818,3.664,3.6293,3.6524,3.6758,3.6619,3.6676,3.6696,3.6631,3.6536,3.6699,3.7201,3.7871,3.8654,3.9391,4.0099,4.102,4.1896,4.2448,4.2899,4.3211,4.3351,4.3206,4.2974,4.2557,4.2208,4.2082,4.2082,4.2082,4.2082,4.2082,4.2082,4.2082,4.2082,4.2082,4.2082,4.2082,4.2216,4.232,4.2402,4.2536,4.284,4.3021,4.312,4.322,4.327,4.329,4.329,4.3319,4.3339,4.3339,4.3419,4.3586,4.3841,4.3928,4.4054,4.4362,4.4667,4.4958,4.5185,4.544,4.6048,3.3386,3.3386,3.3386,3.3386,3.3386,3.3386,3.3386,3.3386,3.3434,3.3827,3.4454,3.503,3.534,3.5402,3.5402,3.5402,3.5402,3.5402,3.5634,3.5926,3.6316,3.6972,3.7766,3.8574,3.9285,4.0004,4.0479,4.0798,4.1,4.1,4.0937,4.0792,4.1081,4.1182,4.1211,4.1211,4.1211,4.1114,4.0898,4.0595,4.0306,3.9753,3.9138,3.8874,3.8345,3.7795,3.7252,3.7204,3.6988,3.6627,3.6892,3.6951,3.6598,3.6858,3.6727,3.6697,3.7089,3.7325,3.7309,3.7312,3.7462,3.7195,3.6969,3.6992,3.7586,3.8205,3.8957,3.987,4.0632,4.1273,4.1958,4.2465,4.3316,4.3678,4.3884,4.3525,4.3235,4.2828,4.2498,4.2208,4.2082,4.2082,4.2082,4.2082,4.2082,4.2082,4.2082,4.2082,4.2082,4.2102,4.2228,4.2341,4.2402,4.2577,4.293,4.31,4.318,4.324,4.328,4.329,4.329,4.3329,4.3349,4.3727,4.3897,4.4011,4.4284,4.4754,4.4989,4.4773,4.4964,4.5652,4.6359,4.6897,4.7554,3.3386,3.3386,3.3386,3.3386,3.3386,3.3386,3.3386,3.3386,3.3402,3.378,3.4454,3.5077,3.5402,3.5402,3.5402,3.5402,3.5402,3.5402,3.5711,3.6086,3.6469,3.7123,3.7998,3.882,3.9491,4.0179,4.0696,4.1028,4.1168,4.1211,4.1168,4.111,4.1153,4.1182,4.1211,4.1211,4.1211,4.1163,4.097,4.0754,4.0331,4.0066,3.9475,3.8778,3.8682,3.8022,3.7372,3.7228,3.6867,3.6616,3.6677,3.6653,3.6687,3.7033,3.7171,3.7276,3.7885,3.8108,3.7928,3.7769,3.7321,3.7082,3.707,3.7445,3.808,3.8812,3.9557,4.0405,4.1262,4.1924,4.2822,4.3647,4.4356,4.4523,4.4378,4.4019,4.3602,4.3264,4.2847,4.2586,4.2266,4.2082,4.2082,4.2082,4.2082,4.2082,4.2082,4.2082,4.2082,4.2133,4.2248,4.2433,4.2485,4.2708,4.306,4.316,4.321,4.331,4.3389,4.3509,4.3569,4.3329,4.3429,4.3907,4.4596,4.5012,4.5439,4.5868,4.6028,4.5912,4.6209,4.6746,4.749,4.8249,4.8954,3.3985,3.4,3.4,3.3765,3.3418,3.3386,3.3386,3.3386,3.3386,3.3765,3.4454,3.5077,3.5402,3.5402,3.5402,3.5402,3.5402,3.5433,3.5772,3.6086,3.6438,3.7154,3.8103,3.8953,3.9603,4.0223,4.0826,4.1211,4.1211,4.1211,4.1196,4.1182,4.1211,4.1211,4.1211,4.1211,4.1211,4.1187,4.097,4.0826,4.0417,4.0236,3.9868,3.9088,3.901,3.8534,3.7856,3.7541,3.7274,3.6921,3.6777,3.6831,3.6947,3.7159,3.7394,3.7899,3.8408,3.8696,3.8399,3.8017,3.743,3.7438,3.7667,3.8117,3.8666,3.9391,4.0077,4.0716,4.1721,4.2725,4.3528,4.4117,4.4687,4.4843,4.5046,4.4774,4.428,4.3874,4.3398,4.2963,4.2673,4.2411,4.2295,4.2295,4.215,4.2121,4.2092,4.2092,4.2082,4.2164,4.2269,4.2474,4.2638,4.291,4.321,4.329,4.3439,4.3778,4.3848,4.3978,4.3978,4.3798,4.4128,4.495,4.5633,4.6151,4.6672,4.7173,4.7249,4.7163,4.7617,4.8157,4.8825,4.9601,5.0178,3.5294,3.5356,3.5294,3.4579,3.3591,3.3434,3.3481,3.3623,3.3623,3.3922,3.4532,3.517,3.5479,3.5495,3.5557,3.5541,3.5479,3.5495,3.5716,3.6055,3.6499,3.7108,3.7998,3.8909,3.9705,4.0223,4.0826,4.1211,4.1211,4.1211,4.1211,4.1273,4.1316,4.1283,4.1225,4.1211,4.1211,4.1139,4.073,4.0604,4.0443,4.0324,3.9925,3.942,3.9409,3.8989,3.829,3.8046,3.7728,3.719,3.708,3.7009,3.6874,3.6886,3.6992,3.7219,3.7621,3.7868,3.7957,3.8158,3.8211,3.8178,3.8367,3.8838,3.9155,3.9837,4.0718,4.1528,4.2328,4.2889,4.3476,4.4153,4.4832,4.5151,4.5384,4.5209,4.4687,4.4251,4.3728,4.3322,4.3119,4.2915,4.2712,4.2538,4.2277,4.2179,4.2131,4.2131,4.2208,4.242,4.2633,4.3074,4.3329,4.3544,4.3807,4.3569,4.3658,4.4027,4.4367,4.4567,4.4859,4.5001,4.5475,4.6132,4.6694,4.7261,4.7893,4.8537,4.8776,4.9066,4.9211,4.9666,5.0311,5.0797,5.1242,3.5402,3.5402,3.5402,3.5139,3.4735,3.4735,3.4735,3.4766,3.4922,3.4937,3.4953,3.567,3.607,3.607,3.6009,3.5932,3.5793,3.6009,3.6193,3.6285,3.6813,3.7502,3.8343,3.9205,3.9873,4.0296,4.0841,4.1254,4.1211,4.1268,4.1359,4.1421,4.1602,4.1545,4.1301,4.1211,4.1211,4.123,4.1141,4.109,4.074,4.0734,4.046,3.9665,3.9762,3.9448,3.8721,3.866,3.8254,3.7552,3.7392,3.7134,3.691,3.6847,3.7163,3.772,3.832,3.8602,3.8869,3.9097,3.89,3.8926,3.921,3.984,4.0536,4.1497,4.2111,4.2583,4.3329,4.3929,4.4491,4.5064,4.5569,4.55,4.55,4.5162,4.4727,4.4309,4.3903,4.3641,4.3438,4.2944,4.2654,4.2915,4.2799,4.2586,4.2596,4.2675,4.2744,4.3038,4.3293,4.3912,4.4279,4.4448,4.4493,4.4266,4.4397,4.4847,4.5119,4.5292,4.5635,4.6163,4.6671,4.7268,4.7818,4.8382,4.9243,5.0066,5.0721,5.1079,5.0856,5.0827,5.1218,5.1634,5.2019,3.6095,3.6095,3.6095,3.608,3.6003,3.5603,3.5402,3.5448,3.5726,3.5634,3.5479,3.6064,3.6392,3.6392,3.6377,3.6331,3.6132,3.6423,3.6698,3.6813,3.7555,3.8261,3.899,3.9741,4.0441,4.0759,4.1144,4.1488,4.1387,4.1459,4.1602,4.1802,4.1948,4.1683,4.147,4.1389,4.1569,4.1602,4.1633,4.1592,4.1457,4.1405,4.1304,4.0753,4.0488,4.0271,3.9648,3.9226,3.8953,3.8211,3.7692,3.7419,3.7207,3.7029,3.7282,3.7904,3.8644,3.8897,3.9232,3.9697,3.9709,4.0088,4.036,4.0955,4.1786,4.2457,4.2918,4.3514,4.4413,4.4737,4.5006,4.5598,4.5801,4.5732,4.5627,4.5278,4.5162,4.4814,4.4727,4.4396,4.3961,4.3351,4.2818,4.3119,4.3351,4.3206,4.3061,4.3219,4.3388,4.3626,4.3994,4.4579,4.4955,4.4965,4.5021,4.5004,4.5226,4.5678,4.5945,4.6202,4.6925,4.7538,4.7986,4.8448,4.9063,4.9802,5.0806,5.1604,5.172,5.1888,5.1885,5.1969,5.2185,5.2293,5.2445,3.7374,3.7389,3.7389,3.7329,3.7147,3.608,3.5541,3.551,3.5819,3.5972,3.5942,3.63,3.656,3.6499,3.6484,3.6469,3.6575,3.6828,3.7147,3.7646,3.8373,3.907,3.9805,4.0586,4.1019,4.1492,4.1802,4.1787,4.1663,4.1887,4.2043,4.2016,4.2041,4.184,4.1713,4.1759,4.1822,4.1654,4.1783,4.1801,4.1763,4.2185,4.2002,4.1662,4.1575,4.1131,4.0581,4.0167,3.9881,3.9281,3.8567,3.8178,3.7676,3.6997,3.6954,3.7343,3.8315,3.8902,3.9459,4.0062,4.0899,4.1428,4.1762,4.2183,4.2665,4.3302,4.3716,4.4102,4.4706,4.4882,4.5122,4.5511,4.5888,4.5859,4.5859,4.5772,4.5772,4.5685,4.5685,4.5395,4.4919,4.4367,4.3787,4.3845,4.4051,4.4051,4.4065,4.442,4.4514,4.4344,4.4726,4.52,4.5437,4.5405,4.549,4.5774,4.6142,4.6618,4.7024,4.7384,4.8153,4.8767,4.9137,4.9599,5.0355,5.1069,5.1596,5.1995,5.2233,5.2356,5.232,5.232,5.2293,5.2311,5.2436,3.7389,3.7389,3.7389,3.7389,3.7344,3.6995,3.6569,3.6202,3.6691,3.6737,3.6285,3.688,3.7026,3.7117,3.7102,3.6941,3.7123,3.745,3.7834,3.8447,3.9262,3.9908,4.0533,4.1148,4.1492,4.1706,4.193,4.21,4.2043,4.2241,4.2072,4.1866,4.2044,4.1966,4.1969,4.2085,4.1621,4.143,4.1683,4.1912,4.212,4.2504,4.2366,4.2301,4.2192,4.1658,4.0953,4.0613,4.0174,3.9233,3.8894,3.8517,3.7939,3.7713,3.7757,3.8289,3.9015,3.9616,4.0221,4.0699,4.1498,4.2588,4.2932,4.3379,4.3828,4.4209,4.4565,4.4864,4.5094,4.5321,4.5413,4.5714,4.5917,4.5917,4.5917,4.5917,4.5917,4.5917,4.5888,4.5772,4.5337,4.4977,4.4454,4.4567,4.4734,4.4851,4.5055,4.5416,4.5558,4.5359,4.5462,4.594,4.6169,4.6186,4.6542,4.6858,4.7182,4.7546,4.7883,4.8337,4.895,4.9527,5.0104,5.0599,5.1106,5.1531,5.1941,5.2221,5.2391,5.24,5.2373,5.2391,5.24,5.2427,5.2516,3.7389,3.7389,3.7389,3.7389,3.7389,3.7389,3.7132,3.6889,3.7238,3.7132,3.688,3.7229,3.7389,3.7359,3.7359,3.7344,3.7396,3.8066,3.8626,3.938,4.0185,4.0894,4.1463,4.1848,4.2146,4.2231,4.2284,4.2439,4.2305,4.2075,4.1916,4.1634,4.1955,4.2007,4.1943,4.1939,4.1652,4.1515,4.1637,4.2044,4.2391,4.2663,4.2646,4.2576,4.2462,4.192,4.1229,4.1003,4.0312,3.9496,3.9308,3.8768,3.8378,3.8351,3.8359,3.8833,3.9506,4.0162,4.0803,4.1438,4.2376,4.3245,4.3768,4.4224,4.4557,4.4881,4.5195,4.5473,4.5706,4.5888,4.5888,4.5917,4.5917,4.5917,4.5917,4.5917,4.5917,4.5917,4.5888,4.5859,4.5598,4.5238,4.5115,4.5298,4.5452,4.5576,4.5778,4.6116,4.6277,4.6217,4.634,4.6686,4.6932,4.7078,4.7396,4.7506,4.7693,4.7992,4.8522,4.8993,4.9651,5.0234,5.0774,5.1261,5.1688,5.1995,5.2167,5.2275,5.24,5.2409,5.2463,5.2516,5.2525,5.2516,5.2606,3.7361,3.7389,3.7389,3.7389,3.7389,3.7389,3.7374,3.7389,3.7389,3.7374,3.7344,3.7374,3.7389,3.7389,3.7389,3.76,3.7946,3.8589,3.9432,4.0281,4.1124,4.1834,4.2316,4.2793,4.272,4.2902,4.2905,4.2659,4.2359,4.2099,4.1813,4.1364,4.1895,4.2034,4.1795,4.2009,4.1952,4.1923,4.2235,4.2691,4.2643,4.2811,4.2975,4.2889,4.2813,4.2663,4.2135,4.1605,4.1076,4.0337,3.9672,3.9044,3.8957,3.8979,3.896,3.9292,4.0023,4.0744,4.1394,4.2001,4.2903,4.3701,4.4272,4.4676,4.5012,4.5207,4.5447,4.5697,4.5855,4.5917,4.5917,4.5917,4.5917,4.5917,4.5917,4.5917,4.5917,4.5917,4.5888,4.5882,4.588,4.56,4.5656,4.581,4.5936,4.6185,4.6388,4.669,4.677,4.6798,4.6959,4.7193,4.7236,4.732,4.7396,4.7559,4.7933,4.8334,4.8934,4.9651,5.0314,5.0883,5.1429,5.1785,5.2068,5.2167,5.2311,5.24,5.2471,5.2489,5.2551,5.2615,5.2641,5.2659,5.2764,3.7083,3.7389,3.7389,3.7389,3.7389,3.7389,3.7367,3.7389,3.7389,3.7345,3.7389,3.7367,3.7382,3.7369,3.7465,3.7758,3.8365,3.9159,3.9995,4.0904,4.182,4.2344,4.279,4.2944,4.3,4.3,4.2936,4.2721,4.2323,4.2048,4.1786,4.1414,4.187,4.2034,4.192,4.2199,4.2286,4.2384,4.2674,4.2534,4.1993,4.2534,4.2875,4.2713,4.2626,4.2713,4.2235,4.1656,4.1076,4.0462,3.9873,3.9584,3.9497,3.9652,3.9879,4.0157,4.0633,4.1306,4.1962,4.2532,4.328,4.3938,4.4455,4.4873,4.5184,4.5333,4.5515,4.5753,4.5917,4.5917,4.5917,4.5917,4.5917,4.5917,4.5917,4.5917,4.5917,4.5917,4.5917,4.5967,4.6046,4.6113,4.6169,4.6291,4.6436,4.658,4.6682,4.6866,4.6942,4.7,4.7076,4.7277,4.7258,4.7342,4.7387,4.773,4.8134,4.8687,4.929,5.0067,5.0883,5.1401,5.1886,5.2104,5.2329,5.24,5.2454,5.2516,5.2569,5.2562,5.2694,5.2825,5.2946,5.299,5.305,3.6537,3.677,3.6777,3.6908,3.7033,3.688,3.6887,3.704,3.688,3.6792,3.6865,3.7164,3.7355,3.7433,3.7626,3.8238,3.8937,3.9776,4.0663,4.1539,4.2132,4.2583,4.2888,4.3,4.3,4.2975,4.2713,4.2436,4.2224,4.1845,4.1553,4.1453,4.187,4.2224,4.2235,4.24,4.2663,4.295,4.3,4.2384,4.1553,4.2233,4.2663,4.2526,4.2562,4.2663,4.2397,4.1843,4.1227,4.0675,4.0111,3.9747,3.9724,3.9867,4.0185,4.0491,4.0983,4.1661,4.2352,4.2985,4.3558,4.4233,4.4688,4.5115,4.5526,4.5663,4.5703,4.5906,4.5917,4.5917,4.5917,4.5917,4.5917,4.5917,4.5917,4.5917,4.5917,4.5917,4.5967,4.609,4.6169,4.6247,4.6358,4.658,4.6701,4.6778,4.692,4.704,4.7117,4.7138,4.7255,4.7374,4.7398,4.743,4.7495,4.7943,4.8469,4.9046,4.9641,5.0438,5.1223,5.1813,5.2299,5.2391,5.2489,5.2569,5.2622,5.2659,5.2703,5.2738,5.2894,5.3059,5.317,5.3255,5.3297,3.5903,3.5896,3.5983,3.6246,3.6537,3.6202,3.6246,3.6515,3.6187,3.5983,3.6034,3.6799,3.7095,3.7392,3.7955,3.8881,3.9706,4.0437,4.1286,4.1976,4.2414,4.2737,4.293,4.3,4.3,4.2813,4.2526,4.2375,4.2199,4.187,4.1681,4.1567,4.1895,4.2324,4.2436,4.2688,4.3,4.3,4.285,4.232,4.2194,4.2258,4.2247,4.2361,4.2537,4.2838,4.2548,4.2032,4.1403,4.0876,4.0287,3.9873,3.9787,3.9955,4.0287,4.0618,4.121,4.1907,4.2618,4.3299,4.3997,4.4653,4.5,4.5356,4.5753,4.5906,4.5917,4.5917,4.5929,4.5929,4.5929,4.5917,4.5917,4.5922,4.5922,4.5978,4.6019,4.599,4.6113,4.6258,4.6347,4.6425,4.6591,4.6822,4.6931,4.6997,4.7073,4.7222,4.7298,4.7287,4.732,4.7525,4.7656,4.7666,4.7677,4.8187,4.8811,4.9381,4.9998,5.0794,5.1513,5.2013,5.2365,5.2542,5.2606,5.2683,5.2806,5.2868,5.2903,5.2963,5.3118,5.3272,5.3297,5.3374,5.3425,3.5343,3.5386,3.5823,3.6049,3.6115,3.6027,3.6049,3.61,3.6056,3.5787,3.5619,3.5947,3.6341,3.6616,3.7682,3.8732,3.9906,4.0841,4.1714,4.2372,4.2905,4.3003,4.3101,4.3348,4.307,4.2844,4.2622,4.2315,4.2464,4.2244,4.2062,4.2153,4.2564,4.2855,4.2852,4.3056,4.3115,4.312,4.2957,4.254,4.1864,4.1737,4.1569,4.1644,4.1808,4.2174,4.2149,4.1642,4.1403,4.0976,4.0362,3.9848,3.9813,3.9993,4.0389,4.0971,4.1533,4.2457,4.3196,4.3867,4.463,4.5218,4.5504,4.5583,4.5866,4.5967,4.5967,4.5967,4.5967,4.5974,4.5974,4.5962,4.5962,4.6012,4.6046,4.6236,4.6336,4.6358,4.6425,4.6546,4.6646,4.6723,4.6833,4.7008,4.7168,4.7212,4.7212,4.7309,4.7363,4.7374,4.7406,4.7666,4.7933,4.7954,4.7996,4.8573,4.9178,4.9731,5.0341,5.1106,5.1734,5.2131,5.2427,5.2815,5.2852,5.2854,5.296,5.332,5.3177,5.322,5.3357,5.3467,5.3467,5.3467,5.3492]},{"header":{"parameterUnit":"m.s-1","parameterCategory":1,"la1":31.0,"la2":29.5877,"lo1":-88.7671,"lo2":-86.6584,"dy":0.0162,"dx":0.0185,"nx":115,"ny":88,"refTime":"2024-04-04T18:00:00:Z","depth":0,"parameterNumber":3,"parameterNumberName":"V-component_of_WINDS"},"data":[0.0,0.0,0.0,0.0,0.0,0.0,0.0,0.0,0.0,0.0,0.0,0.0,0.0,0.0,0.0,0.0,0.0,0.0,0.0,0.0,0.0,0.0,0.0,0.0,0.0,0.0,0.0,0.0,0.0,0.0,0.0,0.0,0.0,0.0,0.0,0.0,0.0,0.0,0.0,0.0,0.0,0.0,0.0,0.0,0.0,0.0,0.0,0.0,0.0,0.0,0.0,0.0,0.0,0.0,0.0,0.0,0.0,0.0,0.0,0.0,0.0,0.0,0.0,0.0,0.0,0.0,0.0,0.0,0.0,0.0,0.0,0.0,0.0,0.0,0.0,0.0,0.0,0.0,0.0,0.0,0.0,0.0,0.0,0.0,0.0,0.0,0.0,0.0,0.0,0.0,0.0,0.0,0.0,0.0,0.0,0.0,0.0,0.0,0.0,0.0,0.0,0.0,0.0,0.0,0.0,0.0,0.0,0.0,0.0,0.0,0.0,0.0,0.0,0.0,0.0,0.0,0.0,0.0,0.0,0.0,0.0,0.0,0.0,0.0,0.0,0.0,0.0,0.0,0.0,0.0,0.0,0.0,0.0,0.0,0.0,0.0,0.0,0.0,0.0,0.0,0.0,0.0,0.0,0.0,0.0,0.0,0.0,0.0,0.0,0.0,0.0,0.0,0.0,0.0,0.0,0.0,0.0,0.0,0.0,0.0,0.0,0.0,0.0,0.0,0.0,0.0,0.0,0.0,0.0,0.0,0.0,0.0,0.0,0.0,0.0,0.0,0.0,0.0,0.0,0.0,0.0,0.0,0.0,0.0,0.0,0.0,0.0,0.0,0.0,0.0,0.0,0.0,0.0,0.0,0.0,0.0,0.0,0.0,0.0,0.0,0.0,0.0,0.0,0.0,0.0,0.0,0.0,0.0,0.0,0.0,0.0,0.0,0.0,0.0,0.0,0.0,0.0,0.0,0.0,0.0,0.0,0.0,0.0,0.0,0.0,0.0,0.0,0.0,0.0,0.0,0.0,0.0,0.0,0.0,0.0,0.0,0.0,0.0,0.0,0.0,0.0,0.0,0.0,0.0,0.0,0.0,0.0,0.0,0.0,0.0,0.0,0.0,0.0,0.0,0.0,0.0,0.0,0.0,0.0,0.0,0.0,0.0,0.0,0.0,0.0,0.0,0.0,0.0,0.0,0.0,0.0,0.0,0.0,0.0,0.0,0.0,0.0,0.0,0.0,0.0,0.0,0.0,0.0,0.0,0.0,0.0,0.0,0.0,0.0,0.0,0.0,0.0,0.0,0.0,0.0,0.0,0.0,0.0,0.0,0.0,0.0,0.0,0.0,0.0,0.0,0.0,0.0,0.0,0.0,0.0,0.0,0.0,0.0,0.0,0.0,0.0,0.0,0.0,0.0,0.0,0.0,0.0,0.0,0.0,0.0,0.0,0.0,0.0,0.0,0.0,0.0,0.0,0.0,0.0,0.0,0.0,0.0,0.0,0.0,0.0,0.0,0.0,0.0,0.0,0.0,0.0,0.0,0.0,0.0,0.0,0.0,0.0,0.0,0.0,0.0,0.0,0.0,0.0,0.0,0.0,0.0,0.0,0.0,0.0,0.0,0.0,0.0,0.0,0.0,0.0,0.0,0.0,0.0,0.0,0.0,0.0,0.0,0.0,0.0,0.0,0.0,0.0,0.0,0.0,0.0,0.0,0.0,0.0,0.0,0.0,0.0,0.0,0.0,0.0,0.0,0.0,0.0,0.0,0.0,0.0,0.0,0.0,0.0,0.0,0.0,0.0,0.0,0.0,0.0,0.0,0.0,0.0,0.0,0.0,0.0,0.0,0.0,0.0,0.0,0.0,0.0,0.0,0.0,0.0,0.0,0.0,0.0,0.0,0.0,0.0,0.0,0.0,0.0,0.0,0.0,0.0,0.0,0.0,0.0,0.0,0.0,0.0,0.0,0.0,0.0,0.0,0.0,0.0,0.0,0.0,0.0,0.0,0.0,0.0,0.0,0.0,0.0,0.0,0.0,0.0,0.0,0.0,0.0,0.0,0.0,0.0,0.0,0.0,0.0,0.0,0.0,0.0,0.0,0.0,0.0,0.0,0.0,0.0,0.0,0.0,0.0,0.0,0.0,0.0,0.0,0.0,0.0,0.0,0.0,0.0,0.0,0.0,0.0,0.0,0.0,0.0,0.0,0.0,0.0,0.0,0.0,0.0,0.0,0.0,0.0,0.0,0.0,0.0,0.0,0.0,0.0,0.0,0.0,0.0,0.0,0.0,0.0,0.0,0.0,0.0,0.0,0.0,0.0,0.0,0.0,0.0,0.0,0.0,0.0,0.0,0.0,0.0,0.0,0.0,0.0,0.0,0.0,0.0,0.0,0.0,0.0,0.0,0.0,0.0,0.0,0.0,0.0,0.0,0.0,0.0,0.0,0.0,0.0,0.0,0.0,0.0,0.0,0.0,0.0,0.0,0.0,0.0,0.0,0.0,0.0,0.0,0.0,0.0,0.0,0.0,0.0,0.0,0.0,0.0,0.0,0.0,0.0,0.0,0.0,0.0,0.0,0.0,0.0,0.0,0.0,0.0,0.0,0.0,0.0,0.0,0.0,0.0,0.0,0.0,0.0,0.0,0.0,0.0,0.0,0.0,0.0,0.0,0.0,0.0,0.0,0.0,0.0,0.0,0.0,0.0,0.0,0.0,0.0,0.0,0.0,0.0,0.0,0.0,0.0,0.0,0.0,0.0,0.0,0.0,0.0,0.0,0.0,0.0,0.0,0.0,0.0,0.0,0.0,0.0,0.0,0.0,0.0,0.0,0.0,0.0,0.0,0.0,0.0,0.0,0.0,0.0,0.0,0.0,0.0,0.0,0.0,0.0,0.0,0.0,0.0,0.0,0.0,0.0,0.0,0.0,0.0,0.0,0.0,0.0,0.0,0.0,0.0,0.0,0.0,0.0,0.0,0.0,0.0,0.0,0.0,0.0,0.0,0.0,0.0,0.0,0.0,0.0,0.0,0.0,0.0,0.0,0.0,0.0,0.0,0.0,0.0,0.0,0.0,0.0,0.0,0.0,0.0,0.0,0.0,0.0,0.0,0.0,0.0,0.0,0.0,0.0,0.0,0.0,0.0,0.0,0.0,0.0,0.0,0.0,0.0,0.0,0.0,0.0,0.0,0.0,0.0,0.0,0.0,0.0,0.0,0.0,0.0,0.0,0.0,0.0,0.0,0.0,0.0,0.0,0.0,0.0,0.0,0.0,0.0,0.0,0.0,0.0,0.0,0.0,0.0,0.0,0.0,0.0,0.0,0.0,0.0,0.0,0.0,0.0,0.0,0.0,0.0,0.0,0.0,0.0,0.0,0.0,0.0,0.0,0.0,0.0,0.0,0.0,0.0,0.0,0.0,0.0,0.0,0.0,0.0,0.0,0.0,0.0,0.0,0.0,0.0,0.0,0.0,0.0,0.0,0.0,0.0,0.0,0.0,0.0,0.0,0.0,0.0,0.0,0.0,0.0,0.0,0.0,0.0,0.0,0.0,0.0,0.0,0.0,0.0,0.0,0.0,0.0,0.0,0.0,0.0,0.0,0.0,0.0,0.0,0.0,0.0,0.0,0.0,0.0,0.0,0.0,0.0,0.0,0.0,0.0,0.0,0.0,0.0,0.0,0.0,0.0,0.0,0.0,0.0,0.0,0.0,0.0,0.0,0.0,0.0,0.0,0.0,0.0,0.0,0.0,0.0,0.0,0.0,0.0,0.0,0.0,0.0,0.0,0.0,0.0,0.0,0.0,0.0,0.0,0.0,0.0,0.0,0.0,0.0,0.0,0.0,0.0,0.0,0.0,0.0,0.0,0.0,0.0,0.0,0.0,0.0,0.0,0.0,0.0,0.0,0.0,0.0,0.0,0.0,0.0,0.0,0.0,0.0,0.0,0.0,0.0,0.0,0.0,0.0,0.0,0.0,0.0,0.0,0.0,0.0,0.0,0.0,0.0,0.0,0.0,0.0,0.0,0.0,0.0,0.0,0.0,0.0,0.0,0.0,0.0,0.0,0.0,0.0,0.0,0.0,0.0,0.0,0.0,0.0,0.0,0.0,0.0,0.0,0.0,0.0,0.0,0.0,0.0,0.0,0.0,0.0,0.0,0.0,0.0,0.0,0.0,0.0,0.0,0.0,0.0,0.0,0.0,0.0,0.0,0.0,0.0,0.0,0.0,0.0,0.0,0.0,0.0,0.0,0.0,0.0,0.0,0.0,0.0,0.0,0.0,1.3795,0.0,0.0,0.0,0.0,0.0,0.0,0.0,0.0,0.0,0.0,0.0,0.0,0.0,0.0,0.0,0.0,0.0,0.0,0.0,0.0,0.0,0.0,0.0,0.0,0.0,0.0,0.0,0.0,0.0,0.0,0.0,0.0,0.0,0.0,0.0,0.0,0.0,0.0,0.0,0.0,0.0,0.0,0.0,0.0,0.0,0.0,0.0,0.0,0.0,0.0,0.0,0.0,0.0,0.0,0.0,0.0,0.0,0.0,0.0,0.0,0.0,0.0,0.0,0.0,0.0,0.0,0.0,0.0,0.0,0.0,0.0,0.0,0.0,0.0,0.0,0.0,0.0,0.0,0.0,0.0,0.0,0.0,0.0,0.0,0.0,0.0,0.0,0.0,0.0,0.0,0.0,0.0,0.0,0.0,0.0,0.0,0.0,0.0,0.0,0.0,0.0,0.0,0.0,0.0,0.0,0.0,0.0,0.0,0.0,0.0,1.3791,1.3791,1.3791,1.3834,1.3872,0.0,0.0,0.0,0.0,0.0,0.0,0.0,0.0,0.0,0.0,0.0,0.0,0.0,0.0,0.0,0.0,0.0,0.0,0.0,0.0,0.0,0.0,0.0,0.0,0.0,0.0,0.0,0.0,0.0,0.0,0.0,0.0,0.0,0.0,0.0,0.0,0.0,0.0,0.0,0.0,0.0,0.0,0.0,0.0,0.0,0.0,0.0,0.0,0.0,0.0,0.0,0.0,0.0,0.0,0.0,0.0,0.0,0.0,0.0,0.0,0.0,0.0,0.0,0.0,0.0,0.0,0.0,0.0,0.0,0.0,0.0,0.0,0.0,0.0,0.0,0.0,0.0,0.0,0.0,0.0,0.0,0.0,0.0,0.0,0.0,0.0,0.0,0.0,0.0,0.0,0.0,0.0,0.0,0.0,0.0,0.0,0.0,0.0,0.0,0.0,0.0,0.0,0.0,0.0,0.0,0.0,0.0,0.0,0.0,0.0,0.0,0.0,1.3866,1.3837,1.3937,0.0,0.0,0.0,0.0,0.0,0.0,0.0,0.0,0.0,0.0,0.0,0.0,0.0,0.0,0.0,0.0,0.0,0.0,0.0,0.0,0.0,0.0,0.0,0.0,0.0,0.0,0.0,0.0,0.0,0.0,0.0,0.0,0.0,0.0,0.0,0.0,0.0,0.0,0.0,0.0,0.0,0.0,0.0,0.0,0.0,0.0,0.0,0.0,0.0,0.0,0.0,0.0,0.0,0.0,0.0,0.0,0.0,0.0,0.0,0.0,0.0,0.0,0.0,0.0,0.0,0.0,0.0,0.0,0.0,0.0,0.0,0.0,0.0,0.0,0.0,0.0,0.0,0.0,0.0,0.0,0.0,0.0,0.0,0.0,0.0,0.0,0.0,0.0,0.0,0.0,0.0,0.0,0.0,0.0,0.0,0.0,0.0,0.0,0.0,0.0,0.0,0.0,0.0,0.0,0.0,0.0,0.0,0.0,0.0,0.0,1.4023,1.4494,1.4045,0.0,1.3997,0.0,0.0,0.0,0.0,0.0,0.0,0.0,0.0,0.0,0.0,0.0,0.0,0.0,0.0,0.0,0.0,0.0,0.0,0.0,0.0,0.0,0.0,0.0,0.0,0.0,0.0,0.0,0.0,0.0,0.0,0.0,0.0,0.0,0.0,0.0,0.0,0.0,0.0,0.0,0.0,0.0,0.0,0.0,0.0,0.0,0.0,0.0,0.0,0.0,0.0,0.0,0.0,0.0,0.0,0.0,0.0,0.0,0.0,0.0,0.0,0.0,0.0,0.0,0.0,0.0,0.0,0.0,0.0,0.0,0.0,0.0,0.0,0.0,0.0,0.0,0.0,0.0,0.0,0.0,0.0,0.0,0.0,0.0,0.0,0.0,0.0,0.0,0.0,0.0,0.0,0.0,0.0,0.0,0.0,0.0,0.0,0.0,0.0,0.0,0.0,0.0,0.0,0.0,0.0,0.0,0.0,0.0,0.0,0.0,0.0,1.3914,1.4132,1.3996,1.3943,0.0,0.0,0.0,0.0,0.0,0.0,0.0,0.0,0.0,0.0,0.0,0.0,0.0,0.0,0.0,0.0,0.0,0.0,0.0,0.0,0.0,0.0,0.0,0.0,0.0,0.0,0.0,0.0,0.0,0.0,0.0,0.0,0.0,0.0,0.0,0.0,0.0,0.0,0.0,0.0,0.0,0.0,0.0,0.0,0.0,0.0,0.0,0.0,0.0,0.0,0.0,0.0,0.0,0.0,0.0,0.0,0.0,0.0,0.0,0.0,0.0,0.0,0.0,0.0,0.0,0.0,0.0,0.0,0.0,0.0,0.0,0.0,0.0,0.0,0.0,0.0,0.0,0.0,0.0,0.0,0.0,0.0,0.0,0.0,0.0,0.0,0.0,0.0,0.0,0.0,0.0,0.0,0.0,0.0,0.0,0.0,0.0,0.0,0.0,0.0,0.0,0.0,0.0,0.0,0.0,0.0,0.0,0.0,0.0,0.0,1.3861,1.3791,1.38,1.3927,1.4017,1.4003,0.0,0.0,0.0,0.0,0.0,0.0,0.0,0.0,0.0,0.0,0.0,0.0,0.0,0.0,0.0,0.0,0.0,0.0,0.0,0.0,0.0,0.0,0.0,0.0,0.0,0.0,0.0,0.0,0.0,0.0,0.0,0.0,0.0,0.0,0.0,0.0,0.0,0.0,0.0,0.0,0.0,0.0,0.0,0.0,0.0,0.0,0.0,0.0,0.0,0.0,0.0,0.0,0.0,0.0,0.0,0.0,0.0,0.0,0.0,0.0,0.0,0.0,0.0,0.0,0.0,0.0,0.0,0.0,0.0,0.0,0.0,0.0,0.0,0.0,0.0,0.0,0.0,0.0,0.0,0.0,0.0,0.0,0.0,0.0,0.0,0.0,0.0,0.0,0.0,0.0,0.0,0.0,0.0,0.0,0.0,0.0,0.0,0.0,0.0,0.0,0.0,0.0,0.0,0.0,0.0,0.0,0.0,0.0,1.4515,1.4071,1.3817,1.3813,1.3961,1.4017,0.0,0.0,0.0,0.0,0.0,0.0,0.0,0.0,0.0,0.0,0.0,0.0,0.0,0.0,0.0,0.0,0.0,0.0,0.0,0.0,0.0,0.0,0.0,0.0,0.0,0.0,0.0,0.0,0.0,0.0,0.0,0.0,0.0,0.0,0.0,0.0,0.0,0.0,0.0,0.0,0.0,0.0,0.0,0.0,0.0,0.0,0.0,0.0,0.0,0.0,0.0,0.0,0.0,0.0,0.0,0.0,0.0,0.0,0.0,0.0,0.0,0.0,0.0,0.0,0.0,0.0,0.0,0.0,0.0,0.0,0.0,0.0,0.0,0.0,0.0,0.0,0.0,0.0,0.0,0.0,0.0,0.0,0.0,0.0,0.0,0.0,0.0,0.0,0.0,0.0,0.0,0.0,0.0,0.0,0.0,0.0,0.0,0.0,0.0,0.0,0.0,0.0,0.0,0.0,0.0,0.0,0.0,0.0,0.0,1.4594,1.4777,1.4912,1.4895,1.507,1.5154,0.0,0.0,0.0,0.0,0.0,0.0,0.0,0.0,0.0,0.0,0.0,0.0,0.0,0.0,0.0,0.0,0.0,0.0,0.0,0.0,0.0,0.0,0.0,0.0,0.0,0.0,0.0,0.0,0.0,0.0,0.0,0.0,0.0,0.0,0.0,0.0,0.0,0.0,0.0,0.0,0.0,0.0,0.0,0.0,0.0,0.0,0.0,0.0,0.0,0.0,0.0,0.0,0.0,0.0,0.0,0.0,0.0,0.0,0.0,0.0,0.0,0.0,0.0,0.0,0.0,0.0,0.0,0.0,0.0,0.0,0.0,0.0,0.0,0.0,0.0,0.0,0.0,0.0,0.0,0.0,0.0,0.0,0.0,0.0,0.0,0.0,0.0,0.0,0.0,0.0,0.0,0.0,0.0,0.0,0.0,0.0,0.0,0.0,0.0,0.0,0.0,0.0,0.0,0.0,0.0,0.0,0.0,0.0,0.0,1.4899,0.0,1.5504,1.5514,1.5679,1.5821,0.0,0.0,0.0,0.0,0.0,0.0,0.0,0.0,0.0,0.0,0.0,0.0,0.0,0.0,0.0,0.0,0.0,0.0,0.0,0.0,0.0,0.0,0.0,0.0,0.0,0.0,0.0,0.0,0.0,0.0,0.0,0.0,0.0,0.0,0.0,0.0,0.0,0.0,0.0,0.0,0.0,0.0,0.0,0.0,0.0,0.0,0.0,0.0,0.0,0.0,0.0,0.0,0.0,0.0,0.0,0.0,0.0,0.0,0.0,0.0,0.0,0.0,0.0,0.0,0.0,0.0,0.0,0.0,0.0,0.0,0.0,0.0,0.0,0.0,0.0,0.0,0.0,0.0,0.0,0.0,0.0,0.0,0.0,0.0,0.0,0.0,0.0,0.0,0.0,0.0,0.0,0.0,0.0,0.0,0.0,0.0,0.0,0.0,0.0,0.0,0.0,0.0,0.0,0.0,0.0,0.0,0.0,0.0,1.4964,1.5504,1.5561,1.5635,1.5545,1.5789,1.5874,0.0,0.0,0.0,0.0,0.0,0.0,0.0,0.0,0.0,0.0,0.0,0.0,0.0,0.0,0.0,0.0,0.0,0.0,0.0,0.0,0.0,0.0,0.0,0.0,0.0,0.0,0.0,0.0,0.0,0.0,0.0,0.0,0.0,0.0,0.0,0.0,0.0,0.0,0.0,0.0,0.0,0.0,0.0,0.0,0.0,0.0,0.0,0.0,0.0,0.0,0.0,0.0,0.0,0.0,0.0,0.0,0.0,0.0,0.0,0.0,0.0,0.0,0.0,0.0,0.0,0.0,0.0,0.0,0.0,0.0,0.0,0.0,0.0,0.0,0.0,0.0,0.0,0.0,0.0,0.0,0.0,0.0,0.0,0.0,0.0,0.0,0.0,0.0,0.0,0.0,0.0,0.0,0.0,0.0,0.0,0.0,0.0,0.0,0.0,0.0,0.0,0.0,0.0,0.0,0.0,0.0,0.0,0.0,0.0,1.7288,1.7277,1.7282,1.7293,1.7485,1.7397,0.0,0.0,0.0,0.0,0.0,0.0,0.0,0.0,0.0,0.0,0.0,0.0,0.0,0.0,0.0,0.0,0.0,0.0,0.0,0.0,0.0,0.0,0.0,0.0,0.0,0.0,0.0,0.0,0.0,0.0,0.0,0.0,0.0,0.0,0.0,0.0,0.0,0.0,0.0,0.0,0.0,0.0,0.0,0.0,0.0,0.0,0.0,0.0,0.0,0.0,0.0,0.0,0.0,0.0,0.0,0.0,0.0,0.0,0.0,0.0,0.0,0.0,0.0,0.0,0.0,0.0,0.0,0.0,0.0,0.0,0.0,0.0,0.0,0.0,0.0,0.0,0.0,0.0,0.0,0.0,0.0,0.0,0.0,0.0,0.0,0.0,0.0,0.0,0.0,0.0,0.0,0.0,0.0,0.0,0.0,0.0,0.0,0.0,0.0,0.0,0.0,0.0,0.0,0.0,0.0,0.0,0.0,0.0,0.0,1.9742,1.9095,1.8868,1.9161,1.8883,1.851,1.8016,0.0,0.0,0.0,0.0,0.0,0.0,0.0,0.0,0.0,0.0,0.0,0.0,0.0,0.0,0.0,0.0,0.0,0.0,0.0,0.0,0.0,0.0,0.0,0.0,0.0,0.0,0.0,0.0,0.0,0.0,0.0,0.0,0.0,0.0,0.0,0.0,0.0,0.0,0.0,0.0,0.0,0.0,0.0,0.0,0.0,0.0,0.0,0.0,0.0,0.0,0.0,0.0,0.0,0.0,0.0,0.0,0.0,0.0,0.0,0.0,0.0,0.0,0.0,0.0,0.0,0.0,0.0,0.0,0.0,0.0,0.0,0.0,0.0,0.0,0.0,0.0,0.0,0.0,0.0,0.0,0.0,0.0,0.0,0.0,0.0,0.0,0.0,0.0,0.0,0.0,0.0,0.0,0.0,0.0,0.0,0.0,0.0,0.0,0.0,0.0,0.0,0.0,0.0,0.0,0.0,0.0,0.0,0.0,2.2956,2.1193,2.0512,2.1025,2.0072,1.9321,0.0,0.0,0.0,0.0,0.0,0.0,0.0,0.0,0.0,0.0,0.0,0.0,0.0,0.0,0.0,0.0,0.0,0.0,0.0,0.0,0.0,0.0,0.0,0.0,0.0,0.0,0.0,0.0,0.0,0.0,0.0,0.0,0.0,0.0,0.0,0.0,0.0,0.0,0.0,0.0,0.0,0.0,0.0,0.0,0.0,0.0,0.0,0.0,0.0,0.0,0.0,0.0,0.0,0.0,0.0,0.0,0.0,0.0,0.0,0.0,0.0,0.0,0.0,0.0,0.0,0.0,0.0,0.0,0.0,0.0,0.0,0.0,0.0,0.0,0.0,0.0,0.0,0.0,0.0,0.0,0.0,0.0,0.0,0.0,0.0,0.0,0.0,0.0,0.0,0.0,0.0,0.0,0.0,0.0,0.0,0.0,0.0,0.0,0.0,0.0,0.0,0.0,0.0,0.0,0.0,0.0,0.0,0.0,0.0,2.617,2.5818,2.4759,2.3111,2.2485,2.1578,0.0,0.0,0.0,0.0,0.0,0.0,0.0,0.0,0.0,0.0,0.0,0.0,0.0,0.0,0.0,0.0,0.0,0.0,0.0,0.0,0.0,0.0,0.0,0.0,0.0,0.0,0.0,0.0,0.0,0.0,0.0,0.0,0.0,0.0,0.0,0.0,0.0,0.0,0.0,0.0,0.0,0.0,0.0,0.0,0.0,0.0,0.0,0.0,0.0,0.0,0.0,0.0,0.0,0.0,0.0,0.0,0.0,0.0,0.0,0.0,0.0,0.0,0.0,0.0,0.0,0.0,0.0,0.0,0.0,0.0,0.0,0.0,0.0,0.0,0.0,0.0,0.0,0.0,0.0,0.0,0.0,0.0,0.0,0.0,0.0,0.0,0.0,0.0,0.0,0.0,0.0,0.0,0.0,0.0,0.0,0.0,0.0,0.0,0.0,0.0,0.0,0.0,0.0,0.0,0.0,0.0,0.0,0.0,2.5868,2.8495,2.9522,2.9191,2.7475,2.5285,2.3456,0.0,0.0,0.0,0.0,0.0,0.0,0.0,0.0,0.0,0.0,0.0,0.0,0.0,0.0,0.0,0.0,0.0,0.0,0.0,0.0,0.0,0.0,0.0,0.0,0.0,0.0,0.0,0.0,0.0,0.0,0.0,0.0,0.0,0.0,0.0,0.0,0.0,0.0,0.0,0.0,0.0,0.0,0.0,0.0,0.0,0.0,0.0,0.0,0.0,0.0,0.0,0.0,0.0,0.0,0.0,0.0,0.0,0.0,0.0,0.0,0.0,0.0,0.0,0.0,0.0,0.0,0.0,0.0,0.0,0.0,0.0,0.0,0.0,0.0,0.0,0.0,0.0,0.0,0.0,0.0,0.0,0.0,0.0,0.0,0.0,0.0,0.0,0.0,0.0,0.0,0.0,0.0,0.0,0.0,0.0,0.0,0.0,0.0,0.0,0.0,0.0,0.0,0.0,0.0,0.0,0.0,0.0,0.0,2.8193,3.0254,3.2423,3.3266,3.2608,2.8408,2.5377,0.0,0.0,0.0,0.0,0.0,0.0,0.0,0.0,0.0,0.0,0.0,0.0,0.0,0.0,0.0,0.0,0.0,0.0,0.0,0.0,0.0,0.0,0.0,0.0,0.0,0.0,0.0,0.0,0.0,0.0,0.0,0.0,0.0,0.0,0.0,0.0,0.0,0.0,0.0,0.0,0.0,0.0,0.0,0.0,0.0,0.0,0.0,0.0,0.0,0.0,0.0,0.0,0.0,0.0,0.0,0.0,0.0,0.0,0.0,0.0,0.0,0.0,0.0,0.0,0.0,0.0,0.0,0.0,0.0,0.0,0.0,0.0,0.0,0.0,0.0,0.0,0.0,0.0,0.0,0.0,0.0,0.0,0.0,0.0,0.0,0.0,0.0,0.0,0.0,0.0,0.0,0.0,0.0,0.0,0.0,0.0,0.0,0.0,0.0,0.0,0.0,0.0,0.0,0.0,0.0,0.0,0.0,0.0,3.0299,3.2842,3.3928,3.4555,3.4684,3.1676,2.8807,0.0,0.0,0.0,0.0,0.0,0.0,0.0,0.0,0.0,0.0,0.0,0.0,0.0,0.0,0.0,0.0,0.0,0.0,0.0,0.0,0.0,0.0,0.0,0.0,0.0,0.0,0.0,0.0,0.0,0.0,0.0,0.0,0.0,0.0,0.0,0.0,0.0,0.0,0.0,0.0,0.0,0.0,0.0,0.0,0.0,0.0,0.0,0.0,1.6289,0.0,0.0,0.0,0.0,0.0,0.0,0.0,0.0,0.0,0.0,0.0,0.0,0.0,0.0,0.0,0.0,0.0,0.0,0.0,0.0,0.0,0.0,0.0,0.0,0.0,0.0,0.0,0.0,0.0,0.0,0.0,0.0,0.0,0.0,0.0,0.0,0.0,0.0,0.0,0.0,0.0,0.0,0.0,0.0,0.0,0.0,0.0,0.0,0.0,0.0,0.0,0.0,0.0,0.0,0.0,0.0,0.0,0.0,0.0,3.1903,3.4268,3.5202,3.5766,3.5907,3.3952,3.1131,0.0,0.0,0.0,0.0,0.0,0.0,0.0,0.0,0.0,0.0,0.0,0.0,0.0,0.0,0.0,0.0,0.0,0.0,0.0,0.0,0.0,0.0,0.0,0.0,0.0,0.0,0.0,0.0,0.0,0.0,0.0,0.0,0.0,0.0,0.0,0.0,0.0,0.0,0.0,0.0,0.0,0.0,0.0,0.0,0.0,0.0,0.0,0.0,0.0,0.0,0.0,0.0,0.0,0.0,0.0,0.0,0.0,0.0,0.0,0.0,0.0,0.0,0.0,0.0,0.0,0.0,0.0,0.0,0.0,0.0,0.0,0.0,0.0,0.0,0.0,0.0,0.0,0.0,0.0,0.0,0.0,0.0,0.0,0.0,0.0,0.0,0.0,0.0,0.0,0.0,0.0,0.0,0.0,0.0,0.0,0.0,0.0,0.0,0.0,0.0,0.0,0.0,0.0,0.0,0.0,0.0,0.0,3.0436,3.3297,3.5293,3.6239,3.6731,3.6804,3.5213,3.2534,2.8702,0.0,0.0,0.0,0.0,0.0,0.0,0.0,0.0,0.0,0.0,0.0,0.0,0.0,0.0,0.0,0.0,0.0,0.0,0.0,0.0,0.0,0.0,0.0,0.0,0.0,0.0,0.0,0.0,0.0,0.0,0.0,0.0,0.0,0.0,0.0,0.0,0.0,0.0,1.5619,1.6463,0.0,0.0,0.0,0.0,0.0,0.0,0.0,0.0,1.8444,0.0,0.0,0.0,0.0,0.0,0.0,0.0,0.0,0.0,0.0,0.0,0.0,0.0,0.0,0.0,0.0,0.0,0.0,0.0,0.0,0.0,0.0,0.0,0.0,0.0,0.0,0.0,0.0,0.0,0.0,0.0,0.0,0.0,0.0,0.0,0.0,0.0,0.0,0.0,0.0,0.0,0.0,0.0,0.0,0.0,0.0,0.0,0.0,0.0,0.0,0.0,0.0,0.0,0.0,0.0,0.0,2.9273,3.2185,3.4626,3.6526,3.6865,3.7029,3.7013,3.4852,3.2549,3.0227,0.0,0.0,0.0,0.0,0.0,0.0,0.0,0.0,0.0,0.0,0.0,0.0,0.0,0.0,0.0,0.0,0.0,0.0,0.0,0.0,0.0,0.0,0.0,0.0,0.0,0.0,0.0,0.0,0.0,0.0,0.0,0.0,0.0,0.0,0.0,0.0,0.0,0.0,0.0,1.782,1.828,0.0,0.0,0.0,0.0,0.0,0.0,0.0,0.0,1.9615,0.0,0.0,0.0,0.0,0.0,0.0,0.0,0.0,0.0,0.0,0.0,0.0,0.0,0.0,0.0,0.0,0.0,0.0,0.0,0.0,0.0,0.0,0.0,0.0,0.0,0.0,0.0,0.0,0.0,0.0,0.0,0.0,0.0,0.0,0.0,0.0,0.0,0.0,0.0,0.0,0.0,0.0,0.0,0.0,0.0,0.0,0.0,0.0,0.0,0.0,0.0,0.0,0.0,0.0,0.0,3.06,3.3617,3.5921,3.7499,3.7602,3.7494,3.7212,3.5142,3.2946,0.0,0.0,0.0,0.0,0.0,0.0,0.0,0.0,0.0,0.0,0.0,0.0,0.0,0.0,0.0,0.0,0.0,0.0,0.0,0.0,0.0,0.0,0.0,0.0,0.0,0.0,0.0,0.0,0.0,0.0,0.0,0.0,0.0,0.0,0.0,0.0,0.0,0.0,0.0,0.0,1.8843,1.945,1.9792,0.0,0.0,0.0,0.0,0.0,0.0,2.0256,2.0253,0.0,0.0,0.0,0.0,0.0,0.0,0.0,0.0,0.0,0.0,0.0,0.0,0.0,0.0,0.0,0.0,0.0,0.0,0.0,0.0,0.0,0.0,0.0,0.0,0.0,0.0,0.0,0.0,0.0,0.0,0.0,0.0,0.0,0.0,0.0,0.0,0.0,0.0,0.0,0.0,0.0,0.0,0.0,0.0,0.0,0.0,0.0,0.0,0.0,0.0,0.0,0.0,0.0,0.0,0.0,3.1588,3.4655,3.6909,3.8186,3.8192,3.7918,3.7396,3.544,3.3186,0.0,0.0,0.0,0.0,0.0,0.0,0.0,0.0,0.0,0.0,0.0,0.0,0.0,0.0,0.0,0.0,0.0,0.0,0.0,0.0,0.0,0.0,0.0,0.0,0.0,0.0,0.0,0.0,0.0,0.0,0.0,0.0,0.0,0.0,0.0,0.0,0.0,0.0,0.0,0.0,0.0,2.0696,2.093,2.1345,0.0,0.0,0.0,0.0,2.1085,2.1265,0.0,0.0,0.0,0.0,0.0,0.0,0.0,0.0,0.0,0.0,0.0,0.0,0.0,0.0,0.0,0.0,0.0,0.0,0.0,0.0,0.0,0.0,0.0,0.0,0.0,0.0,0.0,0.0,0.0,0.0,0.0,0.0,0.0,0.0,0.0,0.0,0.0,0.0,0.0,0.0,0.0,0.0,0.0,0.0,0.0,0.0,0.0,0.0,0.0,0.0,0.0,0.0,0.0,0.0,0.0,0.0,3.2502,3.5118,3.7097,3.8323,3.8366,3.8075,3.7404,3.5054,3.2818,0.0,0.0,0.0,0.0,0.0,0.0,0.0,0.0,0.0,0.0,0.0,0.0,0.0,0.0,0.0,0.0,0.0,0.0,0.0,0.0,0.0,0.0,0.0,0.0,0.0,0.0,0.0,0.0,0.0,0.0,0.0,0.0,0.0,0.0,0.0,0.0,0.0,0.0,0.0,0.0,0.0,2.2027,2.2165,2.2308,2.2315,0.0,0.0,0.0,2.3328,2.3768,0.0,0.0,0.0,0.0,0.0,0.0,0.0,0.0,0.0,0.0,0.0,0.0,0.0,0.0,0.0,0.0,0.0,0.0,0.0,0.0,0.0,0.0,0.0,0.0,0.0,0.0,0.0,0.0,0.0,0.0,0.0,0.0,0.0,0.0,0.0,0.0,0.0,0.0,0.0,0.0,0.0,0.0,0.0,0.0,0.0,0.0,0.0,0.0,0.0,0.0,0.0,0.0,0.0,0.0,0.0,3.0791,3.353,3.6064,3.7982,3.9267,3.9319,3.8616,3.7211,3.5383,3.3183,0.0,0.0,0.0,0.0,0.0,0.0,0.0,0.0,0.0,0.0,0.0,0.0,0.0,0.0,0.0,0.0,0.0,0.0,0.0,0.0,0.0,0.0,0.0,0.0,0.0,0.0,0.0,0.0,0.0,0.0,0.0,0.0,0.0,0.0,0.0,0.0,0.0,0.0,0.0,0.0,0.0,0.0,2.3879,2.4222,0.0,0.0,0.0,2.4255,2.4998,0.0,0.0,0.0,0.0,0.0,0.0,0.0,0.0,0.0,0.0,0.0,0.0,0.0,0.0,0.0,0.0,0.0,0.0,0.0,0.0,0.0,0.0,0.0,0.0,0.0,0.0,0.0,0.0,0.0,0.0,0.0,0.0,0.0,0.0,0.0,0.0,0.0,0.0,0.0,0.0,0.0,0.0,0.0,0.0,0.0,0.0,0.0,0.0,0.0,0.0,0.0,0.0,0.0,0.0,0.0,0.0,0.0,3.4156,3.6698,3.8658,3.9941,4.0002,3.9061,3.705,3.558,0.0,0.0,0.0,0.0,0.0,0.0,0.0,0.0,0.0,0.0,0.0,0.0,0.0,0.0,0.0,0.0,0.0,0.0,0.0,0.0,0.0,0.0,0.0,0.0,0.0,0.0,0.0,1.4651,0.0,0.0,0.0,0.0,0.0,0.0,0.0,0.0,0.0,0.0,0.0,0.0,0.0,0.0,2.4548,2.5282,2.5825,2.6241,0.0,0.0,2.5868,2.6671,2.5961,2.5162,0.0,0.0,0.0,0.0,0.0,0.0,0.0,0.0,0.0,0.0,0.0,0.0,0.0,0.0,0.0,0.0,0.0,0.0,0.0,0.0,0.0,0.0,0.0,0.0,0.0,0.0,0.0,0.0,0.0,0.0,0.0,0.0,0.0,0.0,0.0,0.0,0.0,0.0,0.0,0.0,0.0,0.0,0.0,0.0,0.0,0.0,0.0,0.0,0.0,0.0,0.0,0.0,0.0,0.0,0.0,3.4187,3.669,3.8667,3.995,4.0002,3.9031,3.7058,3.5193,3.2952,0.0,0.0,0.0,0.0,0.0,0.0,0.0,0.0,0.0,0.0,0.0,0.0,0.0,0.0,0.0,0.0,0.0,0.0,0.0,0.0,0.0,0.0,0.0,0.0,0.0,0.0,0.0,0.0,0.0,0.0,0.0,0.0,0.0,0.0,0.0,0.0,0.0,0.0,0.0,0.0,0.0,2.551,2.604,2.6604,2.7316,0.0,0.0,2.8008,2.8612,2.8019,2.6988,2.5483,0.0,0.0,0.0,0.0,0.0,0.0,0.0,0.0,0.0,0.0,0.0,0.0,0.0,0.0,0.0,0.0,0.0,0.0,0.0,0.0,0.0,0.0,0.0,0.0,0.0,0.0,0.0,0.0,0.0,0.0,0.0,0.0,0.0,0.0,0.0,0.0,0.0,0.0,0.0,0.0,0.0,0.0,0.0,0.0,0.0,0.0,0.0,0.0,0.0,0.0,0.0,0.0,0.0,3.1665,3.438,3.6987,3.8967,4.0213,3.9907,3.8928,3.7345,3.4972,3.264,0.0,0.0,0.0,0.0,0.0,0.0,0.0,0.0,0.0,0.0,0.0,0.0,0.0,0.0,0.0,0.0,0.0,0.0,0.0,0.0,0.0,0.0,0.0,0.0,0.0,0.0,0.0,0.0,1.8159,1.857,1.8669,0.0,0.0,0.0,0.0,0.0,0.0,0.0,0.0,0.0,0.0,2.7306,2.8271,2.8881,0.0,0.0,2.9218,2.9003,2.9449,2.8324,2.7186,2.6557,2.5112,0.0,0.0,0.0,0.0,0.0,0.0,0.0,0.0,0.0,0.0,0.0,0.0,0.0,0.0,0.0,0.0,0.0,0.0,0.0,0.0,0.0,0.0,0.0,0.0,0.0,0.0,0.0,0.0,0.0,0.0,0.0,0.0,0.0,0.0,0.0,0.0,0.0,0.0,0.0,0.0,0.0,0.0,0.0,0.0,0.0,0.0,0.0,0.0,0.0,0.0,0.0,0.0,3.2044,3.4767,3.7254,3.9168,4.0483,4.0021,3.9084,3.7515,3.5245,3.2991,0.0,0.0,0.0,0.0,0.0,0.0,0.0,0.0,0.0,0.0,0.0,0.0,0.0,0.0,0.0,0.0,0.0,0.0,0.0,0.0,0.0,0.0,0.0,0.0,0.0,0.0,0.0,0.0,1.9079,1.9377,1.9258,0.0,0.0,0.0,0.0,0.0,0.0,0.0,0.0,0.0,0.0,2.8412,2.9619,3.0256,3.0608,3.0628,3.0055,2.9787,3.0191,2.8836,2.7612,2.7115,0.0,0.0,0.0,0.0,0.0,0.0,0.0,0.0,0.0,0.0,0.0,0.0,0.0,0.0,0.0,0.0,0.0,0.0,0.0,0.0,0.0,0.0,0.0,0.0,0.0,0.0,0.0,0.0,0.0,0.0,2.2295,0.0,0.0,0.0,0.0,0.0,0.0,0.0,0.0,0.0,0.0,0.0,0.0,0.0,0.0,0.0,0.0,0.0,0.0,0.0,0.0,0.0,0.0,0.0,3.5437,3.7461,3.9146,4.0452,4.0483,3.9507,3.7584,3.6153,3.4151,3.1441,0.0,0.0,0.0,0.0,0.0,0.0,0.0,0.0,0.0,0.0,0.0,0.0,0.0,0.0,0.0,0.0,0.0,0.0,0.0,0.0,0.0,0.0,0.0,0.0,0.0,0.0,1.909,1.9661,1.9914,0.0,0.0,0.0,0.0,0.0,0.0,0.0,0.0,0.0,0.0,2.7428,2.8514,2.9663,3.0271,3.0799,3.1286,3.0683,3.0392,3.0934,2.99,2.8536,0.0,0.0,0.0,0.0,0.0,0.0,0.0,0.0,0.0,0.0,0.0,0.0,0.0,0.0,0.0,0.0,0.0,0.0,0.0,0.0,0.0,0.0,0.0,0.0,0.0,0.0,0.0,2.5394,2.4651,0.0,0.0,0.0,0.0,0.0,0.0,0.0,0.0,0.0,0.0,0.0,3.1028,3.1059,0.0,0.0,0.0,0.0,0.0,0.0,0.0,0.0,0.0,0.0,0.0,0.0,3.2735,3.5445,3.7461,3.9138,4.0413,4.0083,3.9291,3.8184,3.6453,3.422,3.1479,0.0,0.0,0.0,0.0,0.0,0.0,0.0,0.0,0.0,0.0,0.0,0.0,0.0,0.0,0.0,0.0,0.0,0.0,0.0,0.0,0.0,0.0,0.0,0.0,0.0,1.981,0.0,0.0,0.0,0.0,0.0,0.0,0.0,0.0,0.0,0.0,0.0,2.5904,2.7378,2.8841,3.003,3.0768,3.1009,3.106,0.0,0.0,0.0,0.0,0.0,0.0,0.0,0.0,0.0,0.0,0.0,0.0,0.0,0.0,2.5035,2.1841,2.1389,2.1456,2.1368,0.0,0.0,0.0,0.0,0.0,0.0,0.0,0.0,0.0,0.0,0.0,0.0,0.0,0.0,2.8092,0.0,2.7076,0.0,0.0,0.0,0.0,0.0,0.0,0.0,0.0,3.2061,3.2745,3.3805,3.3843,3.359,0.0,3.2475,3.1366,0.0,0.0,0.0,0.0,0.0,0.0,0.0,0.0,3.3597,3.5807,3.7831,3.9392,4.0421,4.0083,3.9414,3.8491,3.633,3.409,3.1818,3.0258,2.9126,0.0,0.0,0.0,0.0,0.0,0.0,0.0,0.0,0.0,0.0,0.0,0.0,0.0,0.0,0.0,0.0,0.0,0.0,0.0,0.0,0.0,0.0,0.0,2.1179,0.0,0.0,0.0,0.0,0.0,0.0,0.0,0.0,0.0,2.3979,2.5435,2.7128,2.8765,2.9754,3.0583,3.1296,0.0,0.0,0.0,0.0,0.0,0.0,0.0,2.9924,2.9879,2.9651,2.9563,2.9911,2.9915,2.9866,2.9856,0.0,0.0,2.4735,2.4075,2.4137,2.4138,2.4066,2.4055,2.4237,2.419,2.4146,0.0,0.0,0.0,0.0,0.0,0.0,0.0,0.0,3.2546,3.1942,0.0,3.0467,0.0,0.0,0.0,0.0,0.0,0.0,0.0,0.0,3.5237,3.5937,3.6546,3.6607,3.6599,3.6515,3.5876,3.5168,3.4313,3.0535,0.0,0.0,0.0,0.0,0.0,0.0,3.5206,3.6576,3.85,3.9814,4.0483,4.0474,3.9837,3.85,3.5968,3.3936,3.2574,3.1804,3.0518,2.8621,2.7683,0.0,0.0,0.0,0.0,0.0,0.0,0.0,0.0,0.0,0.0,0.0,0.0,0.0,0.0,0.0,0.0,0.0,0.0,0.0,0.0,2.1575,0.0,0.0,0.0,0.0,0.0,0.0,0.0,0.0,0.0,0.0,2.5803,2.6306,2.7605,3.0231,0.0,0.0,0.0,0.0,3.0824,3.1346,3.1446,3.1637,3.2129,3.2194,3.1842,3.0889,0.0,0.0,3.1512,3.1347,3.1253,3.1228,3.1483,3.1069,2.9109,2.8287,2.7915,2.7722,2.7691,2.7701,2.7535,2.7439,2.7447,3.9093,0.0,0.0,0.0,0.0,3.5035,3.5419,3.4972,3.5647,3.4981,3.3444,3.2956,0.0,0.0,0.0,0.0,0.0,0.0,3.4436,3.5976,3.7092,3.8007,3.8653,3.9138,3.8861,3.7915,3.7738,3.7061,3.5883,3.4275,3.2488,3.0573,0.0,0.0,0.0,0.0,3.6091,3.7853,3.8953,3.9806,4.0474,4.0505,3.9837,3.8522,3.6823,3.5506,3.4651,3.3012,3.1866,3.1237,2.9136,0.0,0.0,0.0,0.0,0.0,0.0,0.0,0.0,0.0,0.0,0.0,0.0,0.0,0.0,0.0,0.0,0.0,0.0,0.0,2.2339,2.2737,2.2912,0.0,0.0,0.0,0.0,0.0,0.0,0.0,0.0,0.0,2.8234,2.8796,2.9489,0.0,0.0,3.0918,3.1859,3.1649,3.1514,3.1899,0.0,0.0,0.0,3.2828,3.2878,3.2943,3.3384,3.3749,3.3749,3.3705,3.3661,3.3661,3.3621,3.3394,3.2805,3.1569,3.0665,3.0533,3.0294,3.0047,2.9982,2.99,2.9827,4.4785,4.0694,3.9483,3.8516,3.7958,3.9403,3.9765,3.9352,3.9369,3.8631,3.7342,3.6292,3.5401,3.4654,3.4303,0.0,0.0,0.0,3.6977,3.8578,3.9339,4.0091,4.0729,4.1129,4.0922,4.0131,3.9854,3.93,3.8516,3.7284,3.5868,3.4198,0.0,0.0,3.4236,3.5622,3.703,3.8461,3.9414,4.0114,4.0491,4.0237,3.9591,3.8522,3.7461,3.6461,3.553,3.4305,3.3367,3.282,3.117,2.9571,0.0,0.0,0.0,0.0,0.0,0.0,0.0,0.0,0.0,0.0,0.0,1.9182,0.0,0.0,0.0,0.0,2.2093,2.3263,2.4137,2.4234,0.0,0.0,0.0,0.0,0.0,0.0,0.0,2.7583,2.823,2.9048,3.0251,3.0769,3.112,3.1353,3.1369,3.1619,3.2256,0.0,3.229,3.2544,3.3316,3.3867,3.3732,3.3933,3.4162,3.4488,3.4767,3.5104,3.5353,3.5378,3.539,3.5367,3.5275,3.5183,3.5183,3.42,3.3142,3.2586,3.2251,3.2096,3.2073,3.2042,3.209,4.9821,4.7937,4.5241,4.3641,4.3001,4.3638,4.4039,4.4218,4.3409,4.2606,4.1705,4.0154,3.9062,3.8372,3.7569,0.0,0.0,3.8941,3.9877,4.1657,4.1837,4.222,4.2774,4.287,4.287,4.2716,4.2109,4.1762,4.1555,3.9677,3.8746,3.8653,3.6238,3.5237,3.5783,3.703,3.7976,3.8645,3.9867,4.0505,4.0474,3.9898,3.923,3.8491,3.7923,3.6946,3.5653,3.5545,3.4921,3.3644,3.346,3.2204,2.9631,0.0,0.0,0.0,0.0,0.0,0.0,0.0,0.0,0.0,0.0,0.0,0.0,0.0,0.0,0.0,2.4088,0.0,2.5748,2.5827,0.0,0.0,0.0,2.6446,2.7576,2.7707,2.8351,3.0039,0.0,0.0,0.0,0.0,3.2444,3.2304,3.2191,3.2265,3.2642,3.2971,3.3176,3.333,3.4414,3.5156,3.493,3.5228,3.5506,3.5531,3.557,3.5768,3.6205,3.6355,3.6368,3.6318,3.6393,3.6368,3.6393,3.6021,3.5539,3.4061,3.3789,3.3803,3.3732,3.3848,3.3974,5.3322,5.2202,5.1342,4.8666,4.5119,4.6265,4.6405,4.5739,4.6063,4.5627,4.4616,4.3193,4.2005,4.1055,4.0704,4.0709,4.104,4.1909,4.2262,4.2327,4.4049,4.4694,4.4415,4.5233,4.5105,4.416,4.3975,4.3381,4.2346,4.1362,4.0878,4.0786,3.9669,3.8645,3.7853,3.8584,3.9361,4.0013,4.0329,4.0505,4.0505,4.036,3.9722,3.853,3.8346,3.7646,3.6299,3.5745,3.5352,3.5014,3.3976,3.2868,3.1695,2.9854,0.0,0.0,0.0,0.0,0.0,0.0,0.0,0.0,0.0,2.2567,2.2804,0.0,2.5003,0.0,2.5126,2.5652,2.5801,2.6216,0.0,0.0,2.7489,2.822,2.9352,2.9474,2.997,3.1259,3.151,3.1833,3.2411,3.2982,3.3454,3.3783,3.2975,3.2601,3.3325,3.4022,3.4553,3.486,3.5808,3.6514,3.6233,3.6185,3.618,3.618,3.6168,3.623,3.6368,3.6405,3.6405,3.6405,3.6405,3.6405,3.6405,3.6193,3.5929,3.5479,3.5135,3.4788,3.4594,3.4593,3.4652,5.5797,5.4921,5.4737,5.2951,5.0265,5.0034,4.9555,4.8928,4.8949,4.8623,4.7961,4.6374,4.5158,4.423,4.3922,4.3911,4.4149,4.4735,4.4944,4.4899,4.6103,4.6452,4.614,4.6528,4.6399,4.5794,4.5611,4.4999,4.4056,4.3294,4.2774,4.2497,4.1793,4.1036,4.0346,4.0061,4.0276,4.0953,4.0676,4.0505,4.0505,4.0505,3.9876,3.8569,3.8508,3.7861,3.6546,3.6153,3.5937,3.593,3.5191,3.4169,3.2814,3.1579,3.0113,0.0,0.0,0.0,0.0,0.0,0.0,0.0,0.0,0.0,0.0,0.0,2.687,0.0,2.7384,0.0,2.7392,2.7889,2.8316,2.8621,2.8943,2.9605,3.0727,3.0857,3.1311,3.248,3.26,3.2819,3.3388,3.3989,3.445,3.4774,3.4382,3.4188,3.4603,3.5342,3.5819,3.5832,3.6533,3.6968,3.664,3.6476,3.6405,3.6405,3.6405,3.6405,3.6405,3.6405,3.6405,3.6405,3.6405,3.6405,3.6393,3.6275,3.6146,3.5979,3.5764,3.544,3.5054,3.4884,3.4799,5.7421,5.6617,5.6329,5.6133,5.5876,5.3847,5.2857,5.2646,5.1874,5.144,5.1155,4.9422,4.8206,4.74,4.6986,4.7034,4.7412,4.7339,4.7564,4.8035,4.7978,4.7895,4.7781,4.7431,4.7303,4.7388,4.6974,4.6485,4.5951,4.5139,4.4446,4.3821,4.3196,4.2848,4.2817,4.1537,4.1085,4.1423,4.083,4.0505,4.0505,4.0505,3.9876,3.8592,3.8438,3.773,3.6453,3.6299,3.6238,3.6238,3.6245,3.5315,3.3365,3.3214,3.2001,0.0,2.9236,0.0,0.0,0.0,0.0,0.0,0.0,0.0,0.0,2.7576,2.8617,2.9485,2.9963,3.0014,2.9563,2.9997,3.0309,3.0318,3.0397,3.0857,3.1876,3.2032,3.246,3.3561,3.3692,3.3885,3.4319,3.492,3.5312,3.5417,3.5798,3.6046,3.6137,3.6538,3.6776,3.6447,3.6819,3.705,3.6699,3.6511,3.6452,3.644,3.6417,3.6405,3.6405,3.6405,3.6405,3.6405,3.6405,3.6405,3.6405,3.6393,3.6335,3.6098,3.5991,3.5788,3.532,3.5017,3.4848,5.7739,5.7389,5.6542,5.6124,5.5936,5.5352,5.5014,5.4812,5.466,5.3816,5.2462,5.1249,5.0314,4.9569,4.9165,4.9037,4.913,4.9373,4.9259,4.8913,4.9445,4.9418,4.8935,4.9042,4.8754,4.8135,4.7836,4.7306,4.6457,4.574,4.5361,4.5207,4.456,4.4221,4.4181,0.0,0.0,0.0,4.0575,4.0505,4.0505,4.0505,3.9876,3.853,3.7946,0.0,3.5753,3.5168,3.4867,3.4867,3.4867,0.0,0.0,0.0,0.0,0.0,0.0,0.0,0.0,0.0,0.0,0.0,3.2053,3.1035,2.9934,3.0324,3.0727,3.0902,3.0876,3.08,3.0704,3.1164,3.1474,3.1501,3.1905,3.2489,3.3169,3.3257,3.3545,3.4162,3.4241,3.4267,3.4424,3.492,3.5443,3.5835,3.6451,3.6989,3.7361,3.716,3.6966,3.6891,3.7203,3.7375,3.732,3.6898,3.6603,3.6615,3.6499,3.6405,3.6405,3.6405,3.6405,3.6405,3.6405,3.6405,3.6405,3.6405,3.6381,3.6322,3.6146,3.5824,3.532,3.5151,3.5078,5.8393,0.0,5.7612,5.7276,0.0,5.6924,5.6754,5.6572,5.5845,5.5075,5.4229,5.3229,5.2537,5.2033,5.1388,5.1184,5.1316,5.151,5.1294,5.0839,5.1114,5.0823,5.0016,4.9842,4.9594,4.9288,4.8751,4.8128,4.7436,4.6867,4.6419,4.609,4.5422,4.5083,4.5053,4.4107,4.2774,4.1045,4.1054,4.0852,4.0513,4.0505,3.9867,3.8561,0.0,0.0,0.0,0.0,0.0,0.0,0.0,0.0,0.0,0.0,0.0,3.3765,3.3958,3.4189,3.4372,3.4264,3.453,3.5327,3.5267,3.4258,3.2221,3.2118,3.2232,3.2336,3.2484,3.2431,3.2035,3.2479,3.2797,3.2725,3.296,3.3352,3.3885,3.3979,3.4094,3.4319,3.4387,3.4387,3.4387,3.492,3.5365,3.5678,3.6201,3.666,3.6985,3.7299,3.7421,3.7285,3.7353,3.7413,3.7132,3.6922,3.665,3.657,3.6476,3.6405,3.6405,3.6405,3.6405,3.6405,3.6405,3.6405,3.6405,3.6405,3.6405,3.6393,3.6312,3.6027,3.5536,3.5296,3.5102,5.8987,5.8927,5.8631,5.8481,5.8419,5.8045,5.79,5.7789,0.0,0.0,0.0,5.4907,5.4403,5.4195,5.3407,5.3183,5.3447,5.341,5.3231,5.2907,5.2572,5.1963,5.1166,5.0427,5.0148,5.0236,4.9503,4.891,4.84,4.7903,4.7342,4.6767,4.608,4.572,4.5545,4.4375,4.3113,4.1832,4.1516,4.1054,4.036,4.032,3.9753,3.8539,3.8385,3.7769,3.6546,3.6276,3.6153,3.6145,3.6245,3.6091,3.5568,3.6238,3.636,3.5707,3.6289,3.6646,3.657,3.6471,3.6638,3.7233,3.737,3.6552,3.4316,3.3832,3.3719,3.3829,3.4183,3.4113,3.3456,3.3813,3.4013,3.3846,3.3815,3.3989,3.4319,3.4387,3.4361,3.4387,3.4387,3.4387,3.4424,3.492,3.5297,3.5365,3.5798,3.6096,3.6216,3.7011,3.7544,3.7384,3.7468,3.7436,3.7062,3.6884,3.6744,3.6617,3.6511,3.644,3.6405,3.6405,3.6405,3.6405,3.6405,3.6405,3.6405,3.6405,3.6405,3.6405,3.6393,3.6239,3.58,3.5464,3.5175,5.8944,5.8831,5.8596,5.841,5.8207,5.7991,5.79,5.7832,5.7002,5.6664,5.6587,5.5657,5.5232,5.5196,5.4899,5.4791,5.4828,5.464,5.4457,0.0,5.325,5.2674,5.2316,5.1262,5.0567,5.0214,4.9931,4.9491,4.8901,4.8252,4.7749,4.7424,4.6788,4.6182,4.5597,4.4837,4.3812,4.247,4.1261,4.0329,3.9652,3.963,3.9291,3.853,3.7954,3.7277,3.6546,3.5452,3.4767,3.4775,3.5329,3.5599,3.5568,3.6699,3.733,3.7214,3.7821,3.8362,3.8708,3.8735,3.8818,3.8984,3.8743,3.8119,3.713,3.6286,3.5804,3.5645,3.5389,3.5119,3.4846,3.4852,3.4813,3.4655,3.4614,3.4584,3.4449,3.4397,3.4387,3.4387,3.4387,3.4387,3.445,3.4894,3.5244,3.5338,3.56,3.6044,3.6096,3.6698,3.7078,3.7138,3.7518,3.7756,3.7479,3.7505,3.7159,3.7038,3.6717,3.6467,3.6291,3.6267,3.6267,3.6393,3.6343,3.6368,3.6393,3.6405,3.6405,3.6405,3.6405,3.6287,3.5955,3.5692,3.5368,5.9323,5.8796,5.8578,5.8393,5.8171,5.8006,5.79,5.7866,5.7543,5.7383,5.7297,5.654,5.6167,5.6091,5.5631,5.56,5.587,5.5764,5.5499,5.5085,5.459,5.3719,5.2616,5.1963,5.1269,5.0576,5.0214,4.992,4.96,4.8988,4.8642,4.8437,4.7257,4.6284,4.5597,4.4929,4.3944,4.2614,4.1977,4.0953,3.9529,3.949,3.9168,3.85,3.8192,3.7923,3.7576,3.7007,3.6669,3.6677,3.6946,3.7123,3.7161,3.8046,3.8584,3.8592,3.9199,3.9688,3.9871,3.9901,3.9856,3.972,3.9553,3.9228,3.8603,3.7615,3.6891,3.6567,3.6171,3.5797,3.5447,3.5341,3.5188,3.4983,3.4869,3.4746,3.4632,3.447,3.4397,3.4387,3.4387,3.4387,3.4387,3.4643,3.4826,3.4842,3.5077,3.5182,3.5197,3.5704,3.6201,3.6462,3.675,3.6828,3.6779,3.6667,3.6441,3.6086,3.5926,3.5755,3.5548,3.549,3.5604,3.5855,3.5906,3.6068,3.6292,3.6405,3.6405,3.6405,3.6405,3.63,3.6039,3.5692,3.5271,5.9615,5.8735,5.8561,5.8366,5.8117,5.7954,5.79,5.79,5.79,5.79,5.7789,5.7315,5.7036,5.7002,5.6452,5.643,5.6785,5.6819,5.6545,5.6074,5.5832,5.4849,5.3333,5.2718,5.2005,5.1211,5.0621,5.0312,5.0165,4.9681,4.9382,4.9095,4.7605,4.649,4.5813,4.5145,4.4181,4.291,4.2826,4.1731,3.9591,3.949,3.9261,3.8777,3.8707,3.8746,3.8707,3.8592,3.8508,3.85,3.8653,3.8746,3.8777,3.9344,3.9714,3.9775,4.0206,4.0505,4.0505,4.0487,4.034,4.0077,3.9993,3.9785,3.9427,3.8482,3.7672,3.725,3.6801,3.6338,3.5938,3.5686,3.548,3.5369,3.5036,3.4918,3.4945,3.4622,3.4387,3.4387,3.4387,3.4387,3.4387,3.4387,3.4424,3.445,3.4387,3.4387,3.445,3.4842,3.526,3.5626,3.5913,3.6109,3.5885,3.5915,3.5753,3.5242,3.5215,3.5131,3.4903,3.4753,3.4842,3.5269,3.5458,3.5682,3.6093,3.6318,3.6368,3.6405,3.6405,3.6287,3.5943,3.562,3.5199,5.9571,5.862,5.8508,5.8286,5.7936,5.79,5.79,5.79,5.79,5.79,5.7891,5.7832,5.7755,5.7798,5.7688,5.7679,5.7719,5.7771,5.7625,5.7293,5.6541,5.5834,5.5128,5.3649,5.2617,5.2103,5.1295,5.0685,5.0292,4.9918,4.9563,4.8964,4.8008,4.7157,4.6521,4.5813,4.4837,4.3553,4.3491,4.2211,3.9683,3.949,3.9476,3.9423,3.9406,3.9414,3.9375,3.8838,3.85,3.8561,3.9076,3.9414,3.9476,4.0052,4.0382,4.039,4.0483,4.0505,4.0505,4.0392,4.0336,4.0275,3.9954,3.9741,3.9661,3.9071,3.8416,3.7891,3.7289,3.6772,3.6405,3.6173,3.6089,3.6174,3.5572,3.5189,3.5363,3.4858,3.4387,3.4387,3.4387,3.4387,3.4387,3.4387,3.4387,3.4387,3.4387,3.4387,3.4397,3.4476,3.458,3.4789,3.5365,3.5944,3.5926,3.6053,3.5682,3.5362,3.5302,3.5037,3.4659,3.4552,3.4717,3.4728,3.5093,3.5394,3.5707,3.5981,3.6343,3.6393,3.6358,3.6251,3.5812,3.5596,3.5356,5.994,5.8533,5.8499,5.8286,5.7927,5.79,5.79,5.79,5.79,5.79,5.79,5.79,5.79,5.79,5.79,5.79,5.79,5.79,5.7781,5.7572,5.7177,5.6577,5.5718,5.4939,5.3973,5.2889,5.2295,5.1725,5.087,4.9871,4.9195,4.8882,4.7669,4.7065,4.7096,4.6151,4.5145,4.4221,4.3799,4.2835,4.1423,4.0522,3.9898,3.9529,3.949,3.9683,4.0021,3.9797,3.9691,3.9683,3.9968,4.0074,4.0083,4.036,4.0505,4.0513,4.0931,4.1146,4.1146,4.1124,4.108,4.105,4.0502,4.0104,3.9874,3.9424,3.911,3.8922,3.7911,3.7187,3.7237,3.6872,3.6743,3.7037,3.6558,3.605,3.5827,3.531,3.4816,3.4476,3.4387,3.4387,3.4387,3.4387,3.4387,3.4387,3.4387,3.4387,3.4387,3.4387,3.4387,3.446,3.4842,3.504,3.5119,3.5103,3.4916,3.4547,3.4396,3.4233,3.3939,3.3757,3.3822,3.4162,3.4452,3.4904,3.5444,3.5656,3.5931,3.618,3.6369,3.6264,3.5716,3.5608,3.5392,6.0309,5.8858,5.8461,5.8187,5.79,5.79,5.79,5.79,5.79,5.79,5.79,5.79,5.79,5.79,5.79,5.79,5.79,5.79,5.7818,5.7689,5.768,5.7202,5.6374,5.5936,5.515,5.4027,5.3526,5.2768,5.1647,5.0119,4.9154,4.8693,4.7574,4.7094,4.7157,4.6151,4.5351,4.4858,4.4221,4.3544,4.2817,4.1894,4.0953,4.0192,4.0061,4.0206,4.0474,4.0505,4.0505,4.0505,4.0505,4.0505,4.0505,4.0505,4.0575,4.0821,4.13,4.1678,4.1854,4.1863,4.1801,4.1577,4.1164,4.0773,4.0354,4.0019,3.9934,3.9937,3.8794,3.8132,3.8116,3.7704,3.7621,3.8023,3.7455,3.6829,3.6503,3.5864,3.5199,3.4732,3.4528,3.4387,3.4387,3.4387,3.4387,3.4387,3.4387,3.4387,3.4387,3.4387,3.4387,3.4387,3.4424,3.4424,3.4387,3.4502,3.4199,3.3958,3.3866,3.369,3.324,3.3165,3.314,3.3682,3.3746,3.4048,3.4689,3.5029,3.5469,3.5956,3.6244,3.6191,3.5716,3.5632,3.538,6.0627,5.9438,5.8377,5.7927,5.79,5.79,5.79,5.79,5.79,5.79,5.79,5.79,5.79,5.79,5.79,5.79,5.79,5.79,5.7891,5.7863,5.7872,5.7738,5.7459,5.6612,5.6016,5.5555,5.4819,5.3658,5.2169,5.0964,4.9687,4.8396,4.8022,4.7491,4.6787,4.6059,4.5597,4.5443,4.4816,4.4231,4.3645,4.3461,4.2743,4.1648,4.1494,4.1168,4.0667,4.0536,4.0505,4.0505,4.0505,4.0505,4.0505,4.0513,4.0869,4.1423,4.1626,4.1925,4.2479,4.2562,4.2316,4.1836,4.1974,4.1827,4.1043,4.0907,4.0852,4.0752,4.0051,3.9476,3.9228,3.8741,3.854,3.8695,3.8003,3.7612,3.7549,3.64,3.5621,3.5182,3.4711,3.4424,3.4387,3.4387,3.4387,3.4387,3.4387,3.4387,3.4387,3.4387,3.4387,3.4387,3.4387,3.4387,3.4387,3.4387,3.4293,3.4063,3.381,3.362,3.3418,3.3251,3.3205,3.3241,3.3531,3.3796,3.4022,3.4413,3.4993,3.5517,3.6018,3.597,3.568,3.5632,3.538,6.0344,5.8848,5.819,5.79,5.79,5.79,5.79,5.79,5.79,5.79,5.79,5.79,5.79,5.79,5.79,5.79,5.79,5.79,5.79,5.79,5.79,5.7854,5.7738,5.7294,5.6795,5.6249,5.5797,5.4485,5.241,5.1042,4.9894,4.8985,4.829,4.7718,4.7198,4.6582,4.6059,4.5566,4.4929,4.4477,4.4252,4.4231,4.379,4.2928,4.2448,4.2131,4.1845,4.1454,4.1208,4.1208,4.0768,4.0505,4.0536,4.0953,4.13,4.1648,4.2395,4.2989,4.3205,4.3227,4.3143,4.2897,4.2609,4.2294,4.175,4.1443,4.1305,4.1254,4.0817,4.0508,4.059,3.9926,3.9445,3.96,3.9076,3.8379,3.778,3.71,3.6395,3.5481,3.4763,3.4424,3.4397,3.4387,3.4387,3.4387,3.4387,3.4387,3.4387,3.4387,3.4387,3.4387,3.4387,3.4387,3.4387,3.4387,3.4314,3.4094,3.3873,3.3666,3.3454,3.3312,3.3233,3.3151,3.3406,3.3581,3.3782,3.4438,3.4917,3.5294,3.5794,3.5982,3.5618,3.5608,3.5356,6.0127,5.8575,5.8117,5.7954,5.79,5.79,5.79,5.79,5.79,5.79,5.79,5.79,5.79,5.79,5.79,5.79,5.79,5.79,5.79,5.79,5.79,5.79,5.7881,5.7753,5.7453,5.6926,5.642,5.5206,5.3408,5.1723,5.042,4.9441,4.8545,4.7943,4.7547,4.6942,4.6357,4.5874,4.5268,4.4837,4.4652,4.4591,4.4375,4.3944,4.3473,4.3033,4.2623,4.2162,4.1916,4.1823,4.123,4.0768,4.0597,4.1208,4.1709,4.1986,4.2959,4.3716,4.3892,4.3932,4.383,4.3615,4.3337,4.2946,4.2397,4.2084,4.1989,4.1902,4.1567,4.1402,4.1501,4.0912,4.0372,4.0378,3.9897,3.9173,3.8304,3.777,3.6825,3.5597,3.4972,3.4669,3.4434,3.4397,3.4387,3.4387,3.4387,3.4387,3.4387,3.4387,3.4387,3.4387,3.4387,3.4387,3.4397,3.4424,3.445,3.4261,3.4278,3.3956,3.367,3.3517,3.333,3.3187,3.319,3.333,3.3721,3.4413,3.4867,3.5207,3.5708,3.6054,3.5809,3.562,3.532,6.002,5.8584,5.8294,5.8054,5.7909,5.79,5.79,5.79,5.79,5.79,5.79,5.79,5.79,5.79,5.79,5.79,5.79,5.79,5.79,5.79,5.79,5.79,5.7891,5.7881,5.7863,5.7701,5.6753,5.5912,5.4975,5.3139,5.1438,4.9897,4.8923,4.827,4.765,4.7055,4.6644,4.6398,4.5844,4.5268,4.4683,4.4622,4.456,4.4539,4.4468,4.3904,4.2756,4.2663,4.2593,4.254,4.1946,4.1269,4.0861,4.1331,4.1916,4.2602,4.3267,4.3923,4.4437,4.4539,4.4231,4.3873,4.398,4.38,4.3158,4.2899,4.2782,4.257,4.2243,4.2042,4.197,4.158,4.1099,4.0741,4.0224,3.9695,3.9156,3.832,3.7095,3.5734,3.526,3.5025,3.458,3.4387,3.4387,3.4387,3.4387,3.4387,3.4387,3.4387,3.4387,3.4408,3.4502,3.4633,3.4528,3.4424,3.4486,3.4512,3.4612,3.451,3.4182,3.3976,3.3777,3.3625,3.3391,3.3506,3.338,3.4011,3.4628,3.5068,3.5597,3.6004,3.5809,3.556,3.532,6.0011,5.855,5.826,5.8072,5.7909,5.79,5.79,5.79,5.79,5.79,5.79,5.79,5.79,5.79,5.79,5.79,5.79,5.79,5.79,5.79,5.79,5.79,5.79,5.79,5.79,5.7775,5.7111,5.6241,5.5258,5.4062,5.2681,5.12,5.0131,4.9222,4.8276,4.7619,4.7096,4.6552,4.5936,4.5474,4.5237,4.4837,4.4591,4.4591,4.4591,4.4375,4.4006,4.3544,4.3297,4.3276,4.2672,4.2162,4.2039,4.2171,4.2611,4.3227,4.3923,4.4354,4.4539,4.4591,4.4529,4.4337,4.4308,4.4107,4.3705,4.3229,4.29,4.2698,4.2331,4.2082,4.204,4.1814,4.1399,4.0947,4.0376,3.9821,3.9248,3.8252,3.7074,3.6068,3.5521,3.5051,3.458,3.4387,3.4387,3.4387,3.4387,3.4387,3.4424,3.4424,3.4387,3.4397,3.4659,3.4972,3.5025,3.5129,3.5286,3.5222,3.5215,3.5039,3.4729,3.4525,3.4294,3.3963,3.3754,3.3556,3.3431,3.3796,3.4527,3.4904,3.5369,3.5563,3.5605,3.5488,3.532,6.029,5.9032,5.8504,5.8214,5.8,5.7927,5.79,5.79,5.79,5.79,5.79,5.79,5.79,5.79,5.79,5.79,5.79,5.79,5.79,5.79,5.79,5.79,5.79,5.79,5.7845,5.7717,5.7336,5.6687,5.5802,5.4697,5.351,5.226,5.1205,5.0133,4.9077,4.8604,4.7958,4.7065,4.6573,4.609,4.5628,4.5207,4.4847,4.4662,4.4591,4.4591,4.4569,4.42,4.3984,4.387,4.3328,4.2888,4.2663,4.2817,4.3174,4.3605,4.42,4.4591,4.4591,4.4591,4.4553,4.4467,4.4326,4.4065,4.3714,4.316,4.2819,4.2596,4.2308,4.2051,4.1929,4.1741,4.142,4.1043,4.0591,3.9941,3.9248,3.8405,3.7338,3.64,3.5809,3.5234,3.4633,3.4387,3.4387,3.4387,3.4387,3.4554,3.458,3.4528,3.4607,3.4763,3.5077,3.5365,3.5574,3.5835,3.6138,3.6043,3.5915,3.5565,3.5215,3.511,3.4951,3.4351,3.4008,3.3696,3.3571,3.4262,3.4942,3.5093,3.5207,3.5588,3.58,3.5644,3.5428,6.0725,5.9826,5.8886,5.8375,5.8187,5.7972,5.79,5.79,5.79,5.79,5.79,5.79,5.79,5.79,5.79,5.79,5.79,5.79,5.7872,5.7863,5.7854,5.7845,5.7845,5.7845,5.7744,5.7569,5.7318,5.6982,5.6418,5.5154,5.3992,5.3081,5.1936,5.0868,5.0013,4.9754,4.8943,4.7989,4.7619,4.685,4.5782,4.5576,4.5228,4.4622,4.4591,4.4591,4.456,4.4539,4.4529,4.4498,4.3882,4.3297,4.2971,4.3288,4.3553,4.3716,4.4261,4.4529,4.4591,4.4553,4.4486,4.4345,4.4123,4.3822,4.3458,4.307,4.2729,4.2565,4.2279,4.2051,4.1785,4.1577,4.1325,4.1011,4.0666,4.005,3.9075,3.8661,3.782,3.6599,3.6096,3.5715,3.4669,3.4502,3.4387,3.4387,3.4397,3.4633,3.4946,3.5009,3.514,3.5365,3.5652,3.5913,3.6175,3.653,3.6795,3.6683,3.651,3.6179,3.5836,3.57,3.5293,3.4704,3.4374,3.4011,3.3961,3.4577,3.4867,3.4879,3.5202,3.5787,3.5896,3.568,3.5428,6.0725,5.9826,5.8886,5.8393,5.8205,5.7972,5.79,5.79,5.79,5.79,5.79,5.79,5.7881,5.7891,5.7891,5.79,5.7872,5.7881,5.7799,5.7698,5.768,5.768,5.768,5.768,5.7578,5.7355,5.7044,5.6728,5.6418,5.5385,5.4523,5.384,5.2656,5.18,5.1163,5.0215,4.9579,4.9046,4.805,4.725,4.6419,4.5874,4.5268,4.4652,4.4622,4.4622,4.4591,4.4591,4.4591,4.4539,4.3953,4.3769,4.3935,4.3799,4.383,4.4221,4.4437,4.4591,4.4562,4.4458,4.4343,4.4287,4.3988,4.3734,4.3606,4.318,4.294,4.2789,4.2526,4.2197,4.1941,4.1692,4.1357,4.0827,4.0397,3.9799,3.8969,3.8598,3.8103,3.6981,3.6384,3.5772,3.5182,3.4659,3.445,3.445,3.4502,3.4711,3.5244,3.5349,3.5417,3.594,3.6268,3.653,3.6817,3.7209,3.7379,3.7289,3.7094,3.6821,3.65,3.6305,3.564,3.4876,3.4954,3.4728,3.4502,3.4703,3.4703,3.4853,3.5462,3.6058,3.5811,3.5584,3.5332,6.1009,6.0138,5.9231,5.8585,5.8196,5.7972,5.79,5.79,5.79,5.79,5.7881,5.779,5.7772,5.7763,5.768,5.7652,5.7652,5.7643,5.7578,5.7504,5.7476,5.742,5.7402,5.7476,5.742,5.7053,5.6815,5.6486,5.6053,5.5399,5.4686,5.3933,5.3188,5.2463,5.1654,5.1005,5.0215,4.9672,4.883,4.805,4.7065,4.6665,4.6121,4.5576,4.5422,4.5361,4.5083,4.4754,4.46,4.4508,4.4261,4.419,4.4498,4.4261,4.42,4.4591,4.4591,4.4553,4.4467,4.4352,4.4239,4.4065,4.3793,4.3616,4.3389,4.3111,4.2961,4.2708,4.2525,4.2207,4.1783,4.1417,4.0848,4.0191,3.9854,3.9413,3.8778,3.867,3.8096,3.7232,3.6488,3.5903,3.5365,3.4789,3.4643,3.4722,3.4852,3.5323,3.5861,3.5757,3.5913,3.6541,3.6769,3.6903,3.7059,3.7389,3.7341,3.7312,3.7106,3.6957,3.6793,3.6568,3.6009,3.5392,3.5469,3.5382,3.5018,3.4853,3.5104,3.5408,3.5936,3.5985,3.574,3.5488,3.5211,6.1298,6.064,5.9595,5.8808,5.8221,5.8015,5.79,5.7891,5.7854,5.7845,5.7808,5.7643,5.7578,5.7551,5.743,5.7327,5.7336,5.7374,5.7318,5.728,5.7252,5.7176,5.7053,5.7327,5.7167,5.6738,5.6632,5.6231,5.5703,5.5227,5.4528,5.3814,5.3456,5.2814,5.2037,5.1671,5.0985,5.0062,4.9631,4.8768,4.7742,4.7363,4.7004,4.6429,4.6151,4.5936,4.5474,4.4981,4.4591,4.4591,4.4591,4.456,4.4591,4.4591,4.4591,4.4591,4.4581,4.4515,4.4354,4.4287,4.4114,4.3802,4.3725,4.3508,4.32,4.3031,4.291,4.2627,4.2423,4.2011,4.1385,4.0748,4.0165,3.959,3.9363,3.9147,3.8875,3.8666,3.8175,3.7221,3.6567,3.5903,3.5495,3.4999,3.4711,3.5297,3.5428,3.5783,3.6227,3.6332,3.675,3.7429,3.7436,3.7186,3.7332,3.7477,3.7292,3.7094,3.6849,3.6687,3.6593,3.6402,3.6153,3.5931,3.5894,3.5581,3.5082,3.5143,3.5483,3.5552,3.5783,3.5759,3.562,3.5404,3.5151,6.0863,6.0572,5.9069,5.835,5.8187,5.7981,5.79,5.7891,5.7726,5.768,5.7615,5.7448,5.7374,5.7364,5.7299,5.7308,5.7271,5.7261,5.7233,5.7063,5.7063,5.6939,5.6844,5.7044,5.6882,5.6509,5.6083,5.5731,5.5348,5.4717,5.4114,5.3705,5.3301,5.2938,5.2485,5.1959,5.1344,5.0523,5.0,4.9076,4.8019,4.7671,4.7373,4.6767,4.6213,4.5844,4.5536,4.496,4.4631,4.4591,4.4622,4.4652,4.4591,4.4591,4.4591,4.4591,4.4591,4.4505,4.4335,4.4152,4.3968,4.3704,4.3518,4.3329,4.327,4.3061,4.2961,4.2779,4.2393,4.1765,4.0965,4.0386,3.9848,3.9358,3.908,3.8796,3.8474,3.8327,3.8088,3.7599,3.6802,3.6227,3.6477,3.56,3.5495,3.5835,3.607,3.6279,3.6556,3.6843,3.7287,3.7874,3.7784,3.7472,3.7264,3.7308,3.705,3.6898,3.665,3.6535,3.644,3.6393,3.623,3.6205,3.6256,3.5855,3.5406,3.5585,3.5961,3.5808,3.5618,3.5544,3.5476,3.5284,3.5102,6.0755,6.0313,5.9099,5.8375,5.8061,5.7936,5.79,5.7854,5.768,5.7597,5.7532,5.7299,5.7167,5.7148,5.7063,5.7015,5.7015,5.7015,5.6968,5.6863,5.6844,5.6796,5.6728,5.6757,5.6674,5.6264,5.5894,5.5448,5.4905,5.438,5.3888,5.3452,5.3177,5.2966,5.2751,5.2318,5.1836,5.119,5.0513,4.9631,4.8727,4.8194,4.7978,4.7496,4.6911,4.6542,4.6521,4.5895,4.5443,4.5176,4.5074,4.4889,4.4652,4.4591,4.4591,4.4591,4.4591,4.4429,4.422,4.4055,4.3871,4.3547,4.3389,4.3319,4.326,4.313,4.2941,4.2779,4.2301,4.1619,4.0617,3.9974,3.9491,3.9063,3.8744,3.8413,3.8145,3.8133,3.8137,3.7785,3.7116,3.6828,3.6567,3.6123,3.6149,3.6436,3.6541,3.6776,3.722,3.7456,3.7523,3.7836,3.7874,3.7698,3.7303,3.7076,3.6781,3.6652,3.6523,3.6452,3.6417,3.6405,3.6393,3.6393,3.6368,3.6306,3.5994,3.6223,3.6167,3.5914,3.5688,3.5499,3.532,3.5102,3.4969,6.0646,5.9868,5.9167,5.8457,5.7958,5.79,5.79,5.7863,5.7652,5.7532,5.7476,5.7139,5.6958,5.692,5.6796,5.6709,5.6709,5.6719,5.6738,5.6728,5.6728,5.668,5.6641,5.6593,5.646,5.6066,5.5764,5.5246,5.4644,5.4114,5.3693,5.3221,5.3064,5.2888,5.2721,5.2687,5.2298,5.159,5.1097,5.0513,4.9784,4.9127,4.8717,4.8317,4.7763,4.7424,4.725,4.6788,4.6305,4.5823,4.5751,4.5443,4.5053,4.4776,4.4745,4.4766,4.4799,4.4527,4.4134,4.3958,4.3763,4.3329,4.329,4.329,4.326,4.313,4.294,4.2587,4.2127,4.1307,4.0337,3.9744,3.9136,3.8681,3.8338,3.8111,3.7965,3.8068,3.8023,3.7879,3.7351,3.7,3.6933,3.6671,3.6828,3.6959,3.7063,3.7258,3.7676,3.79,3.7874,3.7836,3.7874,3.7655,3.7285,3.6875,3.6593,3.6523,3.6417,3.6405,3.6405,3.6405,3.6405,3.6405,3.6393,3.6331,3.626,3.6167,3.6061,3.5908,3.5656,3.5356,3.5114,3.4945,3.486,5.9868,5.9124,5.8389,5.7992,5.7891,5.79,5.79,5.7836,5.7514,5.7355,5.7308,5.693,5.6757,5.6771,5.6728,5.669,5.669,5.669,5.669,5.669,5.667,5.6612,5.6486,5.6431,5.6225,5.5876,5.5542,5.5122,5.4602,5.3963,5.3498,5.3268,5.2955,5.2721,5.2709,5.2656,5.2421,5.1898,5.1559,5.1097,5.0513,4.9774,4.9158,4.8717,4.8081,4.7742,4.7527,4.7034,4.6542,4.6449,4.6419,4.6357,4.6059,4.5659,4.5443,4.5322,4.5185,4.4797,4.4137,4.3832,4.3626,4.3369,4.329,4.329,4.326,4.311,4.287,4.2414,4.1694,4.0788,3.9848,3.9424,3.898,3.8496,3.8224,3.8114,3.7969,3.7946,3.7954,3.7859,3.7456,3.7157,3.7194,3.722,3.7273,3.7377,3.7482,3.7571,3.7781,3.7911,3.79,3.7874,3.79,3.7575,3.7215,3.6781,3.6464,3.6464,3.6405,3.6405,3.6405,3.6405,3.6405,3.6405,3.6405,3.6393,3.6287,3.6146,3.5943,3.5752,3.5464,3.5114,3.4981,3.486,3.4848,5.9317,5.8921,5.8186,5.79,5.79,5.79,5.79,5.7836,5.7486,5.7308,5.7186,5.6891,5.669,5.669,5.669,5.669,5.669,5.669,5.669,5.668,5.6583,5.6496,5.632,5.6172,5.5874,5.5574,5.5236,5.4915,5.4528,5.3791,5.3388,5.3177,5.2886,5.2718,5.2718,5.2687,5.2533,5.2194,5.1887,5.1559,5.1128,5.0277,4.9507,4.9107,4.8512,4.8173,4.804,4.7896,4.7465,4.7219,4.7127,4.6942,4.6603,4.6326,4.5936,4.5651,4.5402,4.4931,4.4169,4.3802,4.3587,4.3339,4.329,4.329,4.325,4.309,4.2729,4.2013,4.1265,4.0326,3.9541,3.9158,3.8711,3.8327,3.8111,3.8,3.7934,3.7911,3.7911,3.7911,3.7717,3.7586,3.7691,3.7691,3.7691,3.7769,3.7874,3.7911,3.7911,3.7911,3.79,3.7865,3.7831,3.7517,3.7192,3.6816,3.6464,3.6417,3.6405,3.6405,3.6405,3.6405,3.6405,3.6405,3.6405,3.6405,3.6239,3.6061,3.5848,3.5584,3.5271,3.4981,3.4872,3.4799,3.4762,5.8921,5.8718,5.8161,5.79,5.79,5.79,5.79,5.7818,5.7523,5.7355,5.7261,5.6939,5.6738,5.6699,5.669,5.669,5.669,5.669,5.669,5.6651,5.6496,5.6369,5.6142,5.5864,5.5491,5.5112,5.4811,5.456,5.4348,5.3737,5.3365,5.3144,5.2877,5.2718,5.2718,5.2718,5.2718,5.2533,5.2225,5.1898,5.1436,5.0585,4.9826,4.9641,4.9004,4.8563,4.8491,4.844,4.8194,4.7917,4.7732,4.7517,4.6922,4.6779,4.6369,4.5694,4.5364,4.4762,4.4131,4.3724,4.3498,4.3309,4.33,4.329,4.32,4.296,4.2475,4.1514,4.0709,3.9979,3.9314,3.8789,3.844,3.8205,3.8,3.7911,3.7911,3.7911,3.7911,3.7911,3.7911,3.79,3.7874,3.7874,3.7795,3.7795,3.7911,3.7911,3.7911,3.7911,3.7888,3.7831,3.769,3.7447,3.7169,3.6898,3.6593,3.6417,3.6405,3.6405,3.6405,3.6405,3.6405,3.6405,3.6405,3.6369,3.6192,3.6002,3.5776,3.5476,3.5114,3.4872,3.4811,3.4702,3.4628,5.8616,5.8026,5.7934,5.79,5.79,5.79,5.79,5.7872,5.7652,5.7458,5.7289,5.7063,5.6853,5.6728,5.669,5.669,5.669,5.669,5.668,5.6622,5.6437,5.6152,5.5814,5.5562,5.5071,5.4654,5.4306,5.4285,5.4125,5.365,5.3388,5.3223,5.2911,5.2718,5.2718,5.2718,5.2718,5.2687,5.2595,5.2287,5.1713,5.0974,5.0339,4.9723,4.9097,4.8553,4.8522,4.846,4.8378,4.8378,4.8378,4.8101,4.7589,4.7303,4.6507,4.5703,4.5066,4.4636,4.3874,4.3547,4.3409,4.3309,4.33,4.329,4.311,4.2698,4.2127,4.149,4.058,3.981,3.9161,3.858,3.8217,3.8139,3.8091,3.8031,3.7978,3.7911,3.7911,3.7911,3.7911,3.7911,3.79,3.79,3.79,3.79,3.7911,3.7911,3.7911,3.7911,3.7831,3.7762,3.7621,3.739,3.7085,3.684,3.6652,3.644,3.6405,3.6405,3.6405,3.6405,3.6405,3.6405,3.6393,3.6346,3.6192,3.5991,3.5716,3.5392,3.5029,3.486,3.4787,3.4653,3.4445,5.8195,5.79,5.79,5.79,5.79,5.79,5.79,5.7854,5.768,5.7486,5.7289,5.7091,5.6891,5.6719,5.669,5.669,5.669,5.669,5.6622,5.6496,5.6323,5.5996,5.5511,5.5071,5.457,5.4253,5.3889,5.3737,5.3672,5.3507,5.3221,5.3177,5.2888,5.2718,5.2718,5.2718,5.2718,5.2687,5.2687,5.2564,5.2164,5.159,5.0924,5.0277,4.9528,4.882,4.8224,4.804,4.804,4.804,4.804,4.764,4.7058,4.6661,4.6071,4.4586,4.4658,4.4407,4.3796,4.3478,4.3389,4.3319,4.33,4.319,4.291,4.2373,4.1723,4.1068,4.024,3.9595,3.9205,3.8895,3.8871,3.874,3.8463,3.8333,3.824,3.7952,3.7911,3.7911,3.7911,3.7911,3.7911,3.7911,3.7911,3.7911,3.7911,3.7911,3.7911,3.7911,3.7796,3.7632,3.7505,3.7329,3.7027,3.6732,3.6629,3.6464,3.6405,3.6405,3.6405,3.6405,3.6381,3.6381,3.6393,3.631,3.6168,3.5931,3.5608,3.5296,3.4945,3.4702,3.4493,3.4406,3.4244,5.79,5.79,5.79,5.79,5.79,5.79,5.79,5.7881,5.7744,5.7532,5.728,5.7034,5.6824,5.6719,5.669,5.669,5.669,5.669,5.6564,5.6411,5.6155,5.5816,5.5297,5.4738,5.4263,5.3942,5.352,5.3323,5.3179,5.3089,5.3042,5.3086,5.2833,5.274,5.2718,5.2718,5.2718,5.2676,5.2471,5.2379,5.2194,5.1487,5.0913,5.0339,4.9723,4.8861,4.7835,4.765,4.765,4.7342,4.7578,4.722,4.6293,4.6132,4.5474,4.4347,4.4258,4.4369,4.4078,4.3878,4.3708,4.3559,4.323,4.304,4.2607,4.2013,4.1293,4.0591,3.9837,3.9397,3.9154,3.896,3.8988,3.8993,3.9012,3.8881,3.8672,3.8318,3.8004,3.7911,3.7911,3.7911,3.7911,3.7911,3.7911,3.7911,3.7911,3.7911,3.7911,3.7911,3.7762,3.7586,3.7494,3.7283,3.6933,3.6662,3.6545,3.6487,3.6428,3.6405,3.6405,3.6369,3.6346,3.6346,3.6372,3.6049,3.58,3.5632,3.5476,3.509,3.4702,3.4323,3.4088,3.4009,3.3977,5.79,5.79,5.79,5.79,5.79,5.79,5.79,5.79,5.7872,5.7643,5.7271,5.692,5.6728,5.669,5.669,5.669,5.669,5.669,5.6544,5.6359,5.6155,5.5726,5.5143,5.4581,5.4071,5.3542,5.3233,5.2989,5.2833,5.2833,5.293,5.3042,5.2819,5.274,5.2718,5.2718,5.2718,5.2595,5.2318,5.1959,5.159,5.0882,5.0123,4.9784,4.9107,4.8348,4.7681,4.7619,4.7342,4.688,4.7219,4.6924,4.5958,4.595,4.5253,4.4419,4.4398,4.4506,4.4316,4.4466,4.4646,4.4156,4.3477,4.2789,4.232,4.1762,4.1008,4.0176,3.9517,3.9018,3.8743,3.8594,3.9109,3.9349,3.947,3.9169,3.8907,3.8542,3.8266,3.8004,3.7911,3.7911,3.7911,3.7911,3.7911,3.7911,3.7911,3.7911,3.7911,3.7888,3.769,3.7563,3.7494,3.7236,3.6828,3.6629,3.6535,3.6464,3.6417,3.6405,3.6405,3.6358,3.6334,3.6307,3.6286,3.5839,3.5502,3.5539,3.5367,3.4882,3.4444,3.4051,3.3817,3.3741,3.3627,5.79,5.79,5.79,5.79,5.79,5.79,5.79,5.79,5.7891,5.7671,5.7271,5.6891,5.669,5.669,5.669,5.669,5.669,5.669,5.6496,5.6303,5.6056,5.5625,5.5031,5.4454,5.3921,5.341,5.3066,5.281,5.2751,5.2718,5.2751,5.2796,5.2763,5.274,5.2718,5.2718,5.2718,5.2656,5.241,5.2133,5.1621,5.1282,5.0554,4.9661,4.9538,4.8666,4.7835,4.765,4.7188,4.684,4.6891,4.6363,4.5787,4.586,4.5344,4.4547,4.4801,4.4816,4.4457,4.4541,4.4305,4.3586,4.2928,4.2393,4.1877,4.1146,4.043,3.9749,3.937,3.9009,3.9304,3.9559,3.9939,4.0045,3.9914,3.9613,3.9259,3.8934,3.8579,3.8344,3.8057,3.7911,3.7911,3.7911,3.7911,3.7911,3.7911,3.7911,3.7911,3.7854,3.7667,3.7459,3.7341,3.7085,3.6676,3.6558,3.6499,3.6502,3.6468,3.6569,3.6619,3.6418,3.636,3.6335,3.6234,3.5905,3.568,3.5575,3.5239,3.4617,3.4154,3.3749,3.3582,3.3452,3.3391,5.7551,5.7541,5.7541,5.768,5.7881,5.79,5.79,5.79,5.79,5.768,5.7271,5.6891,5.669,5.669,5.669,5.669,5.669,5.667,5.6457,5.6303,5.6076,5.5604,5.4958,5.4359,5.3888,5.3377,5.2966,5.2718,5.2718,5.2718,5.2729,5.274,5.2718,5.2718,5.2718,5.2718,5.2718,5.2687,5.241,5.2225,5.1702,5.1298,5.0743,4.9666,4.9429,4.8661,4.7752,4.7354,4.7017,4.6599,4.6365,4.6122,4.5778,4.5506,4.5161,4.4942,4.492,4.5033,4.4515,4.4072,4.3752,4.3281,4.2458,4.1895,4.1283,4.0591,3.9859,3.9319,3.9226,3.9409,3.969,3.9854,4.0214,4.0332,4.0515,4.0292,3.9848,3.9482,3.9076,3.8684,3.8423,3.8187,3.8083,3.8083,3.7952,3.7926,3.79,3.79,3.7911,3.7819,3.7644,3.7413,3.7166,3.6851,3.6499,3.6526,3.6591,3.6856,3.6833,3.6922,3.6922,3.671,3.6559,3.6542,3.6379,3.6037,3.549,3.4886,3.4585,3.4305,3.3808,3.331,3.3303,3.3201,3.3251,5.6757,5.6719,5.6757,5.7195,5.7781,5.7872,5.7845,5.7763,5.7763,5.7588,5.7224,5.6834,5.6641,5.6632,5.6593,5.6603,5.6641,5.6632,5.6538,5.6323,5.6036,5.5635,5.5031,5.4391,5.3812,5.3377,5.2966,5.2718,5.2718,5.2718,5.2718,5.2619,5.2586,5.2661,5.2706,5.2718,5.2718,5.2625,5.2102,5.1854,5.1533,5.098,5.0249,4.9503,4.9212,4.8498,4.7656,4.7351,4.6955,4.6235,4.6123,4.5728,4.4981,4.4921,4.4428,4.3675,4.4,4.4045,4.3761,4.3535,4.3332,4.3153,4.2355,4.1603,4.1036,4.0318,3.9709,3.943,3.9321,3.9172,3.934,3.9756,4.0345,4.0632,4.0841,4.0684,4.0214,3.9822,3.9352,3.8986,3.8803,3.862,3.8437,3.828,3.8045,3.7978,3.7915,3.7915,3.8004,3.7944,3.7822,3.7795,3.7562,3.7252,3.7003,3.668,3.6695,3.6984,3.7187,3.7252,3.7268,3.7158,3.701,3.6818,3.6358,3.5877,3.4896,3.3927,3.3857,3.3781,3.3291,3.2893,3.2907,3.2948,3.298,5.669,5.669,5.669,5.6853,5.7101,5.7101,5.7101,5.7082,5.6987,5.6977,5.6968,5.6568,5.6313,5.6313,5.6353,5.6402,5.649,5.6353,5.6234,5.6175,5.5784,5.537,5.4791,5.4178,5.364,5.3323,5.2955,5.2684,5.2718,5.2673,5.2552,5.2453,5.2359,5.2405,5.2597,5.2718,5.2718,5.2653,5.2276,5.1918,5.1448,5.0953,5.0272,4.9257,4.9129,4.8578,4.771,4.7608,4.7082,4.6193,4.6072,4.5526,4.48,4.465,4.4387,4.4018,4.4326,4.4236,4.3741,4.3327,4.2873,4.2691,4.2324,4.1731,4.1657,4.0868,4.0291,3.9906,3.9791,3.9771,4.0081,4.0554,4.0985,4.0946,4.0946,4.062,4.0228,3.9874,3.9508,3.9273,3.909,3.8646,3.8385,3.862,3.8516,3.8344,3.8333,3.8362,3.8402,3.8307,3.8197,3.832,3.8195,3.7878,3.7583,3.7247,3.7212,3.7527,3.7567,3.7481,3.7494,3.7465,3.7082,3.6702,3.6177,3.5617,3.4621,3.377,3.3492,3.3231,3.2928,3.283,3.2944,3.2874,3.2703,5.6251,5.6251,5.6251,5.6261,5.631,5.6564,5.669,5.6661,5.6486,5.6544,5.6641,5.6271,5.6106,5.6106,5.6116,5.6145,5.6274,5.6086,5.5906,5.5784,5.5287,5.4801,5.4285,5.3737,5.3212,5.2969,5.2721,5.245,5.2529,5.2473,5.2359,5.22,5.2033,5.1995,5.2165,5.2179,5.2435,5.2359,5.2135,5.1968,5.1625,5.1216,5.0694,4.9934,4.9444,4.9016,4.8365,4.7903,4.757,4.6664,4.5978,4.5545,4.496,4.4448,4.4185,4.4014,4.3992,4.382,4.331,4.3203,4.298,4.3107,4.2369,4.1904,4.1741,4.0889,4.0462,4.0224,4.0342,4.0392,4.0501,4.1012,4.1194,4.1155,4.1038,4.0724,4.062,4.0306,4.0228,3.9953,3.9561,3.9012,3.8553,3.8803,3.9012,3.8881,3.8751,3.8808,3.8853,3.8704,3.8582,3.8624,3.8608,3.8235,3.7987,3.7826,3.7865,3.8116,3.7916,3.7665,3.7578,3.7497,3.705,3.6508,3.581,3.5115,3.435,3.3713,3.3247,3.3056,3.2915,3.2929,3.3026,3.2855,3.2612,5.5409,5.5399,5.5399,5.544,5.5562,5.6261,5.6603,5.6622,5.6427,5.633,5.6349,5.6165,5.5996,5.6036,5.6046,5.6056,5.5986,5.5774,5.5562,5.5225,5.4675,5.4179,5.3641,5.3102,5.2768,5.2397,5.22,5.2212,5.2261,5.2132,5.2006,5.1827,5.1656,5.1467,5.1368,5.1482,5.1733,5.1668,5.1714,5.1649,5.1429,5.1488,5.0981,5.04,5.0016,4.9318,4.8658,4.8189,4.7766,4.6995,4.6065,4.5575,4.4926,4.4067,4.3388,4.3053,4.3188,4.3134,4.3156,4.3292,4.3311,4.3347,4.259,4.184,4.1404,4.1137,4.081,4.0567,4.0542,4.0523,4.0606,4.0933,4.1273,4.1247,4.1247,4.1168,4.1168,4.109,4.109,4.0829,4.0423,3.9927,3.9404,3.9456,3.9577,3.9577,3.9503,3.9516,3.9469,3.9189,3.9051,3.8861,3.8764,3.8502,3.834,3.8366,3.8291,3.8451,3.8016,3.7754,3.7663,3.7252,3.6567,3.5871,3.528,3.4588,3.3868,3.3324,3.2877,3.2755,3.2812,3.2812,3.2855,3.2826,3.2627,5.5399,5.5399,5.5399,5.5399,5.543,5.5663,5.5944,5.6182,5.5864,5.5834,5.6175,5.5786,5.5643,5.5582,5.5592,5.5746,5.5625,5.5358,5.5049,5.4622,5.404,5.3565,5.3093,5.2667,5.2397,5.2227,5.2098,5.196,5.2006,5.1845,5.1379,5.1042,5.0946,5.0655,5.0602,5.0658,5.0687,5.0793,5.099,5.1156,5.1238,5.1276,5.0883,5.058,5.0366,4.9591,4.8805,4.8427,4.7878,4.673,4.63,4.5852,4.5214,4.4895,4.4551,4.4095,4.3977,4.3806,4.3942,4.398,4.3874,4.3694,4.3191,4.2909,4.2394,4.1769,4.1331,4.1065,4.0871,4.0852,4.0867,4.1116,4.1299,4.1299,4.1299,4.1299,4.1299,4.1299,4.1273,4.1168,4.0776,4.0475,4.0005,3.9996,4.0103,4.0207,4.0213,4.0159,3.9998,3.9691,3.9454,3.9258,3.9171,3.8969,3.9032,3.908,3.8872,3.8674,3.8131,3.7553,3.7075,3.6565,3.5904,3.5204,3.4533,3.3966,3.3409,3.2969,3.2698,3.2684,3.2727,3.2698,3.2684,3.2641,3.2498,5.5399,5.5399,5.5399,5.5399,5.5399,5.5399,5.5572,5.5733,5.5501,5.5572,5.5786,5.5554,5.5399,5.542,5.542,5.543,5.5442,5.4936,5.4496,5.3954,5.3357,5.2815,5.2419,5.2113,5.1872,5.1803,5.181,5.1683,5.1692,5.1325,5.0849,5.017,5.0055,5.0062,5.0014,5.0119,5.0053,5.0167,5.037,5.0693,5.0913,5.1041,5.0852,5.0656,5.0548,4.9931,4.9134,4.8865,4.8068,4.707,4.682,4.6151,4.556,4.5327,4.4962,4.4501,4.4482,4.4312,4.4309,4.4413,4.417,4.3815,4.3459,4.294,4.2537,4.1967,4.1686,4.1441,4.1358,4.1273,4.1273,4.1299,4.1299,4.1299,4.1299,4.1299,4.1299,4.1299,4.1273,4.1247,4.1012,4.071,4.0555,4.0586,4.0589,4.0567,4.0457,4.0309,4.0184,3.9955,3.9753,3.9588,3.9599,3.9547,3.9594,3.9401,3.8989,3.8496,3.7825,3.7213,3.6594,3.579,3.5019,3.4373,3.3727,3.3324,3.3054,3.2884,3.2684,3.2669,3.2584,3.2498,3.2483,3.2498,3.2277,5.5324,5.5399,5.5399,5.5399,5.5399,5.5399,5.5409,5.5399,5.5399,5.5409,5.543,5.5409,5.5399,5.5399,5.5399,5.5256,5.5019,5.457,5.3964,5.3334,5.2637,5.2124,5.1734,5.1339,5.1451,5.1299,5.1246,5.1349,5.1243,5.09,5.0275,4.9378,4.9901,5.0039,4.9781,5.0009,5.0108,5.0184,5.0585,5.1018,5.0905,5.102,5.1187,5.1056,5.0966,5.0787,5.0159,4.9583,4.9007,4.8098,4.7279,4.648,4.6094,4.5614,4.5115,4.4878,4.5015,4.4733,4.456,4.4527,4.4041,4.3582,4.3058,4.2582,4.2227,4.2018,4.1758,4.1485,4.131,4.1299,4.1299,4.1299,4.1299,4.1299,4.1299,4.1299,4.1299,4.1299,4.1273,4.1222,4.1107,4.0834,4.0772,4.0775,4.0574,4.0704,4.0592,4.0364,4.0211,4.0058,3.993,3.9775,3.9724,3.9684,3.9594,3.9336,3.888,3.8317,3.7548,3.6594,3.5744,3.493,3.4121,3.365,3.3211,3.3054,3.2826,3.2684,3.2569,3.2541,3.244,3.2262,3.2219,3.219,3.2018,5.4946,5.5399,5.5399,5.5399,5.5399,5.5399,5.5367,5.5399,5.5399,5.5334,5.5399,5.5367,5.5357,5.5271,5.5348,5.5196,5.4728,5.4115,5.3499,5.2858,5.2136,5.1711,5.1393,5.1264,5.1217,5.1217,5.1169,5.0942,5.0663,5.0333,4.9992,4.9438,4.9871,5.0039,4.9931,5.0207,5.0338,5.0511,5.0828,5.069,5.0074,5.069,5.1068,5.0847,5.0715,5.0847,5.0278,4.9643,4.9007,4.8248,4.7519,4.7149,4.7018,4.6529,4.6282,4.6094,4.5726,4.5226,4.4778,4.4454,4.3946,4.3343,4.2813,4.2374,4.2043,4.1882,4.1684,4.1423,4.1299,4.1299,4.1299,4.1299,4.1299,4.1299,4.1299,4.1299,4.1299,4.1299,4.1299,4.1185,4.1097,4.1022,4.0959,4.082,4.0656,4.0491,4.0313,4.016,4.007,3.9942,3.9853,3.9736,3.9698,3.9658,3.9543,3.9128,3.8567,3.7868,3.7079,3.6023,3.493,3.4163,3.3494,3.3154,3.2798,3.2684,3.2598,3.2498,3.2412,3.2348,3.2133,3.1917,3.1715,3.1643,3.1542,5.4136,5.445,5.4493,5.4687,5.4839,5.4612,5.4654,5.4881,5.4612,5.4483,5.4622,5.5033,5.5186,5.4945,5.5002,5.4769,5.4274,5.3662,5.2993,5.231,5.1884,5.1514,5.1311,5.1217,5.1217,5.1187,5.0847,5.0518,5.0237,4.9841,4.9576,4.9456,4.9871,5.0237,5.0278,5.0446,5.0787,5.1158,5.1217,5.0511,4.9576,5.0331,5.0787,5.0596,5.0667,5.0787,5.0499,4.9894,4.9187,4.8528,4.7829,4.7369,4.7184,4.691,4.6741,4.6477,4.6095,4.5589,4.4948,4.4343,4.3725,4.3043,4.257,4.2117,4.1672,4.1522,4.1536,4.1311,4.1299,4.1299,4.1299,4.1299,4.1299,4.1299,4.1299,4.1299,4.1299,4.1299,4.1185,4.1047,4.0959,4.0871,4.0744,4.0491,4.0351,4.0262,4.0096,3.9955,3.9865,3.9839,3.9762,3.962,3.953,3.9491,3.9413,3.8867,3.8146,3.7401,3.6607,3.5502,3.4429,3.3607,3.2919,3.2698,3.2541,3.2412,3.2326,3.219,3.2119,3.2061,3.1802,3.1527,3.1339,3.1194,3.1199,5.3197,5.3155,5.3285,5.3673,5.4136,5.3609,5.3673,5.4104,5.3618,5.3285,5.3392,5.4525,5.4513,5.431,5.43,5.3978,5.3568,5.3117,5.246,5.201,5.1653,5.1386,5.1276,5.1217,5.1217,5.0966,5.0596,5.0416,5.0207,4.9871,4.9673,4.9565,4.9901,5.0357,5.0518,5.0817,5.1217,5.1217,5.1038,5.0463,5.0313,5.0361,5.032,5.0428,5.0637,5.0996,5.0679,5.0092,4.9396,4.8768,4.8038,4.7519,4.7233,4.704,4.6756,4.6469,4.5945,4.531,4.4641,4.4037,4.3283,4.2606,4.2239,4.1858,4.1423,4.1311,4.1299,4.1299,4.1286,4.1286,4.1286,4.1299,4.1299,4.1235,4.1235,4.1173,4.1186,4.116,4.1022,4.0858,4.0757,4.0669,4.0478,4.0211,4.0083,4.0006,3.9916,3.98,3.971,3.9723,3.9684,3.9438,3.9219,3.9206,3.9193,3.8502,3.7708,3.6958,3.6118,3.4991,3.3995,3.3296,3.2741,3.2455,3.2277,3.2225,3.2024,3.1845,3.1787,3.1764,3.1504,3.1243,3.1199,3.1068,3.0981,5.2398,5.2462,5.3016,5.3382,5.3479,5.335,5.3382,5.3489,5.333,5.2993,5.2683,5.3168,5.3467,5.3184,5.3442,5.3218,5.2687,5.2362,5.212,5.1688,5.1246,5.1164,5.1082,5.0923,5.1159,5.089,5.0515,5.0262,5.0188,5.0067,5.0016,5.0042,5.0614,5.0931,5.0985,5.117,5.107,5.0963,5.0743,5.0277,4.9672,4.9575,4.9512,4.9602,4.977,5.0177,5.0147,4.9655,4.9396,4.8887,4.8128,4.7489,4.7212,4.7008,4.6668,4.6106,4.56,4.4741,4.4028,4.3415,4.2631,4.2006,4.1696,4.161,4.1298,4.1185,4.1185,4.1185,4.1185,4.1236,4.1236,4.1249,4.1249,4.1135,4.1097,4.0883,4.077,4.0744,4.0669,4.0529,4.0415,4.0326,4.0198,3.9993,3.9865,3.9813,3.9813,3.9697,3.9633,3.962,3.9581,3.9206,3.888,3.8854,3.8802,3.8013,3.7227,3.6485,3.5639,3.4533,3.3657,3.3111,3.2641,3.2385,3.2249,3.2171,3.192,3.1623,3.148,3.1408,3.1175,3.0986,3.0986,3.0986,3.0942]}]]